[[{"header":{"parameterUnit":"m.s-1","parameterCategory":1,"la1":30.6,"la2":29.2853,"lo1":-89.7004,"lo2":-87.6739,"dy":0.0162,"dx":0.0183,"nx":112,"ny":82,"refTime":"2025-04-16T06:00:00:Z","depth":0,"parameterNumber":2,"parameterNumberName":"U-component_of_WINDS"},"data":[0.0,0.0,0.0,0.0,0.0,0.0,0.0,0.0,0.0,0.0,0.0,0.0,0.0,0.0,0.0,0.0,0.0,0.0,0.0,0.0,0.0,0.0,0.0,0.0,0.0,0.0,0.0,0.0,0.0,0.0,0.0,0.0,0.0,0.0,0.0,0.0,0.0,0.0,0.0,0.0,0.0,0.0,0.0,0.0,0.0,0.0,0.0,0.0,0.0,0.0,0.0,0.0,0.0,0.0,0.0,0.0,0.0,0.0,0.0,0.0,0.0,0.0,0.0,0.0,0.0,0.0,0.0,0.0,0.0,0.0,0.0,0.0,0.0,0.0,0.0,0.0,0.0,0.0,0.0,0.0,0.0,0.0,0.0,0.0,0.0,0.0,0.0,0.0,0.0,0.0,-3.8949,-4.1319,-4.424,-4.631,-4.7038,-4.5316,-4.3227,-4.0951,0.0,0.0,0.0,0.0,0.0,0.0,0.0,0.0,0.0,0.0,0.0,0.0,0.0,0.0,0.0,0.0,0.0,0.0,0.0,0.0,0.0,0.0,0.0,0.0,0.0,0.0,0.0,0.0,0.0,0.0,0.0,0.0,0.0,0.0,0.0,0.0,0.0,0.0,0.0,0.0,0.0,0.0,0.0,0.0,0.0,0.0,0.0,0.0,0.0,0.0,0.0,0.0,0.0,0.0,0.0,0.0,0.0,0.0,0.0,0.0,0.0,0.0,0.0,0.0,0.0,0.0,0.0,0.0,0.0,0.0,0.0,0.0,0.0,0.0,0.0,0.0,0.0,0.0,0.0,0.0,0.0,0.0,0.0,0.0,0.0,0.0,0.0,0.0,0.0,0.0,0.0,0.0,0.0,0.0,0.0,0.0,0.0,0.0,0.0,0.0,0.0,0.0,0.0,0.0,-3.9256,-4.4485,-4.6155,-4.696,-4.7096,-4.4214,-4.1932,-4.0874,0.0,0.0,0.0,0.0,0.0,0.0,0.0,0.0,0.0,0.0,0.0,0.0,0.0,0.0,0.0,0.0,0.0,0.0,0.0,0.0,0.0,0.0,0.0,0.0,0.0,0.0,0.0,0.0,0.0,0.0,0.0,0.0,0.0,0.0,0.0,0.0,0.0,0.0,0.0,0.0,0.0,0.0,0.0,0.0,0.0,0.0,0.0,0.0,0.0,0.0,0.0,0.0,0.0,0.0,0.0,0.0,0.0,0.0,0.0,0.0,0.0,0.0,0.0,0.0,0.0,0.0,0.0,0.0,0.0,0.0,0.0,0.0,0.0,0.0,0.0,0.0,0.0,0.0,0.0,0.0,0.0,0.0,0.0,0.0,0.0,0.0,0.0,0.0,0.0,0.0,0.0,0.0,0.0,0.0,0.0,0.0,0.0,0.0,0.0,0.0,0.0,0.0,0.0,-3.8,-4.034,-4.5279,-4.6155,-4.6406,-4.6406,-4.4136,-4.2164,-4.0874,-3.7948,0.0,0.0,0.0,0.0,0.0,0.0,0.0,0.0,0.0,0.0,0.0,0.0,0.0,0.0,0.0,0.0,0.0,0.0,0.0,0.0,0.0,0.0,0.0,0.0,0.0,0.0,0.0,0.0,0.0,0.0,0.0,0.0,0.0,0.0,0.0,0.0,0.0,0.0,0.0,0.0,0.0,0.0,0.0,0.0,0.0,0.0,0.0,0.0,0.0,0.0,0.0,0.0,0.0,0.0,0.0,0.0,0.0,0.0,0.0,0.0,0.0,0.0,0.0,0.0,0.0,0.0,0.0,0.0,0.0,0.0,0.0,0.0,0.0,0.0,0.0,0.0,0.0,0.0,0.0,0.0,0.0,0.0,0.0,0.0,0.0,0.0,0.0,0.0,0.0,0.0,0.0,0.0,0.0,0.0,0.0,0.0,0.0,0.0,0.0,0.0,0.0,0.0,-4.0573,-4.2083,-4.5446,-4.5981,-4.602,-4.5826,-4.3904,-4.2157,-4.0891,-3.7221,0.0,0.0,0.0,0.0,0.0,0.0,0.0,0.0,0.0,0.0,0.0,0.0,0.0,0.0,0.0,0.0,0.0,0.0,0.0,0.0,0.0,0.0,0.0,0.0,0.0,0.0,0.0,0.0,0.0,0.0,0.0,0.0,0.0,0.0,0.0,0.0,0.0,0.0,0.0,0.0,0.0,0.0,0.0,0.0,0.0,0.0,0.0,0.0,0.0,0.0,0.0,0.0,0.0,0.0,0.0,0.0,0.0,0.0,0.0,0.0,0.0,0.0,0.0,0.0,0.0,0.0,0.0,0.0,0.0,0.0,0.0,0.0,0.0,0.0,0.0,0.0,0.0,0.0,0.0,0.0,0.0,0.0,0.0,0.0,0.0,0.0,0.0,0.0,0.0,0.0,0.0,0.0,0.0,0.0,0.0,0.0,0.0,0.0,0.0,0.0,0.0,0.0,-4.1941,-4.4719,-4.5705,-4.6542,-4.667,-4.5865,-4.2847,-4.0936,-4.081,-3.6127,0.0,0.0,0.0,0.0,0.0,0.0,0.0,0.0,0.0,0.0,0.0,0.0,0.0,0.0,0.0,0.0,0.0,0.0,0.0,0.0,0.0,0.0,0.0,0.0,0.0,0.0,0.0,0.0,0.0,0.0,0.0,0.0,0.0,0.0,0.0,0.0,0.0,0.0,0.0,0.0,0.0,0.0,0.0,0.0,0.0,0.0,0.0,0.0,0.0,0.0,0.0,0.0,0.0,0.0,0.0,0.0,0.0,0.0,0.0,0.0,0.0,0.0,0.0,0.0,0.0,0.0,0.0,0.0,0.0,0.0,0.0,0.0,0.0,0.0,0.0,0.0,0.0,0.0,0.0,0.0,0.0,0.0,0.0,0.0,0.0,0.0,0.0,0.0,0.0,0.0,0.0,0.0,0.0,0.0,0.0,0.0,0.0,0.0,0.0,0.0,0.0,0.0,-4.0737,-4.3252,-4.5669,-4.6151,-4.5955,-4.5123,-4.2899,-4.0891,-3.934,0.0,0.0,0.0,0.0,0.0,0.0,0.0,0.0,0.0,0.0,0.0,0.0,0.0,0.0,0.0,0.0,0.0,0.0,0.0,0.0,0.0,0.0,0.0,0.0,0.0,0.0,0.0,0.0,0.0,0.0,0.0,0.0,0.0,0.0,0.0,0.0,0.0,0.0,0.0,0.0,0.0,0.0,0.0,0.0,0.0,0.0,0.0,0.0,0.0,0.0,0.0,0.0,0.0,0.0,0.0,0.0,0.0,0.0,0.0,0.0,0.0,0.0,0.0,0.0,0.0,0.0,0.0,0.0,0.0,0.0,0.0,0.0,0.0,0.0,0.0,0.0,0.0,0.0,0.0,0.0,0.0,0.0,0.0,0.0,0.0,0.0,0.0,0.0,0.0,0.0,0.0,0.0,0.0,0.0,0.0,0.0,0.0,0.0,0.0,0.0,0.0,0.0,-3.7902,-4.039,-4.2817,-4.5696,-4.5873,-4.5471,-4.4671,-4.2512,-4.0386,-3.8449,0.0,0.0,0.0,0.0,0.0,0.0,0.0,0.0,0.0,0.0,0.0,0.0,0.0,0.0,0.0,0.0,0.0,0.0,0.0,0.0,0.0,0.0,0.0,0.0,0.0,0.0,0.0,0.0,0.0,0.0,0.0,0.0,0.0,0.0,0.0,0.0,0.0,0.0,0.0,0.0,0.0,0.0,0.0,0.0,0.0,0.0,0.0,0.0,0.0,0.0,0.0,0.0,0.0,0.0,0.0,0.0,0.0,0.0,0.0,0.0,0.0,0.0,0.0,0.0,0.0,0.0,0.0,0.0,0.0,0.0,0.0,0.0,0.0,0.0,0.0,0.0,0.0,0.0,0.0,0.0,0.0,0.0,0.0,0.0,0.0,0.0,0.0,0.0,0.0,0.0,0.0,0.0,0.0,0.0,0.0,0.0,0.0,0.0,0.0,0.0,0.0,0.0,-3.8058,-4.1426,-4.4133,-4.5818,-4.5873,-4.5459,-4.4659,-4.1454,-3.9184,0.0,0.0,0.0,0.0,0.0,0.0,0.0,0.0,0.0,0.0,0.0,0.0,0.0,0.0,0.0,0.0,0.0,0.0,0.0,0.0,0.0,0.0,0.0,0.0,0.0,0.0,0.0,0.0,0.0,0.0,0.0,0.0,0.0,0.0,0.0,0.0,0.0,0.0,0.0,0.0,0.0,0.0,0.0,0.0,0.0,0.0,0.0,0.0,0.0,0.0,0.0,0.0,0.0,0.0,0.0,0.0,0.0,0.0,0.0,0.0,0.0,0.0,0.0,0.0,0.0,0.0,0.0,0.0,0.0,0.0,0.0,0.0,0.0,0.0,0.0,0.0,0.0,0.0,0.0,0.0,0.0,0.0,0.0,0.0,0.0,0.0,0.0,0.0,0.0,0.0,0.0,0.0,0.0,0.0,0.0,0.0,0.0,0.0,0.0,0.0,0.0,0.0,0.0,-3.8123,-4.15,-4.4209,-4.5897,-4.549,-4.4725,-4.3826,-4.1228,-3.8779,-3.6764,0.0,0.0,0.0,0.0,0.0,0.0,0.0,0.0,0.0,0.0,0.0,0.0,0.0,0.0,0.0,0.0,0.0,0.0,0.0,0.0,0.0,0.0,0.0,0.0,0.0,0.0,0.0,0.0,0.0,0.0,0.0,0.0,0.0,0.0,0.0,0.0,0.0,0.0,0.0,0.0,0.0,0.0,0.0,0.0,0.0,0.0,0.0,0.0,0.0,0.0,0.0,0.0,0.0,0.0,0.0,0.0,0.0,0.0,0.0,0.0,0.0,0.0,0.0,0.0,0.0,0.0,0.0,0.0,0.0,0.0,0.0,0.0,0.0,0.0,0.0,0.0,0.0,0.0,0.0,0.0,0.0,0.0,0.0,0.0,0.0,0.0,0.0,0.0,0.0,0.0,0.0,0.0,0.0,0.0,0.0,0.0,0.0,0.0,0.0,0.0,0.0,0.0,-3.7636,-4.1006,-4.3593,-4.495,-4.4923,-4.4281,-4.3041,-4.094,-3.8611,-3.6064,0.0,0.0,0.0,0.0,0.0,0.0,0.0,0.0,0.0,0.0,0.0,0.0,0.0,0.0,0.0,0.0,0.0,0.0,0.0,0.0,0.0,0.0,0.0,0.0,0.0,0.0,0.0,0.0,0.0,0.0,0.0,0.0,0.0,0.0,0.0,0.0,0.0,0.0,0.0,0.0,0.0,0.0,0.0,0.0,0.0,0.0,0.0,0.0,0.0,0.0,0.0,0.0,0.0,0.0,0.0,0.0,0.0,0.0,0.0,0.0,0.0,0.0,0.0,0.0,0.0,0.0,0.0,0.0,0.0,0.0,0.0,0.0,0.0,0.0,0.0,0.0,0.0,0.0,0.0,0.0,0.0,0.0,0.0,0.0,0.0,0.0,0.0,0.0,0.0,0.0,0.0,0.0,0.0,0.0,0.0,0.0,0.0,0.0,0.0,0.0,0.0,0.0,-3.6854,-4.0169,-4.2552,-4.3507,-4.4195,-4.3929,-4.2344,-4.0671,-3.8666,-3.6186,0.0,0.0,0.0,0.0,0.0,0.0,0.0,0.0,0.0,0.0,0.0,0.0,0.0,0.0,0.0,0.0,0.0,0.0,0.0,0.0,0.0,0.0,0.0,0.0,0.0,0.0,0.0,0.0,0.0,0.0,0.0,0.0,0.0,0.0,0.0,0.0,0.0,0.0,0.0,0.0,0.0,0.0,0.0,0.0,0.0,0.0,0.0,0.0,0.0,0.0,0.0,0.0,0.0,0.0,0.0,0.0,0.0,0.0,0.0,0.0,-3.3696,-3.2924,0.0,0.0,0.0,0.0,0.0,0.0,0.0,0.0,0.0,0.0,0.0,0.0,0.0,0.0,0.0,0.0,0.0,0.0,0.0,0.0,0.0,0.0,0.0,0.0,0.0,0.0,0.0,0.0,0.0,0.0,0.0,0.0,0.0,0.0,0.0,0.0,0.0,0.0,0.0,0.0,-3.6854,-3.9726,-4.1986,-4.343,-4.3191,-4.2741,-4.2303,-4.0786,-3.904,-3.7127,-3.3788,0.0,0.0,0.0,0.0,0.0,0.0,0.0,0.0,0.0,0.0,0.0,0.0,0.0,0.0,0.0,0.0,0.0,0.0,0.0,0.0,0.0,0.0,0.0,0.0,0.0,0.0,0.0,0.0,0.0,0.0,0.0,0.0,0.0,0.0,0.0,0.0,0.0,0.0,0.0,0.0,0.0,0.0,0.0,0.0,0.0,0.0,0.0,0.0,0.0,0.0,0.0,0.0,0.0,0.0,0.0,0.0,0.0,0.0,0.0,-3.5969,-3.5121,0.0,0.0,0.0,0.0,0.0,0.0,0.0,0.0,0.0,0.0,0.0,0.0,0.0,0.0,0.0,0.0,0.0,0.0,0.0,0.0,0.0,0.0,0.0,0.0,0.0,0.0,0.0,0.0,0.0,0.0,0.0,0.0,0.0,0.0,0.0,0.0,0.0,0.0,0.0,0.0,-3.6792,-3.9216,-4.1035,-4.2263,-4.2402,-4.2226,-4.1754,-4.0605,-3.916,-3.7402,-3.4844,0.0,0.0,0.0,0.0,0.0,0.0,0.0,0.0,0.0,0.0,0.0,0.0,0.0,0.0,0.0,0.0,0.0,0.0,0.0,0.0,0.0,0.0,0.0,0.0,0.0,0.0,0.0,0.0,0.0,0.0,0.0,0.0,0.0,0.0,0.0,0.0,0.0,0.0,0.0,0.0,0.0,0.0,0.0,0.0,0.0,0.0,0.0,0.0,0.0,0.0,0.0,0.0,0.0,-4.1248,-4.1266,-4.1131,-4.107,-4.1029,-4.0914,-3.8805,-3.8144,-3.8423,-3.6883,0.0,0.0,0.0,0.0,0.0,0.0,0.0,0.0,0.0,0.0,0.0,0.0,0.0,0.0,0.0,0.0,0.0,0.0,0.0,0.0,0.0,0.0,-3.6821,-3.6523,-3.7114,-3.6903,-3.3898,0.0,0.0,0.0,0.0,0.0,0.0,0.0,0.0,0.0,0.0,0.0,-3.6786,-3.8821,-4.0209,-4.1009,-4.1735,-4.1872,-4.115,-4.0488,-3.9375,-3.7637,-3.6035,-3.4062,0.0,0.0,0.0,0.0,0.0,0.0,0.0,0.0,0.0,0.0,0.0,0.0,0.0,0.0,0.0,0.0,0.0,0.0,0.0,0.0,0.0,0.0,0.0,0.0,0.0,0.0,0.0,0.0,0.0,0.0,0.0,0.0,-3.4449,-3.536,0.0,0.0,0.0,0.0,0.0,0.0,0.0,0.0,0.0,0.0,0.0,0.0,0.0,-4.0356,-4.0623,-4.2131,-4.2535,-4.1866,-4.3253,-4.3559,-4.2864,-4.2807,-4.2772,-4.2753,-4.2425,0.0,-4.0188,-3.9215,0.0,0.0,0.0,0.0,0.0,0.0,0.0,0.0,0.0,0.0,0.0,0.0,0.0,0.0,0.0,0.0,0.0,0.0,0.0,0.0,0.0,0.0,-4.0057,-3.8591,-3.8884,-3.9159,-3.7987,-3.5372,-3.3165,-3.295,-3.1017,-2.9124,0.0,0.0,0.0,0.0,0.0,0.0,-3.6942,-3.8821,-4.0209,-4.1009,-4.1205,-4.1226,-4.1111,-4.0994,-4.0214,-3.8535,-3.75,-3.6133,-3.4277,-3.1953,0.0,0.0,0.0,0.0,0.0,0.0,0.0,0.0,0.0,0.0,0.0,0.0,0.0,0.0,0.0,0.0,0.0,0.0,0.0,0.0,0.0,0.0,0.0,0.0,0.0,0.0,0.0,0.0,0.0,-3.4221,-3.59,-3.6267,-3.6702,-3.6609,0.0,0.0,0.0,0.0,0.0,0.0,0.0,0.0,0.0,-4.0623,-4.1477,-4.2225,-4.2811,-4.4013,-4.443,-4.409,-4.4797,-4.4946,-4.46,-4.454,-4.4504,-4.4504,-4.4498,-4.4083,-4.3272,-4.1458,-4.0269,-3.9435,0.0,0.0,0.0,0.0,-3.7072,-3.7264,-3.8584,-3.8796,-3.845,-3.8238,0.0,0.0,0.0,0.0,0.0,0.0,0.0,-3.7939,-3.8636,-4.0309,-4.1771,-4.1518,-4.1361,-4.1168,-4.0815,-3.8765,-3.6716,-3.5779,-3.4295,-3.2617,-3.0743,-3.0021,0.0,0.0,0.0,-3.5081,-3.7698,-3.9086,-4.0161,-4.1001,-4.1101,-4.1103,-4.1105,-4.111,-4.0389,-3.871,-3.8242,-3.7246,-3.5508,-3.3887,-3.1992,0.0,0.0,0.0,0.0,0.0,0.0,0.0,0.0,0.0,0.0,0.0,0.0,0.0,0.0,0.0,0.0,0.0,0.0,0.0,0.0,0.0,0.0,0.0,0.0,0.0,0.0,0.0,0.0,-3.5621,-3.7225,-3.7021,-3.8284,-3.8432,0.0,0.0,0.0,0.0,0.0,0.0,-4.0072,-4.0522,-4.126,-4.2365,-4.3459,-4.4358,-4.5055,-4.5915,-4.634,-4.634,-4.6318,-4.6311,-4.6311,-4.6046,-4.5932,-4.5913,-4.571,-4.5594,-4.5441,-4.331,-4.233,-4.1981,-4.0511,-3.9808,-3.9631,-3.9854,-3.9931,-4.0142,-4.1623,-4.1981,-4.1681,-4.0854,-4.0439,-3.9873,-3.775,0.0,0.0,0.0,0.0,-3.9543,-4.0922,-4.2142,-4.3062,-4.3275,-4.3014,-4.2612,-4.2162,-4.1049,-3.9702,-3.8238,-3.7243,-3.5974,-3.3807,-3.289,0.0,-3.3339,-3.4725,-3.6483,-3.863,-3.9624,-4.0385,-4.1031,-4.1094,-4.1097,-4.1098,-4.0911,-4.0172,-3.8689,-3.8398,-3.7598,-3.6055,-3.5371,-3.3926,-3.1582,0.0,0.0,0.0,0.0,0.0,0.0,0.0,0.0,0.0,0.0,0.0,0.0,0.0,0.0,0.0,0.0,0.0,0.0,0.0,0.0,0.0,0.0,0.0,0.0,0.0,0.0,0.0,0.0,0.0,-3.7931,-4.0624,0.0,0.0,0.0,0.0,-3.9277,-4.0672,-4.1493,-4.1232,-4.2787,-4.3867,-4.4249,-4.5915,-4.6822,-4.6868,-4.7675,-4.8062,-4.8081,-4.8017,-4.7971,-4.7952,-4.7182,-4.6827,-4.6797,-4.5951,-4.5594,-4.5537,-4.4566,-4.372,-4.2931,-4.2019,-4.1162,-4.0535,-4.1373,-4.1673,-4.1788,-4.272,-4.2489,-4.2038,-4.3566,-4.3528,-4.2739,-4.1769,-4.0912,0.0,0.0,-4.1094,-4.1776,-4.1989,-4.3361,-4.4267,-4.2666,-4.2968,-4.3178,-4.1519,-4.1109,-4.0758,-3.9858,-3.9019,-3.8162,-3.7204,0.0,-3.6989,-3.7028,-3.783,-3.8728,-3.9624,-4.0503,-4.1051,-4.1109,-4.1109,-4.1093,-4.1098,-4.0397,-3.9562,-3.8669,-3.7811,-3.6952,-3.6035,-3.5957,-3.5098,-3.3301,-3.1621,0.0,0.0,0.0,0.0,0.0,0.0,0.0,0.0,0.0,0.0,0.0,0.0,0.0,0.0,0.0,0.0,0.0,0.0,0.0,0.0,0.0,0.0,0.0,0.0,0.0,0.0,0.0,0.0,-4.1683,-4.3355,0.0,-4.1664,-4.2482,-4.2478,-4.09,-4.2296,-4.3455,-4.4033,-4.5191,-4.6037,-4.6511,-4.7116,-4.754,-4.7708,-4.7979,-4.8143,-4.8143,-4.8115,-4.8105,-4.8086,-4.7798,-4.7394,-4.6885,-4.6567,-4.6124,-4.5575,-4.5267,-4.4979,-4.4624,-4.3758,-4.322,-4.297,-4.3297,-4.3412,-4.3528,-4.4412,-4.4509,-4.4239,-4.4297,-4.3758,-4.3047,-4.2739,-4.2412,-4.2178,-4.2225,-4.2881,-4.3589,-4.3627,-4.4572,-4.5215,-4.4087,-4.3684,-4.3267,-4.212,-4.1462,-4.1012,-4.0698,-3.9956,-3.9117,-3.8279,-3.8142,-3.7947,-3.7379,-3.8473,-3.9488,-3.9761,-4.0561,-4.1109,-4.1109,-4.1109,-4.0875,-4.031,-4.0044,-3.9285,-3.7843,-3.7477,-3.6913,-3.6035,-3.5996,-3.5449,-3.4258,-3.3105,-3.0801,0.0,0.0,0.0,0.0,0.0,0.0,0.0,0.0,0.0,0.0,0.0,0.0,0.0,0.0,0.0,0.0,0.0,0.0,0.0,0.0,0.0,0.0,0.0,0.0,0.0,-3.9881,-4.2203,-4.3819,-4.5732,-4.6271,-4.4599,-4.5695,-4.5714,-4.3801,-4.4896,-4.5764,-4.6025,-4.6584,-4.7094,-4.7543,-4.7934,-4.8228,-4.8393,-4.8798,-4.8971,-4.8971,-4.8971,-4.8971,-4.8971,-4.8663,-4.8086,-4.7298,-4.7019,-4.6413,-4.5594,-4.5594,-4.5594,-4.5537,-4.496,-4.4739,-4.4739,-4.4739,-4.4739,-4.4816,-4.5402,-4.5594,-4.5498,-4.494,-4.4374,-4.3932,-4.3932,-4.3932,-4.3932,-4.3932,-4.4388,-4.4877,-4.4877,-4.5144,-4.5223,-4.4389,-4.3598,-4.2809,-4.1972,-4.1404,-4.1068,-4.1068,-4.0611,-4.0073,-3.9548,-3.943,-3.9255,-3.8668,-3.9527,-4.0249,-4.0249,-4.0738,-4.1109,-4.1109,-4.0836,-4.0424,-3.9858,-3.9318,-3.8521,-3.7369,-3.7025,-3.6599,-3.6014,-3.5722,-3.5293,-3.4707,-3.3281,-3.1445,-2.918,0.0,0.0,0.0,0.0,0.0,0.0,0.0,0.0,0.0,0.0,0.0,0.0,0.0,0.0,0.0,0.0,0.0,0.0,0.0,0.0,0.0,0.0,0.0,-3.9101,-4.198,-4.4061,-4.4191,-4.7701,-4.9503,-4.7961,-4.9986,-5.0376,-4.7887,-4.8444,-4.8319,-4.7005,-4.6959,-4.7109,-4.7363,-4.8469,-4.9049,-4.906,-5.016,-5.0712,-5.0712,-5.0712,-5.0712,-5.0673,-4.9817,-4.8952,-4.8067,-4.7278,-4.6432,-4.5594,-4.5594,-4.5594,-4.5594,-4.5594,-4.5594,-4.5594,-4.5594,-4.5594,-4.5594,-4.5594,-4.5594,-4.5594,-4.5594,-4.5594,-4.5594,-4.5594,-4.5594,-4.5594,-4.5594,-4.5594,-4.5594,-4.5575,-4.5025,-4.4265,-4.3362,-4.2604,-4.1864,-4.098,-4.0894,-4.0987,-4.0987,-4.1057,-4.1087,-4.1109,-4.1109,-4.1109,-4.1109,-4.1109,0.0,-4.1109,-4.109,-4.1051,-4.1051,-4.0288,-3.9741,-3.9722,-3.8238,-3.7285,-3.7213,-3.6433,-3.597,-3.5955,-3.5153,-3.4704,-3.4746,-3.2266,-3.0957,-3.0937,0.0,0.0,0.0,0.0,0.0,0.0,0.0,0.0,0.0,0.0,0.0,0.0,0.0,0.0,0.0,0.0,0.0,0.0,0.0,0.0,0.0,-3.9231,-4.1534,-4.1757,-4.3058,-4.5101,-4.8073,-4.9429,-5.0172,-5.0358,-5.1008,-5.0376,-4.7887,-4.8444,-4.8479,-4.7537,-4.8262,-4.8836,-4.9094,-4.9605,-4.998,-5.0228,-5.0548,-5.0712,-5.0712,-5.0712,-5.0712,-5.0693,-5.0462,-4.951,-4.8086,-4.7875,-4.6932,-4.5594,-4.5594,-4.5594,-4.5594,-4.5594,-4.5594,-4.5594,-4.5594,-4.5594,-4.5594,-4.5594,-4.5594,-4.5594,-4.5594,-4.5594,-4.5594,-4.5594,-4.5594,-4.5594,-4.5594,-4.5594,-4.546,-4.4816,-4.4512,-4.3986,-4.2533,-4.2079,-4.1736,-4.0903,-4.0801,-4.0846,-4.0846,-4.0867,-4.0922,-4.106,-4.1109,-4.1109,-4.1109,-4.1109,-4.1109,-4.1109,-4.0542,-4.0151,-4.0151,-3.9409,-3.8669,-3.8043,-3.7555,-3.6756,-3.5489,-3.5181,-3.5068,-3.5051,-3.4838,-3.4996,-3.5622,-3.371,-3.2402,0.0,0.0,0.0,0.0,0.0,0.0,0.0,0.0,0.0,0.0,0.0,0.0,0.0,0.0,0.0,0.0,0.0,0.0,0.0,0.0,0.0,0.0,-4.1534,-4.367,-4.4711,-4.5249,-4.6568,-4.928,-4.9893,-5.045,-5.1323,-5.1398,-5.0655,-4.8834,-4.9269,-4.926,-4.8457,-4.9164,-4.9641,-4.9803,-5.0056,-5.0294,-5.0493,-5.0624,-5.0712,-5.0712,-5.0712,-5.0712,-5.0693,-5.0327,-4.9394,-4.8086,-4.774,-4.6827,-4.5559,-4.5559,-4.5531,-4.5513,0.0,0.0,0.0,0.0,-4.5594,-4.5594,-4.5594,-4.5594,-4.5594,-4.5594,-4.5594,-4.5594,-4.5594,-4.5594,-4.5594,-4.5594,-4.5344,-4.494,-4.4432,-4.3778,-4.3008,-4.2019,-4.1539,-4.1188,-4.0724,-4.0699,-4.0765,-4.0765,-4.051,0.0,-4.0454,-4.0796,-4.0933,-4.0618,-4.0561,-4.0424,-4.0094,-3.9606,-3.9292,-3.9292,-3.8552,-3.7849,-3.734,-3.697,0.0,0.0,0.0,-3.5081,-3.4711,-3.4699,0.0,0.0,0.0,0.0,0.0,0.0,0.0,0.0,-3.1719,-3.1406,0.0,0.0,0.0,0.0,0.0,0.0,0.0,0.0,0.0,0.0,0.0,0.0,0.0,0.0,0.0,0.0,-4.3633,-4.5082,-4.7386,-4.7776,-4.8129,-4.8946,-4.967,-5.045,-5.1323,-5.1398,-5.1045,-5.0172,-5.0405,-5.0244,-4.9437,-4.9655,0.0,0.0,0.0,-5.0195,-5.0195,-5.0525,-5.0712,-5.0712,-5.0712,-5.0712,-5.0673,-4.9894,-4.9029,-4.8058,-4.7346,-4.6463,-4.5495,-4.5495,-4.5448,-4.541,-4.555,-4.5586,-4.5586,-4.5594,-4.5594,-4.5594,-4.5594,0.0,0.0,-4.5498,-4.5518,-4.5575,-4.5479,-4.546,-4.546,-4.546,-4.4816,-4.4143,-4.4047,-4.2912,-4.1769,-4.1681,-4.1066,-4.0496,-4.0496,-4.053,-4.0539,-4.0539,-3.9937,-3.9427,-3.9437,-4.0136,-4.0457,-3.9743,-3.9632,-3.938,-3.8658,-3.8482,-3.8424,-3.8424,-3.7642,0.0,-3.7115,-3.6411,-3.5908,-3.5747,-3.5786,-3.5474,-3.4695,-3.4766,-3.483,-3.4847,-3.4833,-3.5227,-3.5991,-3.5991,-3.5992,-3.5917,-3.2109,-3.1582,0.0,0.0,0.0,0.0,0.0,0.0,0.0,0.0,0.0,0.0,0.0,0.0,0.0,0.0,0.0,-4.2593,-4.4599,-4.6401,-4.7534,-4.8259,-4.8964,-4.9782,-5.0023,-5.045,-5.1323,-5.1398,-5.1045,-5.0172,-5.0405,-5.0244,-4.9437,-4.9655,-4.9803,-4.9803,-5.0056,-5.0195,-5.0195,-5.0525,-5.0712,-5.0712,-5.0712,0.0,-5.0693,-5.0539,-4.9587,-4.8087,-4.7933,-4.6944,-4.5419,-4.5485,-4.5448,-4.541,-4.5495,-4.5513,-4.5541,-4.5577,-4.5594,-4.5594,-4.5594,-4.5594,-4.5479,-4.4778,-4.5037,-4.5479,-4.4759,-4.4547,0.0,-4.4547,-4.3951,-4.3162,-4.247,-4.2038,-4.1623,-4.0912,-4.0631,-4.0496,-4.0496,-4.0019,-3.9579,-3.9579,-3.8888,-3.8331,-3.8382,-3.8631,-3.8762,-3.8602,-3.8587,-3.8528,-3.8373,-3.7746,-3.7315,-3.7315,-3.6529,-3.602,-3.602,-3.5841,-3.5445,-3.473,-3.4706,-3.4636,-3.4461,-3.5129,-3.5567,-3.5673,-3.5667,-3.5786,-3.6006,-3.6009,-3.5991,-3.5972,-3.5154,-3.539,0.0,0.0,0.0,0.0,0.0,0.0,0.0,0.0,0.0,0.0,0.0,-3.8799,-3.9602,0.0,-4.3708,-4.4525,-4.6735,-4.8333,-4.8314,-4.9002,-4.9503,-4.9503,-4.9503,-4.967,-5.0116,-5.0153,-4.9968,-4.954,-4.9807,-4.9812,-4.9418,-4.9655,-4.9803,-4.9803,-4.9917,-4.9993,-4.9993,-5.0166,-5.0333,-5.0442,-5.0442,-5.0523,-5.0624,-4.9779,-4.8913,-4.8,-4.7137,-4.6244,-4.5409,-4.5409,-4.537,-4.5351,-4.5429,-4.5438,-4.5448,-4.5495,-4.5504,-4.5446,-4.5034,-4.4899,-4.4765,-4.389,-4.389,-4.4178,-4.3737,-4.3602,-4.3602,-4.3602,-4.3017,-4.2307,-4.1865,-4.1459,-4.1034,-4.0592,-4.05,-4.0496,-4.0496,-4.0189,-3.9785,-3.9381,-3.8604,-3.7875,-3.7475,-3.7125,-3.7079,-3.7571,-3.7642,-3.7482,-3.705,-3.6619,-3.6347,-3.6347,-3.595,-3.5698,-3.5698,-3.5674,-3.5475,-3.5072,-3.5009,-3.5024,-3.5053,-3.5465,-3.5737,-3.5797,-3.5861,-3.5914,-3.5956,-3.5977,-3.6219,-3.6651,-3.6654,-3.6872,0.0,0.0,0.0,0.0,0.0,0.0,0.0,-3.6458,-3.7665,-3.8451,-3.9807,-4.1107,-4.1924,-4.3838,-4.5658,-4.6773,-4.8519,-4.9577,-4.9187,-4.9559,-4.9633,-4.8983,-4.8909,-4.8909,-4.8909,-4.8909,-4.8909,-4.8909,-4.9209,-4.9399,-4.9399,-4.9598,-4.9721,-4.9721,-4.9721,-4.9721,-4.9721,-4.9776,-4.9904,-5.0123,-5.0123,-5.0268,-5.0464,-4.8948,-4.8152,-4.7882,-4.6147,-4.54,-4.5379,-4.5328,-4.5307,-4.5307,-4.5348,-4.538,-4.5381,-4.54,-4.54,-4.5285,-4.448,-4.4192,-4.4039,-4.3004,-4.2763,-4.2878,-4.2706,-4.2668,-4.2668,-4.2668,-4.2083,-4.1451,-4.1451,-4.0978,-4.0485,-4.0485,-4.0479,-4.0484,-4.0484,-4.0358,-4.005,-3.9389,-3.8427,-3.7505,-3.6805,-3.6005,-3.5766,-3.6581,-3.6702,-3.6449,-3.5761,-3.566,-3.566,-3.566,-3.566,-3.566,-3.566,-3.5604,-3.5593,-3.5655,-3.5604,-3.5593,-3.566,-3.566,-3.5669,-3.5672,-3.5783,-3.5859,-3.5852,-3.5914,-3.6311,-3.7048,-3.7352,-3.7619,-3.5438,-3.4513,-3.4328,-3.5795,-3.6816,-3.7875,0.0,-3.9858,-4.0211,-4.1014,-4.1887,-4.2779,-4.3578,-4.4581,-4.603,-4.8277,-4.8259,-4.8444,-4.9782,-4.9429,-4.9002,-4.8909,-4.8909,-4.8909,-4.8909,-4.8909,-4.8909,-4.8909,-4.9209,-4.9399,-4.9399,-4.9427,-4.9442,-4.9442,-4.9442,-4.9442,-4.9442,-4.9665,-4.9817,-4.9838,-4.9838,-4.9943,-5.014,-4.9224,-4.8479,-4.7801,-4.6075,-4.5348,-4.5379,-4.5328,-4.5307,-4.5307,-4.5307,-4.5317,-4.5309,-4.5371,-4.54,-4.5285,-4.448,-4.4192,-4.3943,-4.2352,-4.2313,-4.2763,-4.2045,-4.1834,-4.1834,-4.1834,-4.1221,-4.0541,-4.0541,-4.0492,-4.0415,-4.0415,-4.0405,-4.0405,-4.0405,-3.9791,-3.9224,-3.9147,-3.7843,-3.6731,-3.6635,-3.5947,-3.5472,-3.5637,-3.5669,-3.5631,-3.5528,-3.5528,-3.5528,-3.5528,-3.5528,-3.5528,-3.5528,-3.5515,-3.5515,-3.5528,-3.5515,-3.5515,-3.5528,-3.5528,-3.5547,-3.5604,-3.5639,-3.565,-3.5714,-3.5722,-3.5843,-3.6094,-3.7516,-3.8703,-3.7072,-3.6525,-3.6441,-3.7212,-3.8729,-4.0104,-4.036,-4.1107,-4.1887,-4.2222,-4.2946,-4.3763,-4.4599,-4.5825,-4.7033,-4.8036,-4.9132,-4.9745,-4.9447,-4.9522,-4.9262,-4.8314,-4.8612,-4.8909,-4.8909,-4.8909,-4.8909,-4.8909,-4.9027,-4.911,-4.911,-4.911,-4.911,-4.911,-4.911,-4.911,-4.911,-4.922,-4.9374,-4.9573,-4.9491,-4.9575,-4.9779,-4.8568,-4.7419,-4.6352,-4.5623,-4.5317,-4.5338,-4.5307,-4.5307,-4.5307,-4.5307,-4.5307,-4.5307,-4.5339,-4.5024,-4.4459,-4.3666,-4.3053,-4.2441,-4.1274,-4.1121,-4.1331,-4.0987,-4.0882,-4.0882,-4.0882,-4.0614,-4.0346,-4.0346,-4.0345,-4.0334,-4.0334,-4.037,-4.0407,-4.0407,-4.01,-3.9706,-3.9207,-3.8536,-3.7904,-3.7444,-3.6654,-3.6113,-3.6147,-3.576,-3.55,-3.55,-3.55,-3.55,-3.55,-3.55,-3.55,-3.55,-3.55,-3.55,-3.55,-3.55,-3.55,-3.55,-3.55,-3.5508,-3.5534,-3.5568,-3.5609,-3.5636,-3.5672,-3.599,-3.6572,-3.7743,-3.8805,-3.7637,-3.7609,-3.7896,-3.841,-4.0257,-4.1776,-4.1181,-4.2114,-4.3101,-4.3132,-4.3581,-4.4233,-4.5138,-4.642,-4.7516,-4.7961,-4.954,-5.0376,-4.9392,-4.9355,-4.902,-4.785,-4.8017,-4.8333,-4.8556,-4.8779,-4.8909,-4.8909,-4.8909,-4.8909,-4.8909,-4.8909,-4.8909,-4.8909,-4.8909,-4.8909,-4.8909,-4.8909,-4.901,-4.9241,-4.9139,-4.9217,-4.9394,-4.7994,-4.6559,-4.5173,-4.5256,-4.5307,-4.5307,-4.5307,-4.5307,-4.5307,-4.5307,-4.5307,-4.5307,-4.5307,-4.4895,-4.4208,-4.3157,-4.2393,-4.1686,-4.0645,-4.0301,-4.0301,-4.0301,-4.0301,-4.0301,-4.0301,-4.0301,-4.0301,-4.0301,-4.0291,-4.0308,-4.0308,-4.0345,-4.0372,-4.0372,-4.0372,-4.02,-3.9548,-3.9242,-3.8878,-3.8303,-3.7305,-3.6565,-3.6565,-3.5928,-3.5453,-3.5467,-3.5467,-3.5467,-3.5467,-3.5467,-3.5486,-3.55,-3.55,-3.55,-3.55,-3.55,-3.55,-3.55,-3.55,-3.55,-3.55,-3.5547,-3.5575,-3.5575,-3.562,-3.5985,-3.6642,-3.7715,-3.8568,-3.674,-3.7114,-3.8085,-3.9719,-4.1456,-4.276,-4.2723,-4.333,-4.3892,-4.3952,-4.3942,-4.4188,-4.5122,-4.5974,-4.7051,-4.8612,-4.8927,-4.9243,-5.0042,-4.8779,-4.7757,-4.7701,-4.7033,-4.6884,-4.7664,-4.8444,-4.8909,-4.8909,-4.8909,-4.8909,-4.8909,-4.8909,-4.8909,-4.8909,-4.8909,-4.8909,-4.8909,-4.8909,-4.8874,-4.8822,-4.8822,-4.8873,-4.8984,-4.7834,-4.6398,-4.4825,-4.5162,-4.5307,-4.5307,-4.5307,-4.5307,-4.5307,-4.5307,-4.5307,-4.5307,-4.5307,-4.5288,-4.501,-4.3367,-4.2775,-4.2488,-4.0836,-4.0301,-4.0301,-4.0301,-4.0301,-4.0301,-4.0301,-4.0301,-4.0301,-4.0301,-4.0301,-4.031,-4.031,-4.031,-4.031,-4.031,-4.031,-4.031,-4.0272,-3.9584,-3.8992,-3.8973,-3.7602,-3.6506,-3.6506,-3.5829,-3.5323,-3.5386,-3.5405,-3.5405,-3.5405,-3.5405,-3.542,-3.55,-3.55,-3.55,-3.55,-3.55,-3.55,-3.55,-3.55,-3.55,-3.55,-3.5507,-3.5507,-3.5507,-3.5514,-3.5547,-3.569,-3.7276,-3.8053,-3.7937,-3.9002,-4.029,-4.144,-4.2596,-4.346,-4.346,-4.3666,-4.3835,-4.3867,-4.3851,-4.4093,-4.494,-4.536,-4.6079,-4.764,-4.7989,-4.8303,-4.9029,-4.8658,-4.79,-4.6845,-4.6937,-4.6993,-4.6734,-4.7559,-4.8333,-4.8872,-4.8909,-4.8909,-4.8909,-4.8909,-4.8909,-4.8909,-4.8909,-4.8909,-4.8909,-4.8875,-4.8822,-4.8787,-4.8124,-4.7623,-4.7233,-4.6324,-4.541,-4.4546,-4.4831,-4.4969,-4.5,-4.5213,-4.5307,-4.5307,-4.5307,-4.5307,-4.5307,-4.5307,-4.5307,-4.5059,-4.3386,-4.2412,-4.1762,-4.0664,-4.0301,-4.0301,-4.0301,-4.0301,-4.0301,-4.0301,-4.0301,-4.0301,-4.0301,-4.0301,-4.0301,-4.0301,-4.0301,-4.0301,-4.0301,-4.0301,-4.0301,-4.0301,-4.0053,-3.9862,-3.9862,-3.8428,-3.6924,-3.5859,-3.5477,-3.5315,-3.5323,-3.5372,-3.5405,-3.5405,-3.5446,-3.5486,-3.55,-3.55,-3.55,-3.55,-3.55,-3.55,-3.55,-3.55,-3.55,-3.55,-3.55,-3.55,-3.55,-3.55,-3.5508,-3.5573,-3.7221,-3.801,-3.9301,-4.0381,-4.1461,-4.2615,-4.3347,-4.3804,-4.3804,-4.3753,-4.3736,-4.3788,-4.3531,-4.3568,-4.4397,-4.4371,-4.4813,-4.6665,-4.7033,-4.7439,-4.8457,-4.8347,-4.7774,-4.674,-4.6833,-4.6888,-4.6648,-4.7196,-4.7932,-4.873,-4.8785,-4.8785,-4.8785,-4.8839,-4.8856,-4.8856,-4.8856,-4.8856,-4.8856,-4.8768,-4.8567,-4.8253,-4.726,-4.645,-4.5776,-4.5389,-4.4858,-4.426,-4.4533,-4.4714,-4.4819,-4.5034,-4.5184,-4.5307,-4.5307,-4.5307,-4.5307,-4.5307,-4.5307,-4.5059,-4.3386,-4.2431,-4.1781,-4.0664,-4.0301,-4.0301,-4.0301,-4.0301,-4.0301,-4.0301,-4.0301,-4.0301,-4.0301,-4.0301,-4.0301,-4.0301,-4.0301,-4.0301,-4.0301,-4.0301,-4.0301,-4.0301,-4.0301,-4.0301,-4.0301,-3.9107,-3.7702,-3.6351,-3.6173,-3.594,-3.5362,-3.5346,-3.5465,-3.5752,-3.584,-3.5888,-3.5921,-3.5935,-3.5808,-3.5519,-3.55,-3.55,-3.55,-3.55,-3.55,-3.55,-3.55,-3.55,-3.55,-3.55,-3.55,-3.5538,-3.7219,-3.8007,-4.0673,-4.1197,-4.1685,-4.3212,-4.3684,-4.3788,-4.3788,-4.3703,-4.3615,-4.3716,-4.3002,-4.2638,-4.3439,-4.3047,-4.3359,-4.567,-4.6149,-4.6759,-4.8365,-4.7941,-4.7442,-4.7387,-4.6705,-4.6557,-4.7313,-4.7369,-4.7737,-4.8532,-4.8587,-4.8605,-4.8605,-4.8715,-4.8787,-4.8787,-4.8787,-4.8787,-4.8787,-4.8623,-4.8089,-4.7206,-4.6287,-4.5443,-4.4709,-4.4996,-4.4697,-4.3989,-4.4246,-4.4519,-4.4751,-4.4763,-4.4988,-4.5267,-4.5267,-4.5277,-4.5307,-4.5307,-4.5307,-4.5059,-4.3386,-4.2794,-4.2526,-4.0836,-4.0301,-4.0301,-4.0301,-4.0301,-4.0301,-4.0301,-4.0301,-4.0301,-4.0301,-4.0301,-4.0301,-4.0301,-4.0301,-4.0301,-4.0301,-4.0301,-4.0301,-4.0301,-4.0301,-4.0282,-4.0244,-3.9546,-3.8706,-3.7827,-3.7693,-3.7156,-3.5629,-3.5419,-3.5714,-3.6479,-3.6634,-3.6692,-3.6757,-3.6767,-3.6442,-3.5673,-3.5596,-3.5577,-3.5635,-3.5596,-3.5577,-3.5635,-3.5635,-3.5635,-3.5635,-3.5635,-3.5635,-3.5673,-3.7296,-3.8065,-4.082,-4.1991,-4.2999,-4.3422,-4.3549,-4.3566,-4.3566,-4.3549,-4.3384,-4.2812,-4.2483,-4.2026,-4.1066,-4.1756,-4.2822,-4.3988,-4.5272,-4.6653,-4.8162,-4.8198,-4.7849,-4.7261,-4.7003,-4.6948,-4.715,-4.7169,-4.7518,-4.8327,-4.8514,-4.8605,-4.8605,-4.8642,-4.866,-4.866,-4.866,-4.866,-4.866,-4.796,-4.7169,-4.625,-4.5406,-4.4911,-4.469,-4.417,-4.3816,-4.3649,-4.3952,-4.4136,-4.4206,-4.443,-4.4663,-4.4934,-4.4934,-4.5087,-4.5307,-4.5307,-4.5307,-4.5059,-4.3386,-4.2794,-4.2526,-4.0836,-4.0301,-4.0301,-4.0301,-4.0301,-4.0301,-4.0301,-4.0301,-4.0301,-4.0301,-4.0301,-4.0301,-4.0301,-4.0301,-4.0301,-4.0301,-4.0301,-4.0301,-4.0301,-4.0301,-4.0091,-3.9451,-3.9145,-3.8706,-3.7827,-3.7693,-3.7549,-3.7137,-3.7124,-3.7245,-3.7455,-3.7526,-3.7567,-3.7586,-3.7583,-3.7528,-3.7365,-3.675,-3.6692,-3.7334,-3.6731,-3.6692,-3.7353,-3.7353,-3.7353,-3.7353,-3.7353,-3.7353,-3.7392,-3.8469,-3.8977,-4.1937,-4.28,-4.3515,-4.3515,-4.3515,-4.3423,-4.3039,-4.2965,-4.2635,-4.1479,-4.124,-4.0855,-3.9606,-4.0425,-4.1673,-4.2799,-4.4394,-4.6011,-4.7572,-4.8067,-4.8141,-4.7681,-4.7626,-4.7626,-4.7626,-4.7626,-4.781,-4.8269,-4.8383,-4.8458,-4.8458,-4.8513,-4.8569,-4.8569,-4.8569,-4.8348,-4.7942,-4.7095,-4.6232,-4.5369,-4.4562,-4.4176,-4.4158,-4.3699,-4.3515,-4.3515,-4.3699,-4.3862,-4.4002,-4.4166,-4.4388,-4.4637,-4.4751,-4.4903,-4.5098,-4.5246,-4.5307,-4.5105,-4.3787,-4.3329,-4.3004,-4.095,-4.0301,-4.0301,-4.0301,-4.0301,-4.0301,-4.0301,-4.0301,-4.0301,-4.0301,-4.0301,-4.0301,-4.0301,-4.0301,-4.0301,-4.0301,-4.0301,-4.0301,-4.0301,-4.0301,-4.0129,-3.9652,-3.9565,-3.9412,-3.8916,-3.8839,-3.8839,-3.8839,-3.8216,-3.79,-3.8282,-3.8382,-3.8435,-3.8432,-3.8438,-3.8297,-3.797,-3.749,-3.7466,-3.7988,-3.7526,-3.7507,-3.7988,-3.8007,-3.8007,-3.8007,-3.8007,-3.8007,-3.8027,-3.8892,-3.9304,-4.3277,-4.3515,-4.3515,-4.3515,-4.3515,-4.3277,-4.2471,-4.2196,-4.168,-4.0049,-3.9643,-3.9331,-3.8524,-3.9129,-4.0267,-4.1882,-4.3497,-4.5131,-4.6856,-4.77,-4.8196,-4.8306,-4.8306,-4.8306,-4.8306,-4.8306,-4.8306,-4.8306,-4.8306,-4.8306,-4.8306,-4.8401,-4.8476,-4.8476,-4.8365,-4.7868,-4.6947,-4.614,-4.5351,-4.4544,-4.3828,-4.3515,-4.3515,-4.3515,-4.3515,-4.3515,-4.3515,-4.3666,-4.3942,-4.3942,-4.4106,-4.4374,-4.4599,-4.4739,-4.4843,-4.5121,-4.5256,-4.5182,-4.4293,-4.393,-4.3472,-4.1199,-4.0454,-4.0435,-4.032,-4.0301,-4.0301,-4.0301,-4.0301,-4.0301,-4.0301,-4.0301,-4.0301,-4.0301,-4.0301,-4.0301,-4.0301,-4.0301,-4.0301,-4.0301,-4.0301,-4.0301,-4.0301,-4.0301,-4.0301,-4.0301,-4.0301,-4.0301,-4.0301,-3.8973,-3.8323,-3.9088,-3.9228,-3.9254,-3.9265,-3.927,-3.8966,-3.8289,-3.8116,-3.8139,-3.8327,-3.8212,-3.8212,-3.8334,-3.8334,-3.8334,-3.8334,-3.8334,-3.8334,-3.8354,-3.9111,-3.9457,-4.3277,-4.3515,-4.3515,-4.3515,-4.3515,-4.3277,-4.242,-4.1741,-4.0822,-3.909,-3.8294,-3.7676,-3.6853,-3.7918,-3.9441,-4.104,-4.2653,-4.4507,-4.6782,-4.7223,-4.7553,-4.8233,-4.8306,-4.8306,-4.8306,-4.8306,-4.8306,-4.8306,-4.8306,-4.8306,-4.8306,-4.8306,-4.8325,-4.8325,-4.7701,-4.6948,-4.6122,-4.5314,-4.4507,-4.3699,-4.357,-4.3515,-4.3515,-4.3515,-4.3515,-4.3515,-4.3515,-4.3531,-4.3582,-4.3582,-4.3779,-4.4079,-4.4121,-4.4402,-4.4819,-4.4868,-4.5057,-4.5182,-4.4293,-4.3548,-4.2813,-4.1667,-4.1285,-4.117,-4.0492,-4.0301,-4.0301,-4.0301,-4.0301,-4.0301,-4.0301,-4.0301,-4.0301,-4.0301,-4.0301,-4.0301,-4.0301,-4.0301,-4.0301,-4.0301,-4.0301,-4.0301,-4.0301,-4.0301,-4.0301,-4.0301,-4.0301,-4.0301,-4.0301,-4.0034,-3.99,-4.0053,-4.0081,-4.009,-4.0088,-4.0086,-4.0065,-3.9974,-3.9292,-3.926,-4.003,-3.9376,-3.9335,-4.0054,-4.0073,-4.0073,-4.0073,-4.0073,-4.0073,-4.0073,-4.0227,-4.0285,-4.3387,-4.348,-4.3446,-4.3446,-4.3393,-4.3011,-4.1769,-4.0873,-3.9737,-3.764,-3.6939,-3.6351,-3.5125,-3.6881,-3.869,-3.9103,-4.1227,-4.3519,-4.5572,-4.6195,-4.6929,-4.8159,-4.8306,-4.8306,-4.8306,-4.8306,-4.8306,-4.8306,-4.8306,-4.8306,-4.8306,-4.8306,-4.8122,-4.7681,-4.7296,-4.6507,-4.5296,-4.4892,-4.4305,-4.3515,-4.3515,-4.3515,-4.3515,-4.3515,-4.3515,-4.3515,-4.3515,-4.3515,-4.3515,-4.3515,-4.3582,-4.3765,-4.3942,-4.4151,-4.4378,-4.4235,-4.4531,-4.4943,-4.4232,-4.3739,-4.3367,-4.2947,-4.1934,-4.0807,-4.0416,-4.0301,-4.0301,-4.0301,-4.0301,-4.0301,-4.0301,-4.0301,-4.0301,-4.0301,-4.0301,-4.0301,-4.0301,-4.0301,-4.0301,-4.0301,-4.0301,-4.0301,-4.0301,-4.0301,-4.0301,-4.0301,-4.0301,-4.0301,-4.0301,-4.0301,-4.0301,-4.0301,-4.0301,-4.0291,-4.03,-4.03,-4.0308,-4.0353,-3.9959,-3.9938,-4.0422,-4.0057,-4.0008,-4.0436,-4.0444,-4.0471,-4.0495,-4.0495,-4.0492,-4.0496,-4.0496,-4.0496,-4.346,-4.3464,-4.3394,-4.3394,-4.3305,-4.2722,-4.0919,-3.9916,-3.8656,-3.6216,-3.5596,-3.5137,-3.4061,-3.5876,-3.7533,-3.7601,-3.9831,-4.2225,-4.4142,-4.526,-4.6434,-4.7884,-4.8214,-4.8306,-4.8306,-4.8306,-4.8306,-4.8306,-4.8306,-4.8306,-4.8306,-4.8141,-4.7736,-4.7113,-4.6764,-4.5975,-4.4727,-4.4544,-4.4121,-4.3515,-4.3515,-4.3515,-4.3515,-4.3515,-4.3515,-4.3515,-4.3515,-4.3515,-4.3515,-4.3515,-4.3515,-4.3532,-4.3798,-4.3812,-4.3695,-4.3461,-4.3838,-4.4391,-4.4018,-4.3895,-4.3906,-4.3786,-4.2287,-4.0559,-4.0559,-4.0435,-4.0301,-4.0301,-4.0301,-4.0301,-4.0301,-4.0301,-4.0301,-4.0301,-4.0301,-4.0301,-4.0301,-4.0301,-4.0301,-4.0301,-4.0301,-4.0301,-4.0301,-4.0301,-4.0301,-4.0301,-4.0301,-4.0301,-4.0301,-4.0301,-4.0301,-4.0301,-4.0301,-4.0301,-4.0301,-4.0301,-4.0301,-4.0308,-4.0308,-4.0326,-4.037,-4.037,-4.0398,-4.0407,-4.0407,-4.0424,-4.0485,-4.0485,-4.0491,-4.0484,-4.0492,-4.05,-4.3313,-4.3464,-4.3394,-4.3394,-4.3305,-4.2577,-4.0176,-3.9044,-3.7801,-3.5339,-3.4277,-3.3988,-3.4586,-3.4676,-3.5469,-3.7911,-3.8961,-4.0416,-4.3139,-4.4894,-4.6232,-4.7113,-4.7846,-4.8306,-4.8306,-4.8306,-4.8306,-4.8306,-4.8306,-4.8306,-4.8306,-4.7608,-4.7186,-4.7094,-4.5682,-4.4838,-4.4691,-4.3975,-4.357,-4.3515,-4.3515,-4.3515,-4.3515,-4.3515,-4.3515,-4.3515,-4.3515,-4.3515,-4.3515,-4.3515,-4.3515,-4.3496,-4.3531,-4.3234,-4.2813,-4.2723,-4.2963,-4.3369,-4.3491,-4.3587,-4.3563,-4.3066,-4.2221,-4.138,-4.138,-4.0883,-4.0301,-4.0301,-4.0301,-4.0301,-4.0301,-4.0301,-4.0301,-4.0301,-4.0301,-4.0301,-4.0301,-4.0301,-4.0301,-4.0301,-4.0301,-4.0301,-4.0301,-4.0301,-4.0301,-4.0301,-4.0301,-4.0301,-4.0301,-4.0301,-4.0301,-4.0301,-4.0301,-4.0301,-4.0301,-4.0301,-4.031,-4.0291,-4.0291,-4.03,-4.0307,-4.0316,-4.0353,-4.0407,-4.0407,-4.0407,-4.0415,-4.0415,-4.0415,-4.0405,-4.0466,-4.051,-4.2606,-4.2957,-4.3215,-4.3215,-4.3105,-4.2395,-3.9982,-3.8855,-3.7584,-3.5141,-3.4029,-3.3586,-3.3895,-3.4055,-3.4735,-3.6581,-3.7069,-3.8223,-4.1053,-4.2226,-4.3563,-4.5688,-4.6635,-4.7408,-4.8212,-4.8306,-4.8306,-4.8306,-4.8306,-4.8104,-4.759,-4.7278,-4.6654,-4.5682,-4.5021,-4.447,-4.3975,-4.3644,-4.3515,-4.3515,-4.3515,-4.3515,-4.3515,-4.3515,-4.3515,-4.3515,-4.3515,-4.3515,-4.3515,-4.3515,-4.3221,-4.2782,-4.2782,-4.2334,-4.1622,-4.1243,-4.149,-4.2023,-4.1777,-4.1738,-4.1864,-4.2314,-4.1567,-4.0573,-4.0731,-4.0559,-4.0301,-4.0301,-4.0301,-4.0301,-4.0301,-4.0301,-4.0301,-4.0301,-4.0301,-4.0301,-4.0301,-4.0301,-4.0301,-4.0301,-4.0301,-4.0301,-4.0301,-4.0301,-4.0301,-4.0301,-4.0301,-4.0301,-4.0301,-4.0301,-4.0301,-4.0301,-4.0301,-4.0301,-4.0301,-4.0301,-4.0301,-4.0301,-4.0301,-4.0291,-4.03,-4.03,-4.0309,-4.0337,-4.0346,-4.0336,-4.0334,-4.0334,-4.0362,-4.0407,-4.0432,-4.0441,-4.1934,-4.2449,-4.2814,-4.305,-4.283,-4.1922,-3.9568,-3.8426,-3.7176,-3.4751,-3.3791,-3.3393,-3.3393,-3.3517,-3.4087,-3.5453,-3.5792,-3.6856,-3.9562,-4.0602,-4.192,-4.4263,-4.5219,-4.6217,-4.7595,-4.8082,-4.8214,-4.7957,-4.7957,-4.748,-4.6452,-4.6379,-4.5865,-4.4745,-4.447,-4.4066,-4.3515,-4.3515,-4.3515,-4.3515,-4.3515,-4.3515,-4.3515,-4.3515,-4.3515,-4.3515,-4.3515,-4.3515,-4.3478,-4.3239,-4.28,-4.2268,-4.2014,-4.1411,-4.0606,-4.0107,-4.0333,-4.0803,-4.0457,-4.0677,-4.1231,-4.1588,-4.121,-4.0528,-4.026,-4.0244,-4.0301,-4.0301,-4.0301,-4.0301,-4.0301,-4.0301,-4.0301,-4.0301,-4.0301,-4.0301,-4.0301,-4.0301,-4.0301,-4.0301,-4.0301,-4.0301,-4.0301,-4.0301,-4.0301,-4.0301,-4.0301,-4.0301,-4.0301,-4.0301,-4.0301,-4.0301,-4.0301,-4.0301,-4.0301,-4.0301,-4.0301,-4.0301,-4.0301,-4.0301,-4.0301,-4.0301,-4.0301,-4.0301,-4.0301,-4.0301,-4.0299,-4.0299,-4.0317,-4.0363,-4.0362,-4.0379,-4.1336,-4.1958,-4.2105,-4.2905,-4.2395,-4.1089,-3.8752,-3.7593,-3.6325,-3.3918,-3.3411,-3.3393,-3.3393,-3.3068,-3.333,-3.4865,-3.5545,-3.6724,-3.907,-4.0837,-4.2161,-4.292,-4.374,-4.4781,-4.6179,-4.7521,-4.7957,-4.7168,-4.7113,-4.6415,-4.4801,-4.4709,-4.4709,-4.4691,-4.392,-4.3515,-4.3515,-4.3515,-4.3515,-4.3515,-4.3515,-4.3515,-4.3515,-4.3515,-4.3515,-4.3515,-4.3515,-4.3515,-4.3441,-4.2635,-4.2304,-4.2196,-4.1359,-4.0569,-3.9868,-3.9606,-3.9641,-3.9823,-3.9899,-4.104,-4.2257,-4.1011,-4.1331,-4.1903,-4.0374,-4.0087,-4.0301,-4.0301,-4.0301,-4.0301,-4.0301,-4.0301,-4.0301,-4.0301,-4.0301,-4.0301,-4.0301,-4.0301,-4.0301,-4.0301,-4.0301,-4.0301,-4.0301,-4.0301,-4.0301,-4.0301,-4.0301,-4.0301,-4.0301,-4.0301,-4.0301,-4.0301,-4.0301,-4.0301,-4.0301,-4.0301,-4.0301,-4.0301,-4.0301,-4.0301,-4.0301,-4.0301,-4.0301,-4.0301,-4.0301,-4.0301,-4.0301,-4.0301,-4.0301,-4.031,-4.0299,-4.0353,-3.8576,-3.9398,-4.0128,-3.982,-3.9947,-3.9496,-3.7105,-3.6796,-3.6325,-3.39,-3.3393,-3.3334,-3.3034,-3.27,-3.3123,-3.5169,-3.5198,-3.5841,-3.8417,-3.9756,-4.0911,-4.2119,-4.4577,-4.6083,-4.5849,-4.683,-4.7237,-4.6652,-4.6412,-4.5828,-4.4746,-4.4691,-4.4452,-4.3901,-4.3626,-4.3515,-4.3515,-4.3515,-4.3515,-4.3515,-4.3515,-4.3515,-4.3515,-4.3515,-4.3515,-4.3515,-4.3515,-4.3515,-4.3478,-4.3222,-4.247,-4.1499,-4.1727,-4.0615,-3.8937,-3.9339,-3.9506,-3.9452,-3.8917,-3.9493,-4.0321,-3.9538,-3.957,-3.9834,-3.9571,-3.9873,-4.0301,-4.0301,-4.0301,-4.0301,-4.0301,-4.0301,-4.0301,-4.0301,-4.0301,-4.0301,-4.0301,-4.0301,-4.0301,-4.0301,-4.0301,-4.0473,-4.1036,-4.0654,-4.0492,-4.1036,-4.0654,-4.0301,-4.0301,-4.0301,-4.0301,-4.0301,-4.0301,-4.0301,-4.0301,-4.0807,-4.0883,-4.032,-4.0826,-4.0864,-4.032,-4.0301,-4.0301,-4.0301,-4.0301,-4.0301,-4.0301,-4.0301,-4.0301,-4.0301,-4.0301,-4.0319,-3.7023,-3.7753,-3.8462,-3.8263,-3.8354,-3.8011,-3.6202,-3.5946,-3.5566,-3.3773,-3.3393,-3.3271,-3.2876,-3.2617,-3.2966,-3.4414,-3.4464,-3.519,-3.7774,-3.8817,-3.9889,-4.1297,-4.3714,-4.5018,-4.4443,-4.5578,-4.6051,-4.5323,-4.5365,-4.5022,-4.4054,-4.4143,-4.4011,-4.3533,-4.3515,-4.3515,-4.3515,-4.3515,-4.3515,-4.3515,-4.3515,-4.3515,-4.3515,-4.3515,-4.3515,-4.3515,-4.3515,-4.3515,0.0,-4.3167,-4.2434,-4.1504,-4.131,-4.0238,-3.8875,-3.8979,-3.9003,-3.8913,-3.8372,-3.8751,-3.9362,-3.875,-3.8673,-3.8857,-3.9171,-3.9656,-4.0137,-4.0253,-4.0272,-4.0263,-4.0301,-4.0301,-4.0301,-4.0301,-4.0301,-4.0301,-4.0301,-4.0301,-4.0377,-4.0692,-4.0511,-4.0559,-4.1361,-4.0826,-4.0473,-4.0979,-4.0616,-4.0416,-4.0711,-4.075,-4.0883,-4.1208,-4.1246,-4.1246,-4.1246,-4.1113,-4.0826,-4.032,-4.0769,-4.0826,-4.032,-4.0597,-4.075,-4.075,-4.075,-4.075,-4.075,-4.0454,-4.0301,-4.0301,-4.0301,-4.0301,0.0,-3.6761,-3.6995,-3.7701,-3.7339,-3.6633,-3.582,-3.5098,0.0,-3.3574,-3.3378,-3.3241,-3.29,-3.2766,-3.2786,-3.298,-3.3618,-3.4929,-3.7241,-3.8303,-3.9323,-4.067,-4.1665,-4.2276,-4.2346,-4.3936,-4.452,-4.3432,-4.4064,-4.4035,-4.2899,-4.325,-4.3463,-4.3463,-4.3497,-4.3515,-4.3515,-4.3515,-4.3515,-4.3515,-4.3441,-4.3441,-4.3515,-4.3441,-4.346,-4.3515,-4.3515,-4.3515,-4.3441,-4.269,-4.2309,-4.2041,-4.0477,-3.975,-3.9498,-3.8731,-3.8405,-3.8381,-3.8298,-3.8753,-3.9278,-3.8528,-3.851,-3.8799,-3.9072,-3.9445,-3.9826,-4.0128,-4.0186,-4.0147,-4.0234,-4.0253,-4.0253,-4.0291,-4.033,-4.0349,-4.0301,-4.0396,-4.0664,-4.1361,-4.096,-4.0731,-4.1533,-4.1017,-4.0492,-4.0549,-4.0511,-4.075,-4.1495,-4.159,-4.1896,-4.2717,-4.2794,-4.2794,-4.2794,-4.138,-4.0454,-4.0377,-4.0377,-4.0377,-4.0377,-4.1094,-4.1533,-4.159,-4.1533,-4.1495,-4.1495,-4.075,-4.0416,-4.0473,-4.0473,-4.0473,-3.3609,0.0,-3.5059,-3.4624,-3.4842,-3.495,0.0,-3.4298,-3.4371,-3.3574,-3.3162,-3.3009,-3.3229,-3.2546,-3.2428,-3.3891,-3.4759,-3.5961,-3.806,-3.9848,-4.0958,-4.0961,-4.2036,-4.2531,-4.1842,-4.2911,-4.3426,-4.289,-4.2822,-4.2658,-4.2378,-4.2788,-4.3032,-4.3032,-4.3339,-4.3515,-4.3515,-4.3515,-4.3515,-4.3496,-4.2873,-4.2892,-4.3478,-4.2855,-4.291,-4.3515,-4.3515,-4.3515,-4.3496,-4.3313,-4.2822,-4.2206,-4.232,-4.1193,-3.9615,-4.0545,-4.0147,-3.915,-3.9133,-3.9224,-3.9278,-3.8479,-3.8305,-3.8462,-3.8744,-3.9063,-3.9364,-3.9439,-3.9451,-3.9507,-3.9773,-3.9848,-3.9892,-4.0106,-4.0623,-4.0919,-4.0358,-4.1216,-4.2018,-4.1581,-4.1896,-4.2469,-4.3261,-4.2756,-4.2431,-4.3032,-4.2622,-4.2278,-4.2469,-4.2488,-4.2565,-4.2775,-4.2794,-4.2794,-4.2794,-4.245,-4.1934,-4.1266,-4.1227,-4.1227,-4.1227,-4.1399,-4.18,-4.2488,-4.1839,-4.1495,-4.1495,-4.1304,-4.1552,-4.2221,-4.2221,-4.2221,-3.2747,-3.3546,-3.4258,-3.4,-3.428,-3.4498,-3.4063,-3.3851,-3.37,-3.3454,-3.2959,-3.2643,-3.2862,-3.2686,-3.2739,-3.3396,-3.4848,-3.6674,-3.8801,-4.0358,-4.118,-4.0943,-4.1365,-4.1514,-4.114,-4.1789,-4.2131,-4.1882,-4.2086,-4.2095,-4.1885,-4.232,-4.2492,-4.2302,-4.2505,-4.2902,-4.3496,-4.3515,-4.3296,-4.2947,-4.2873,-4.2892,-4.2947,-4.2873,-4.3075,-4.3478,-4.3112,-4.3149,-4.3461,-4.3078,-4.2588,-4.2136,-4.2468,-4.1523,-4.0001,-4.0491,-4.0111,-3.9351,-3.8988,-3.8861,-3.8788,-3.8354,-3.8207,-3.829,-3.843,-3.8597,-3.8799,-3.9112,-3.9178,-3.9205,-3.9421,-3.947,-3.9644,-4.0302,-4.0794,-4.116,-4.1269,-4.2013,-4.2644,-4.261,-4.2677,-4.3031,-4.3854,-4.3329,-4.2947,-4.3376,-4.308,-4.2928,-4.331,-4.3348,-4.3501,-4.3902,-4.394,-4.394,-4.394,-4.3577,-4.2985,-4.2144,-4.2106,-4.2106,-4.2106,-4.245,-4.287,-4.3348,-4.2889,-4.2469,-4.2106,-4.2106,-4.2335,-4.2794,-4.2794,-4.2794,-3.2777,-3.3397,-3.4047,-3.4274,-3.4421,-3.446,-3.4287,-3.344,-3.2797,-3.3147,-3.2685,-3.2284,-3.2581,-3.3107,-3.3357,-3.2954,-3.5004,-3.7383,-3.9468,-4.0358,-4.0778,-4.0683,-4.0353,-4.0213,-4.0461,-4.0778,-4.0943,-4.0847,-4.1534,-4.1799,-4.1401,-4.1736,-4.1777,-4.1427,-4.1358,-4.1887,-4.3025,-4.3223,-4.2965,-4.2304,-4.2873,-4.282,-4.2306,-4.2839,-4.3224,-4.3426,-4.2729,-4.2748,-4.3206,-4.2478,-4.2099,-4.1975,-4.1923,-4.1415,-4.0601,-3.9985,-3.9604,-3.9278,-3.848,-3.8209,-3.8209,-3.8209,-3.8209,-3.8209,-3.8209,-3.8209,-3.8322,-3.8882,-3.9082,-3.918,-3.9258,-3.9378,-3.9725,-4.0754,-4.1116,-4.1484,-4.2337,-4.2745,-4.3151,-4.3768,-4.3446,-4.3314,-4.4062,-4.3624,-4.3176,-4.3176,-4.3176,-4.3424,-4.4102,-4.4197,-4.4475,-4.522,-4.5307,-4.5307,-4.5307,-4.4628,-4.3921,-4.3214,-4.2947,-4.2851,-4.2985,-4.3758,-4.414,-4.4006,-4.4006,-4.3663,-4.2985,-4.2985,-4.3042,-4.3176,-4.3176,-4.3176,-3.2618,-3.3422,-3.3853,-3.3231,-3.3589,-3.3846,-3.2872,-3.2422,-3.2265,-3.2436,-3.2056,-3.2221,-3.393,-3.3788,-3.3919,-3.5435,-3.7124,-3.8671,-3.9863,-4.0487,-4.0635,-4.0254,-4.0146,-4.0163,-4.033,-4.0387,-4.0444,-4.0541,-4.0782,-4.0918,-4.0823,-4.0739,-4.0666,-4.0584,-4.0319,-4.0417,-4.0961,-4.1968,-4.2415,-4.2286,-4.1687,-4.169,-4.2204,-4.1515,-4.1955,-4.3232,-4.3123,-4.274,-4.2228,-4.2083,-4.1994,-4.1905,-4.1887,-4.1724,-4.1506,-4.1397,-4.0528,-3.9278,-3.848,-3.8209,-3.8209,-3.8209,-3.8209,-3.8209,-3.8209,-3.8209,-3.8207,-3.8322,-3.8846,-3.9405,-3.9656,-4.0215,-4.0827,-4.1241,-4.2104,-4.2709,-4.2203,-4.3433,-4.4475,-4.3923,-4.4358,-4.4848,-4.4993,-4.4959,-4.4914,-4.4914,-4.4914,-4.4953,-4.5067,-4.5105,-4.5144,-4.5288,-4.5307,-4.5307,-4.5307,-4.5182,-4.5048,-4.4914,-4.3577,-4.3119,-4.3796,-4.4647,-4.4743,-4.4006,-4.4006,-4.393,-4.3815,-4.3815,-4.4208,-4.4914,-4.4914,-4.4914,-3.2104,-3.2895,-3.3444,-3.2984,-3.3882,-3.4782,-3.4268,-3.3609,-3.32,-3.344,-3.2995,-3.2985,-3.4348,-3.4998,-3.6038,-3.8108,-3.867,-3.9109,-3.9968,-4.0279,-4.0353,-4.0121,-4.0096,-4.0163,-4.0305,-4.0305,-4.0355,-4.0485,-4.0607,-4.0508,-4.0055,-4.0026,-3.9765,-3.9182,-3.9,-3.9122,-3.9517,-4.0289,-4.0766,-4.0954,-4.0978,-4.0926,-4.0802,-4.0788,-4.119,-4.1883,-4.1446,-4.1282,-4.1335,-4.0847,-4.0886,-4.1287,-4.1651,-4.1742,-4.1705,-4.1705,-4.0981,-3.9948,-3.9568,-3.917,-3.8861,-3.8861,-3.8553,-3.8209,-3.8209,-3.8209,-3.8209,-3.8209,-3.848,-3.8877,-3.9428,-3.9861,-4.0419,-4.1553,-4.2392,-4.3002,-4.3238,-4.4159,-4.4842,-4.4513,-4.4794,-4.5103,-4.5148,-4.517,-4.5192,-4.5192,-4.5192,-4.5203,-4.5235,-4.5254,-4.5265,-4.5297,-4.5307,-4.5307,-4.5307,-4.5307,-4.5307,-4.5307,-4.4571,-4.4322,-4.4685,-4.5086,-4.5105,-4.4704,-4.4704,-4.4704,-4.4704,-4.4704,-4.4914,-4.5307,-4.5307,-4.5307,-3.1732,-3.2345,-3.2923,-3.2936,-3.3967,-3.5037,-3.5305,-3.4539,-3.3908,-3.4557,-3.4237,-3.4062,-3.4781,-3.6215,-3.7923,-3.9894,-3.9675,-3.9445,-4.0028,-4.0096,-4.0096,-4.0096,-4.0096,-4.0138,-4.0238,-4.0238,-4.022,-4.0156,-4.0302,-4.0048,-3.9213,-3.9152,-3.874,-3.7899,-3.7711,-3.7795,-3.8192,-3.8509,-3.8993,-3.9659,-4.0363,-4.0291,-3.9607,-4.0192,-4.0556,-4.0701,-4.0065,-4.0064,-4.0428,-3.9761,-3.9944,-4.0707,-4.1216,-4.1524,-4.1705,-4.1705,-4.1071,-4.0256,-4.0256,-3.9749,-3.9133,-3.9133,-3.8716,-3.8245,-3.8426,-3.848,-3.8517,-3.8681,-3.8735,-3.8844,-3.9278,-3.9659,-4.0291,-4.1733,-4.2488,-4.3101,-4.3975,-4.4484,-4.4802,-4.4852,-4.4943,-4.5033,-4.508,-4.5091,-4.5103,-4.5103,-4.5103,-4.5125,-4.5192,-4.5192,-4.5243,-4.5297,-4.5307,-4.5307,-4.5307,-4.5307,-4.5307,-4.5307,-4.5307,-4.5307,-4.5307,-4.5307,-4.5307,-4.5307,-4.5307,-4.5307,-4.5307,-4.5307,-4.5307,-4.5307,-4.5307,-4.5307,-3.1884,-3.2075,-3.2249,-3.292,-3.2954,-3.3094,-3.4163,-3.3666,-3.34,-3.4868,-3.517,-3.529,-3.5732,-3.7122,-3.859,-3.9749,-3.9978,-4.0045,-4.0096,-4.0096,-4.0096,-4.0096,-4.0096,-4.0096,-4.0096,-4.0096,-3.9825,-3.9172,-3.934,-3.9112,-3.8244,-3.774,-3.7384,-3.7187,-3.6507,-3.6349,-3.6748,-3.6771,-3.7612,-3.9246,-3.9558,-3.9627,-3.9524,-3.9511,-3.9875,-4.0528,-4.0473,-4.0075,-3.9512,-3.9423,-3.9839,-4.0528,-4.0564,-4.1035,-4.1705,-4.1705,-4.0763,-3.9478,-3.9478,-3.8952,-3.8299,-3.8299,-3.8263,-3.8354,-3.9079,-3.9297,-3.946,-4.0148,-4.0329,-4.0202,-3.955,-4.0456,-4.1578,-4.1705,-4.2557,-4.3384,-4.3456,-4.3971,-4.4443,-4.4443,-4.4745,-4.4991,-4.5022,-4.5068,-4.5103,-4.5103,-4.5103,-4.5125,-4.5192,-4.5192,-4.5243,-4.5297,-4.5307,-4.5307,-4.5307,-4.5307,-4.5307,-4.5307,-4.5307,-4.5307,-4.5307,-4.5307,-4.5307,-4.5307,-4.5307,-4.5307,-4.5307,-4.5307,-4.5307,-4.5307,-4.5307,-4.5307,-3.1288,-3.1546,-3.1853,-3.229,-3.2538,-3.3045,-3.4589,-3.5,-3.5372,-3.6415,-3.6729,-3.7067,-3.7986,-3.8654,-3.9369,-4.0197,-4.0204,-4.0096,-4.0096,-4.0096,-4.0096,-4.0096,-3.9706,-3.9436,-3.9436,-3.8988,-3.8616,-3.8345,-3.8479,-3.8233,-3.7398,-3.7234,-3.6942,-3.642,-3.6151,-3.6067,-3.622,-3.6474,-3.6881,-3.7476,-3.8115,-3.8364,-3.8259,-3.8523,-3.8808,-3.9061,-3.9061,-3.8898,-3.8662,-3.8662,-3.9097,-3.9912,-4.0872,-4.1433,-4.1759,-4.2266,-4.2067,-4.1506,-4.0999,-4.0311,-3.955,-3.9097,-3.8952,-3.9006,-3.9297,-3.9713,-4.0148,-4.042,-4.0492,-4.0438,-4.0166,-4.089,-4.1705,-4.1705,-4.2576,-4.3406,-4.3406,-4.3751,-4.4095,-4.4095,-4.4213,-4.4313,-4.4313,-4.4341,-4.4355,-4.4355,-4.4355,-4.4383,-4.4452,-4.4525,-4.461,-4.4675,-4.4726,-4.4752,-4.4752,-4.4752,-4.4752,-4.4752,-4.5087,-4.5307,-4.5307,-4.5307,-4.5307,-4.5307,-4.5307,-4.5307,-4.5307,-4.5307,-4.5307,-4.5307,-4.5307,-4.5307,-3.0851,-3.1037,-3.1359,-3.1762,-3.248,-3.3493,-3.5128,-3.5909,-3.6627,-3.782,-3.7945,-3.8202,-3.9426,-3.9453,-3.9522,-4.0273,-4.0229,-4.0096,-4.0096,-4.0096,-4.0096,-4.0096,-3.9453,-3.8988,-3.8988,-3.8328,-3.7804,-3.7567,-3.7651,-3.7364,-3.6531,-3.661,-3.6433,-3.5883,-3.5866,-3.5866,-3.5866,-3.6156,-3.6245,-3.6161,-3.7017,-3.7468,-3.7523,-3.8003,-3.8209,-3.8209,-3.8209,-3.8209,-3.8209,-3.8209,-3.8663,-3.955,-4.1089,-4.1705,-4.1795,-4.2592,-4.2737,-4.2448,-4.1886,-4.1017,-4.0075,-3.955,-3.9387,-3.9441,-3.9677,-4.0293,-4.0926,-4.1198,-4.127,-4.1198,-4.0926,-4.1288,-4.1705,-4.1705,-4.2486,-4.3231,-4.3231,-4.3525,-4.3738,-4.3738,-4.3833,-4.3896,-4.3896,-4.3896,-4.3896,-4.3896,-4.3896,-4.3909,-4.4001,-4.408,-4.4173,-4.4289,-4.436,-4.4397,-4.4397,-4.4397,-4.4397,-4.4397,-4.4789,-4.5053,-4.5151,-4.5246,-4.5307,-4.5307,-4.5307,-4.5307,-4.5307,-4.5307,-4.5307,-4.5307,-4.5307,-4.5307,-3.0692,-3.0609,-3.0688,-3.1432,-3.2729,-3.4187,-3.5678,-3.6025,-3.6638,-3.8851,-3.8709,-3.8574,-3.9689,-3.921,-3.8908,-3.9757,-4.0011,-4.0096,-4.0096,-4.0079,-4.0079,-4.0079,-3.9436,-3.8971,-3.8971,-3.8311,-3.7584,-3.6846,-3.6853,-3.6514,-3.5633,-3.5728,-3.5751,-3.56,-3.56,-3.56,-3.56,-3.56,-3.56,-3.5622,-3.6478,-3.7113,-3.7505,-3.7984,-3.8209,-3.8209,-3.8192,-3.8192,-3.8192,-3.8192,-3.8663,-3.9532,-4.1071,-4.1669,-4.1777,-4.2574,-4.2375,-4.1687,-4.1687,-4.0691,-3.9405,-3.9387,-3.9405,-3.955,-4.0293,-4.1071,-4.1868,-4.2683,-4.2901,-4.2719,-4.1922,-4.1705,-4.1705,-4.1705,-4.2321,-4.2901,-4.2901,-4.316,-4.3406,-4.3406,-4.3656,-4.3896,-4.3896,-4.3896,-4.3896,-4.3896,-4.3896,-4.3909,-4.3967,-4.4001,-4.4061,-4.4275,-4.436,-4.4383,-4.4383,-4.4383,-4.4383,-4.4383,-4.4383,-4.4519,-4.4795,-4.5109,-4.5297,-4.5297,-4.5297,-4.5297,-4.5297,-4.5297,-4.5297,-4.5297,-4.5297,-4.5297,-3.0572,-3.0907,-3.1449,-3.2199,-3.3475,-3.4973,-3.6571,-3.7244,-3.7932,-3.9287,-3.9406,-3.9374,-3.9825,-3.9767,-3.9708,-3.9867,-3.9589,-3.9326,-3.9326,-3.887,-3.8548,-3.8548,-3.7889,-3.7455,-3.7455,-3.6738,-3.6174,-3.5977,-3.5966,-3.5864,-3.56,-3.5644,-3.5644,-3.56,-3.56,-3.56,-3.56,-3.56,-3.56,-3.56,-3.6199,-3.6698,-3.7113,-3.7863,-3.8209,-3.8174,-3.7845,-3.7721,-3.7703,-3.7394,-3.7592,-3.8169,-3.9191,-3.9788,-4.0166,-4.0926,-4.1053,-4.0782,-4.0256,-4.013,-4.0093,-3.9568,-4.013,-4.1053,-4.127,-4.1922,-4.2592,-4.2828,-4.2901,-4.2865,-4.2611,-4.2538,-4.2393,-4.1831,-4.2321,-4.2901,-4.2901,-4.2976,-4.305,-4.305,-4.3123,-4.3195,-4.3195,-4.3195,-4.3195,-4.3195,-4.3195,-4.3249,-4.3356,-4.3374,-4.3409,-4.3511,-4.3631,-4.3697,-4.3697,-4.3728,-4.3777,-4.3777,-4.3983,-4.4236,-4.4506,-4.4617,-4.4669,-4.4669,-4.4843,-4.4862,-4.4669,-4.4862,-4.4843,-4.4669,-4.4669,-4.4669,-3.0892,-3.1331,-3.1978,-3.3265,-3.4452,-3.5818,-3.7677,-3.8415,-3.8916,-3.9568,-3.9651,-3.9677,-3.9952,-3.9986,-3.9927,-3.9573,-3.9243,-3.8886,-3.8599,-3.8176,-3.7905,-3.7905,-3.7246,-3.6795,-3.6795,-3.6079,-3.56,-3.56,-3.56,-3.56,-3.56,-3.56,-3.56,-3.56,-3.56,-3.56,-3.56,-3.56,-3.56,-3.56,-3.6067,-3.643,-3.6698,-3.7541,-3.7933,-3.7915,-3.745,-3.7265,-3.7246,-3.6997,-3.7055,-3.7354,-3.8323,-3.8867,-3.9229,-4.0167,-4.0492,-4.0474,-4.0365,-4.0401,-4.0474,-4.0365,-4.0926,-4.1705,-4.1705,-4.2266,-4.2901,-4.2901,-4.2901,-4.2901,-4.2901,-4.2901,-4.2774,-4.2303,-4.2538,-4.2901,-4.2901,-4.2901,-4.2901,-4.2901,-4.2901,-4.2901,-4.2901,-4.2901,-4.2901,-4.2901,-4.2901,-4.2938,-4.3012,-4.3067,-4.3123,-4.316,-4.3269,-4.334,-4.3394,-4.3446,-4.3463,-4.3497,-4.3699,-4.3857,-4.4038,-4.4256,-4.4397,-4.4397,-4.4559,-4.4559,-4.4397,-4.4559,-4.4559,-4.4397,-4.4397,-4.4397,-3.137,-3.1836,-3.238,-3.4475,-3.5644,-3.6846,-3.8851,-3.9355,-3.947,-3.9661,-3.9566,-3.9542,-3.9935,-3.986,-3.9531,-3.898,-3.8836,-3.8565,-3.7889,-3.7736,-3.7702,-3.7702,-3.7094,-3.6694,-3.6694,-3.6028,-3.56,-3.56,-3.56,-3.56,-3.56,-3.56,-3.5566,-3.5498,-3.5498,-3.5498,-3.5498,-3.5498,-3.5532,-3.56,-3.6023,-3.6259,-3.6343,-3.7094,-3.7432,-3.7377,-3.7017,-3.6821,-3.6781,-3.6781,-3.6801,-3.695,-3.8083,-3.8557,-3.8739,-3.9896,-4.033,-4.0438,-4.1252,-4.1089,-4.0673,-4.1451,-4.1741,-4.1813,-4.1813,-4.2321,-4.2901,-4.2901,-4.2901,-4.2901,-4.2901,-4.2901,-4.2901,-4.2901,-4.2901,-4.2901,-4.2901,-4.2901,-4.2901,-4.2901,-4.2901,-4.2901,-4.2901,-4.2901,-4.2901,-4.2901,-4.2901,-4.2901,-4.2901,-4.3012,-4.3086,-4.3086,-4.3142,-4.3251,-4.3358,-4.3412,-4.3429,-4.3497,-4.3515,-4.3515,-4.3515,-4.4023,-4.4313,-4.4313,-4.436,-4.436,-4.4313,-4.436,-4.436,-4.4313,-4.4313,-4.4313,-3.1243,-3.2055,-3.3039,-3.5214,-3.7261,-3.8823,-3.9226,-3.8956,-3.8837,-3.956,-3.9225,-3.8874,-3.9175,-3.8744,-3.828,-3.8176,-3.7635,-3.7218,-3.7066,-3.6502,-3.609,-3.609,-3.5938,-3.5853,-3.5853,-3.5701,-3.56,-3.56,-3.56,-3.56,-3.56,-3.56,-3.5329,-3.4742,-3.4742,-3.4742,-3.4742,-3.4742,-3.503,-3.56,-3.5694,-3.5937,-3.6322,-3.6801,-3.686,-3.6536,-3.6471,-3.622,-3.5876,-3.5876,-3.6092,-3.6489,-3.7073,-3.7475,-3.7862,-3.8703,-3.9008,-3.9133,-3.9921,-4.0513,-4.0983,-4.1503,-4.214,-4.2629,-4.2629,-4.2755,-4.2901,-4.2901,-4.2901,-4.2901,-4.2901,-4.2901,-4.2901,-4.2901,-4.2901,-4.2901,-4.2901,-4.2901,-4.2901,-4.2901,-4.2901,-4.2901,-4.2901,-4.2901,-4.2901,-4.2901,-4.2901,-4.2901,-4.2901,-4.2938,-4.2938,-4.2938,-4.3087,-4.3214,-4.3233,-4.3393,-4.348,-4.3515,-4.3515,-4.3515,-4.3515,-4.3614,-4.3679,-4.3679,-4.3936,-4.3952,-4.3679,-4.3952,-4.3936,-4.3679,-4.3679,-4.3679,-3.0755,-3.1971,-3.3394,-3.5893,-3.7965,-3.9295,-3.8868,-3.8529,-3.8351,-3.8521,-3.8296,-3.817,-3.8415,-3.8159,-3.7787,-3.7432,-3.7066,-3.6677,-3.6282,-3.5853,-3.56,-3.56,-3.56,-3.56,-3.56,-3.5278,-3.5211,-3.5566,-3.5261,-3.5233,-3.5583,-3.5261,-3.4895,-3.4506,-3.415,-3.4134,-3.4489,-3.4489,-3.4878,-3.56,-3.56,-3.5734,-3.598,-3.6412,-3.6512,-3.6301,-3.6067,-3.5827,-3.56,-3.56,-3.5739,-3.6002,-3.6433,-3.6741,-3.7011,-3.7554,-3.8001,-3.8426,-3.9224,-4.0182,-4.1094,-4.1722,-4.2386,-4.2901,-4.2901,-4.2901,-4.2901,-4.2901,-4.2901,-4.2901,-4.2901,-4.2901,-4.2901,-4.2901,-4.2901,-4.2901,-4.2901,-4.2901,-4.2901,-4.2901,-4.2901,-4.2901,-4.2901,-4.2901,-4.2901,-4.2901,-4.2901,-4.2901,-4.2901,-4.2901,-4.3064,-4.3425,-4.3575,-4.3832,-4.4308,-4.4437,-4.4381,-4.4103,-4.4433,-4.447,-4.4085,-4.4066,-4.3883,-4.3515,-4.3666,-4.3666,-4.3515,-4.3682,-4.3666,-4.3515,-4.3515,-4.3515,-3.0089,-3.1732,-3.3738,-3.658,-3.8195,-3.8941,-3.8344,-3.8086,-3.784,-3.7228,-3.7202,-3.7349,-3.7631,-3.7577,-3.729,-3.6688,-3.6586,-3.6349,-3.5684,-3.56,-3.5549,-3.543,-3.5515,-3.5498,-3.5245,-3.4776,-3.4692,-3.5177,-3.4658,-3.459,-3.5177,-3.4641,-3.4252,-3.4117,-3.3525,-3.3508,-3.41,-3.4252,-3.4675,-3.5397,-3.5532,-3.56,-3.5622,-3.6002,-3.6174,-3.6152,-3.5778,-3.56,-3.56,-3.56,-3.56,-3.5644,-3.611,-3.6301,-3.636,-3.6954,-3.7548,-3.8213,-3.9143,-4.0176,-4.1202,-4.1963,-4.2458,-4.2787,-4.2787,-4.2711,-4.2673,-4.2768,-4.2787,-4.2806,-4.2882,-4.2901,-4.2901,-4.2901,-4.2901,-4.2901,-4.2901,-4.2901,-4.2901,-4.2901,-4.2901,-4.2901,-4.2901,-4.2901,-4.2901,-4.2901,-4.2901,-4.2901,-4.2901,-4.3028,-4.3372,-4.4023,-4.4242,-4.4683,-4.5529,-4.5622,-4.5424,-4.4948,-4.5535,-4.5608,-4.4947,-4.4911,-4.4599,-4.3937,-4.3643,-4.3515,-4.3515,-4.3515,-4.3515,-4.3515,-4.3515,-4.3515,-2.9188,-3.1575,-3.4376,-3.7317,-3.8212,-3.8328,-3.8228,-3.7715,-3.7078,-3.6479,-3.6354,-3.6451,-3.672,-3.6262,-3.5813,-3.5769,-3.5752,-3.5718,-3.5616,-3.56,-3.5346,-3.4726,-3.5216,-3.5092,-3.3829,-3.4184,-3.4269,-3.3723,-3.3609,-3.3592,-3.3694,-3.3609,-3.3254,-3.2615,-3.2496,-3.2496,-3.2598,-3.322,-3.3931,-3.4641,-3.5278,-3.56,-3.56,-3.565,-3.5689,-3.5689,-3.5622,-3.56,-3.56,-3.56,-3.56,-3.5644,-3.611,-3.6301,-3.6456,-3.7789,-3.8346,-3.8639,-4.0101,-4.0958,-4.1533,-4.2038,-4.2239,-4.2279,-4.2279,-4.2015,-4.1764,-4.2177,-4.2279,-4.2398,-4.2806,-4.2901,-4.2901,-4.2901,-4.2901,-4.2901,-4.2901,-4.2901,-4.2901,-4.2901,-4.2901,-4.2901,-4.2901,-4.2901,-4.2901,-4.2901,-4.2901,-4.2901,-4.2901,-4.3517,-4.3969,-4.4077,-4.4845,-4.5397,-4.5585,-4.5697,-4.5773,-4.5755,-4.5847,-4.5847,-4.5736,-4.5736,-4.5681,-4.5571,-4.4195,-4.3515,-4.3515,-4.3515,-4.3515,-4.3515,-4.3515,-4.3515,-3.0046,-3.1885,-3.3789,-3.634,-3.7284,-3.7483,-3.7069,-3.6721,-3.6274,-3.5618,-3.5452,-3.5588,-3.5917,-3.571,-3.5514,-3.5543,-3.5594,-3.5577,-3.5566,-3.5594,-3.5481,-3.5143,-3.5397,-3.5177,-3.4117,-3.3931,-3.3744,-3.3423,-3.3017,-3.2949,-3.3389,-3.3,-3.2649,-3.231,-3.1904,-3.1887,-3.2293,-3.2632,-3.3355,-3.4506,-3.5245,-3.56,-3.56,-3.56,-3.56,-3.56,-3.56,-3.56,-3.56,-3.56,-3.56,-3.5622,-3.5827,-3.5915,-3.6051,-3.7143,-3.7803,-3.8314,-3.9412,-4.0386,-4.1139,-4.1343,-4.1587,-4.1803,-4.1803,-4.1846,-4.1931,-4.2136,-4.2398,-4.2634,-4.2844,-4.2901,-4.2901,-4.2901,-4.2901,-4.2901,-4.2901,-4.2901,-4.2901,-4.2901,-4.2901,-4.2901,-4.2901,-4.2901,-4.3064,-4.3498,-4.357,-4.3733,-4.4186,-4.4548,-4.4947,-4.5399,-4.5802,-4.6299,-4.6853,-4.699,-4.6887,-4.6543,-4.6965,-4.704,-4.6581,-4.6562,-4.6562,-4.6562,-4.5002,-4.4176,-4.4176,-4.3718,-4.3515,-4.3515,-4.3515,-4.3515,-3.0096,-3.1305,-3.2381,-3.4601,-3.586,-3.6406,-3.5843,-3.5876,-3.5794,-3.5048,-3.4899,-3.4994,-3.5337,-3.54,-3.5423,-3.5446,-3.5352,-3.5262,-3.5183,-3.5065,-3.5014,-3.5014,-3.5014,-3.4732,-3.3998,-3.344,-3.3034,-3.2848,-3.2324,-3.2276,-3.2814,-3.2307,-3.2022,-3.2022,-3.1478,-3.1464,-3.2022,-3.2209,-3.2953,-3.4218,-3.4979,-3.5211,-3.5042,-3.543,-3.5498,-3.5329,-3.5515,-3.56,-3.56,-3.56,-3.56,-3.56,-3.56,-3.56,-3.5718,-3.6705,-3.7432,-3.8041,-3.8954,-3.9966,-4.0802,-4.0802,-4.1042,-4.1303,-4.1303,-4.1565,-4.1867,-4.199,-4.236,-4.275,-4.2863,-4.2806,-4.275,-4.2863,-4.2806,-4.275,-4.2863,-4.2901,-4.2901,-4.2901,-4.2901,-4.2901,-4.2901,-4.3082,-4.3426,-4.4005,-4.4258,-4.4621,-4.5218,-4.5472,-4.5834,-4.645,-4.6685,-4.7107,-4.785,-4.797,-4.7814,-4.7347,-4.7937,-4.8031,-4.7424,-4.7388,-4.7388,-4.7388,-4.603,-4.5095,-4.4691,-4.4305,-4.39,-4.3515,-4.392,-4.3883,-2.816,-2.9052,-3.0112,-3.2337,-3.3938,-3.4998,-3.4965,-3.5495,-3.5794,-3.5048,-3.4899,-3.4947,-3.5088,-3.5128,-3.5175,-3.5291,-3.4785,-3.4342,-3.4281,-3.3782,-3.3426,-3.3426,-3.3426,-3.3149,-3.2476,-3.2378,-3.2073,-3.136,-3.1275,-3.1258,-3.1309,-3.1275,-3.1258,-3.1258,-3.1207,-3.1207,-3.1258,-3.1955,-3.2679,-3.3474,-3.4201,-3.4184,-3.3575,-3.4957,-3.5211,-3.459,-3.5295,-3.56,-3.56,-3.56,-3.56,-3.56,-3.56,-3.56,-3.5769,-3.7297,-3.7872,-3.8108,-3.9529,-4.0368,-4.0802,-4.0802,-4.0825,-4.0849,-4.0849,-4.0849,-4.0972,-4.141,-4.1867,-4.2338,-4.2769,-4.2575,-4.2358,-4.2806,-4.2575,-4.2358,-4.2806,-4.2901,-4.2901,-4.2901,-4.2901,-4.2901,-4.2901,-4.3516,-4.4041,-4.4077,-4.4747,-4.5254,-4.5291,-4.5979,-4.645,-4.6504,-4.7192,-4.7728,-4.7972,-4.7992,-4.8073,-4.8232,-4.8268,-4.8288,-4.8251,-4.8251,-4.8251,-4.8251,-4.7406,-4.6214,-4.4691,-4.5424,-4.4984,-4.3551,-4.5057,-4.4947,-2.6849,-2.8174,-2.9694,-3.0974,-3.205,-3.2911,-3.3375,-3.4054,-3.4502,-3.4237,-3.4568,-3.4923,-3.497,-3.5041,-3.5128,-3.5158,-3.4655,-3.4197,-3.4102,-3.3533,-3.3206,-3.3287,-3.3287,-3.3048,-3.2357,-3.2293,-3.1989,-3.1258,-3.119,-3.119,-3.119,-3.119,-3.119,-3.119,-3.119,-3.119,-3.119,-3.1938,-3.2429,-3.2696,-3.344,-3.366,-3.3423,-3.3964,-3.4303,-3.4506,-3.4776,-3.5165,-3.56,-3.56,-3.56,-3.56,-3.56,-3.56,-3.5785,-3.7324,-3.7905,-3.8125,-3.9605,-4.0221,-4.0353,-4.0353,-4.0353,-4.0353,-4.0353,-4.0556,-4.0849,-4.0995,-4.1388,-4.1803,-4.1973,-4.2098,-4.2318,-4.2787,-4.2768,-4.2692,-4.2863,-4.2901,-4.2901,-4.2901,-4.2901,-4.3064,-4.357,-4.3896,-4.444,-4.549,-4.5888,-4.6269,-4.6776,-4.7102,-4.7283,-4.7283,-4.7536,-4.7762,-4.7925,-4.797,-4.8072,-4.8246,-4.8286,-4.8306,-4.8306,-4.8306,-4.8306,-4.8306,-4.8012,-4.7333,-4.6232,-4.6012,-4.559,-4.5039,-4.5626,-4.559,-2.5874,-2.7065,-2.8552,-2.9549,-3.0162,-3.0841,-3.205,-3.2713,-3.321,-3.369,-3.4187,-3.4601,-3.4849,-3.4771,-3.4652,-3.4652,-3.3951,-3.3345,-3.3212,-3.2694,-3.2492,-3.282,-3.266,-3.247,-3.2307,-3.209,-3.1735,-3.1241,-3.119,-3.119,-3.119,-3.119,-3.119,-3.119,-3.119,-3.119,-3.119,-3.1701,-3.1938,-3.1938,-3.2679,-3.2899,-3.2679,-3.3186,-3.3525,-3.38,-3.4307,-3.4928,-3.56,-3.56,-3.56,-3.56,-3.56,-3.56,-3.5785,-3.7324,-3.7905,-3.8125,-3.9605,-4.0096,-4.0096,-4.0096,-4.0096,-4.0096,-4.0096,-4.041,-4.0802,-4.0802,-4.1139,-4.1525,-4.1678,-4.2077,-4.2478,-4.2634,-4.2787,-4.2901,-4.2901,-4.2901,-4.2901,-4.2901,-4.2901,-4.3173,-4.3951,-4.4313,-4.4965,-4.6305,-4.6739,-4.7102,-4.7645,-4.7717,-4.7717,-4.7717,-4.7717,-4.7759,-4.7925,-4.797,-4.807,-4.8208,-4.8286,-4.8306,-4.8306,-4.8306,-4.8306,-4.8306,-4.8306,-4.8049,-4.7498,-4.6709,-4.5883,-4.5112,-4.5645,-4.5755,0.0,0.0,0.0,-2.7961,-2.8326,-2.889,-3.0986,-3.1499,-3.1912,-3.3392,-3.3707,-3.3955,-3.47,-3.422,-3.3723,-3.3723,-3.2636,-3.1765,-3.162,-3.1195,-3.116,-3.188,-3.1388,-3.1341,-3.2192,-3.1633,-3.119,-3.119,-3.119,-3.119,-3.119,-3.119,-3.119,-3.119,-3.119,-3.119,-3.119,-3.119,-3.119,-3.1207,-3.1938,-3.1904,-3.1241,-3.2679,-3.2949,-3.2378,-3.385,-3.4895,-3.5566,-3.5583,-3.56,-3.56,-3.56,-3.56,-3.5785,-3.7324,-3.7905,-3.8125,-3.9605,-4.0096,-4.0096,-4.0096,-4.0096,-4.0096,-4.0096,-4.0427,-4.0778,-4.0778,-4.1094,-4.1569,-4.2035,-4.2536,-4.2768,-4.2338,-4.2575,-4.2901,-4.2901,-4.2901,-4.2901,-4.2901,-4.2901,-4.3173,-4.3987,-4.4784,-4.558,-4.6413,-4.721,-4.7717,-4.7717,-4.7717,-4.7717,-4.7717,-4.7699,-4.7783,-4.7972,-4.8012,-4.8092,-4.8287,-4.8306,-4.8306,-4.8306,-4.8306,-4.8306,-4.8306,-4.8306,-4.8306,-4.8269,-4.748,-4.5902,-4.3626,-4.5168,-4.548,-2.4713,0.0,0.0,0.0,0.0,0.0,-2.8224,-2.8887,-2.9682,-3.1123,-3.1851,-3.2426,-3.316,-3.2713,-3.221,-3.221,-3.1885,-3.1679,-3.1743,-3.1158,-3.0877,-3.1241,-3.111,-3.1139,-3.1478,-3.1309,-3.119,-3.119,-3.119,-3.119,-3.119,-3.119,-3.119,-3.119,-3.119,-3.119,-3.119,-3.119,-3.119,-3.119,-3.1413,-3.1393,-3.1207,-3.1613,-3.1985,-3.2344,-3.3288,-3.4117,-3.4844,-3.538,-3.56,-3.56,-3.56,-3.56,-3.5785,-3.7324,-3.7905,-3.8125,-3.9605,-4.0096,-4.0096,-4.0096,-4.0096,-4.0096,-4.0096,-4.0196,-4.0279,-4.0279,-4.0385,-4.0666,-4.1481,-4.2035,-4.2438,-4.2653,-4.2806,-4.2901,-4.2901,-4.2901,-4.2901,-4.2901,-4.2901,-4.3354,-4.4729,-4.5146,-4.578,-4.7174,-4.7572,-4.7717,-4.7717,-4.7717,-4.7717,-4.7717,-4.7798,-4.7884,-4.7992,-4.809,-4.8189,-4.8287,-4.8306,-4.8306,-4.8306,-4.8306,-4.8306,-4.8306,-4.8306,-4.8012,-4.7424,-4.7204,-4.6764,-4.6085,-4.5957,-4.5773,0.0,0.0,0.0,-2.6536,0.0,0.0,-2.7869,-2.8351,-2.8948,-3.075,-3.1406,-3.1916,-3.2647,-3.2138,-3.162,-3.1663,-3.1435,-3.1257,-3.1341,-3.1041,-3.0875,-3.0995,-3.1052,-3.1112,-3.119,-3.119,-3.1072,-3.0768,-3.0734,-3.0598,-3.0313,-3.0296,-3.0296,-3.0296,-3.0526,-3.0659,-3.0659,-3.094,-3.1092,-3.1112,-3.1092,-3.1112,-3.119,-3.1151,-3.1388,-3.1904,-3.2949,-3.3643,-3.4117,-3.516,-3.56,-3.56,-3.56,-3.56,-3.5752,-3.6992,-3.7635,-3.8075,-3.9225,-3.9842,-4.0096,-4.0096,-4.0096,-4.0096,-4.0096,-4.0096,-4.0096,-4.0096,-4.0385,-4.0808,-4.1348,-4.1994,-4.2575,-4.2844,-4.2901,-4.2901,-4.2901,-4.2901,-4.2901,-4.2901,-4.2901,-4.3426,-4.5019,-4.5291,-4.5852,-4.7464,-4.7717,-4.7717,-4.7717,-4.7717,-4.7717,-4.7798,-4.7861,-4.7963,-4.807,-4.8168,-4.8226,-4.8287,-4.8306,-4.8306,-4.8306,-4.8306,-4.8306,-4.8306,-4.8306,-4.7755,-4.6599,-4.6599,-4.625,-4.559,-4.5112,-4.4892,0.0,0.0,0.0,0.0,-2.677,0.0,-2.8543,-2.866,-2.886,-3.1031,-3.1387,-3.1536,-3.2269,-3.1784,-3.1293,-3.1399,-3.0958,-3.0629,-3.0716,-3.0895,-3.0995,-3.1015,-3.1131,-3.119,-3.119,-3.119,-3.092,-3.0277,-3.0207,-2.9939,-2.9281,-2.9162,-2.9144,-2.9228,-2.9659,-2.9938,-3.0003,-3.0616,-3.0952,-3.0995,-3.0952,-3.1032,-3.119,-3.1092,-3.1092,-3.1255,-3.2658,-3.3318,-3.3503,-3.4884,-3.5532,-3.56,-3.56,-3.56,-3.5701,-3.6485,-3.7195,-3.7905,-3.8717,-3.9436,-3.9994,-4.0079,-4.0096,-4.0096,-4.0096,-4.0096,-4.0096,-4.0096,-4.0737,-4.1415,-4.1415,-4.2077,-4.2768,-4.2806,-4.2825,-4.2844,-4.2882,-4.2901,-4.2901,-4.2901,-4.2901,-4.3371,-4.4892,-4.5236,-4.5816,-4.7355,-4.7624,-4.7717,-4.7717,-4.7699,-4.7723,-4.7754,-4.7886,-4.7968,-4.8058,-4.817,-4.8246,-4.8287,-4.8306,-4.8306,-4.8306,-4.8306,-4.8269,-4.8177,-4.8086,-4.7297,-4.5773,-4.5773,-4.4984,-4.3515,-4.3515,-4.3515,0.0,0.0,0.0,-2.7102,-2.6914,0.0,-2.6179,-2.6359,-2.6952,-2.8002,-2.8201,-2.8398,-2.9125,-2.9138,-2.9039,-2.9059,-2.9582,-3.0202,-3.0851,-3.0975,-3.1035,-3.1151,-3.119,-3.119,-3.119,-3.119,-3.114,-3.1004,-3.0987,-3.092,-3.0768,-3.0209,-3.0121,-3.058,-3.014,-3.0171,-3.0697,-3.0888,-3.0975,-3.0995,-3.1092,-3.1151,-3.119,-3.1171,-3.1112,-3.1086,-3.1982,-3.2723,-3.3397,-3.4257,-3.5009,-3.56,-3.56,-3.56,-3.5701,-3.6485,-3.6897,-3.7218,-3.8531,-3.9089,-3.9292,-3.991,-4.0096,-4.0096,-4.0096,-4.0096,-4.0096,-4.0096,-4.0507,-4.0926,-4.0926,-4.1366,-4.1888,-4.2239,-4.2338,-4.2438,-4.2825,-4.2901,-4.2901,-4.2901,-4.2901,-4.3227,-4.4168,-4.4874,-4.5635,-4.6595,-4.7301,-4.7717,-4.7717,-4.778,-4.7606,-4.7011,-4.7664,-4.791,-4.7291,-4.7881,-4.8305,-4.8306,-4.8306,-4.8306,-4.8306,-4.8306,-4.8012,-4.7351,-4.6709,-4.5902,-4.4947,-4.4947,-4.4433,-4.3515,-4.3515,-4.3515,-2.9469,-2.9349,-2.9162,-2.8347,-2.7823,0.0,0.0,-2.6915,-2.7113,-2.7846,-2.7659,-2.7472,-2.7819,-2.7864,-2.7864,-2.7902,-2.8968,-2.9819,-2.9861,-3.058,-3.1131,-3.119,-3.119,-3.119,-3.119,-3.119,-3.1055,-3.0683,-3.0294,-3.011,-3.011,-2.9736,-2.97,-2.9998,-2.9885,-2.9995,-3.0401,-3.0691,-3.0895,-3.0995,-3.1032,-3.1092,-3.119,-3.1131,-3.1112,-3.1145,-3.1871,-3.2431,-3.2904,-3.4001,-3.4699,-3.5098,-3.5447,-3.56,-3.565,-3.6062,-3.6451,-3.6914,-3.7658,-3.8125,-3.8565,-3.9292,-3.9554,-3.9622,-3.9994,-4.0096,-4.0096,-4.0096,-4.0434,-4.0802,-4.0802,-4.1139,-4.1613,-4.2095,-4.2198,-4.2338,-4.2806,-4.2901,-4.2901,-4.2901,-4.2901,-4.3173,-4.3951,-4.4421,-4.4965,-4.578,-4.625,-4.6504,-4.6504,-4.6624,-4.6559,-4.62,-4.6646,-4.7017,-4.7055,-4.7461,-4.7865,-4.8269,-4.8306,-4.8306,-4.8306,-4.7901,-4.7314,-4.6526,-4.5718,-4.5112,-4.4691,-4.4305,-4.3883,-4.3515,-4.3515,-4.3515,-3.0333,-3.0162,-3.0075,-2.9727,-2.8835,-2.808,0.0,0.0,0.0,-2.8159,-2.7666,-2.7194,-2.7194,-2.7023,-2.6972,-2.716,-2.8304,-2.8996,-2.8546,-2.977,-3.076,-3.0912,-3.1086,-3.119,-3.1171,-3.0957,-3.0687,-3.0326,-2.9526,-2.9153,-2.9379,-2.9244,-2.9227,-2.936,-2.9573,-2.98,-3.0087,-3.0513,-3.0834,-3.0995,-3.0972,-3.1052,-3.119,-3.1092,-3.1075,-3.1185,-3.1796,-3.2134,-3.2371,-3.3706,-3.4349,-3.4573,-3.5295,-3.56,-3.56,-3.56,-3.6011,-3.6586,-3.6745,-3.7178,-3.7804,-3.8548,-3.8785,-3.8937,-3.9842,-4.0011,-3.9926,-4.0062,-4.0377,-4.0676,-4.0676,-4.1001,-4.1481,-4.1952,-4.2136,-4.2338,-4.2806,-4.2901,-4.2901,-4.2901,-4.2901,-4.3118,-4.3751,-4.3987,-4.4313,-4.4965,-4.52,-4.5309,-4.5349,-4.5428,-4.549,-4.5422,-4.5662,-4.603,-4.6599,-4.6782,-4.7149,-4.781,-4.7847,-4.7847,-4.7847,-4.7058,-4.6324,-4.5681,-4.4892,-4.447,-4.447,-4.3809,-4.3515,-4.3515,-4.3515,-4.3515,-3.1089,-3.1035,-3.0751,-2.9413,-2.9372,-2.9164,-2.7279,0.0,-2.7336,-2.6697,0.0,-2.6412,-2.6412,0.0,0.0,-2.6312,-2.6683,-2.7072,-2.7643,-2.8448,-2.9238,-2.9872,-3.0704,-3.1151,-3.1035,-3.0116,-2.9946,-3.1002,-2.9939,-2.9706,-3.0709,-3.0159,-3.007,-3.0663,-2.9989,-2.9985,-3.0778,-3.0841,-3.0932,-3.0995,-3.1112,-3.1171,-3.119,-3.119,-3.1131,-3.1032,-3.1099,-3.1523,-3.218,-3.3073,-3.3862,-3.4573,-3.5295,-3.56,-3.56,-3.56,-3.565,-3.5836,-3.6535,-3.6846,-3.7066,-3.7787,-3.8024,-3.8278,-3.969,-3.9656,-3.9242,-3.9926,-4.0146,-4.0171,-4.0171,-4.0531,-4.0995,-4.1477,-4.1888,-4.2338,-4.2806,-4.2901,-4.2901,-4.2901,-4.2901,-4.2937,-4.3028,-4.3625,-4.4132,-4.4222,-4.4838,-4.5349,-4.5465,-4.5544,-4.5367,-4.4766,-4.5425,-4.5627,-4.5021,-4.5626,-4.6085,-4.6177,-4.6177,-4.6177,-4.6177,-4.5406,-4.4947,-4.4838,-4.4048,-4.3626,-4.3626,-4.3551,-4.3515,-4.3515,-4.3515,-4.3515,-3.119,-3.119,-3.0954,-2.9905,-2.9514,-2.9003,-2.7566,-2.711,-2.6872,-2.6484,0.0,0.0,0.0,0.0,0.0,0.0,-2.6587,-2.6991,-2.6351,-2.7361,-2.835,-2.8821,-2.942,-2.9979,-3.0437,-2.9759,-2.9819,-3.11,-3.0016,-2.9795,-3.0942,-3.0712,-3.0656,-3.0895,-3.0469,-3.0453,-3.0892,-3.0831,-3.0851,-3.0952,-3.0992,-3.1032,-3.1032,-3.1032,-3.1032,-3.0995,-3.0995,-3.122,-3.1638,-3.2397,-3.3161,-3.3931,-3.4675,-3.5211,-3.56,-3.56,-3.56,-3.565,-3.5994,-3.6096,-3.6231,-3.7009,-3.7838,-3.865,-3.9259,-3.9529,-3.9706,-4.0011,-4.0096,-4.0096,-4.0096,-4.0434,-4.0919,-4.137,-4.1867,-4.2338,-4.2806,-4.2901,-4.2901,-4.2901,-4.2901,-4.2919,-4.2994,-4.3228,-4.3426,-4.3502,-4.381,-4.4048,-4.4161,-4.4254,-4.4218,-4.3925,-4.427,-4.4562,-4.469,-4.5021,-4.5406,-4.5865,-4.5902,-4.5681,-4.5223,-4.4892,-4.4488,-4.4011,-4.3663,-4.3515,-4.3515,-4.3515,-4.3515,-4.3515,-4.3515,-4.3515,-3.119,-3.119,-3.097,-3.0023,-2.9416,-2.8721,-2.767,-2.7179,-2.6909,-2.684,-2.6554,0.0,0.0,0.0,-2.6034,-2.6034,0.0,-2.6992,-2.5816,-2.6505,-2.7224,-2.75,-2.8094,-2.8665,-2.9113,-2.8487,-2.8711,-3.0342,-2.9258,-2.9224,-3.0868,-3.0975,-3.0935,-3.0851,-3.0712,-3.0733,-3.0892,-3.0573,-3.0469,-3.0607,-3.0607,-3.0607,-3.0607,-3.0808,-3.0932,-3.0975,-3.0975,-3.1032,-3.1162,-3.1904,-3.2529,-3.3119,-3.4047,-3.4739,-3.5262,-3.5509,-3.56,-3.56,-3.56,-3.56,-3.5718,-3.6535,-3.7388,-3.8176,-3.8802,-3.9225,-3.9588,-3.9994,-4.0096,-4.0096,-4.0096,-4.0434,-4.0919,-4.137,-4.1867,-4.2338,-4.2806,-4.2901,-4.2901,-4.2901,-4.2938,-4.2994,-4.3086,-4.303,-4.2994,-4.3105,-4.3141,-4.316,-4.3233,-4.334,-4.3412,-4.3429,-4.3463,-4.3736,-4.4323,-4.4378,-4.4617,-4.5204,-4.5241,-4.4984,-4.4397,-4.4378,-4.4103,-4.3515,-4.3515,-4.3515,-4.3515,-4.3718,-4.3718,-4.3515,-4.3515,-4.3515,-3.119,-3.119,-3.0835,-2.9399,-2.9027,-2.8604,-2.708,-2.7266,-2.7738,-2.7684,-2.8204,-2.8691,-2.8691,-2.8121,0.0,0.0,-2.7077,0.0,0.0,-2.5883,-2.5495,-2.5852,-2.6929,-2.7433,-2.6857,-2.5619,-2.589,-2.84,-2.7294,-2.7784,-3.0754,-3.0912,-3.0834,-3.0712,-3.0589,-3.063,-3.0892,-3.0072,-2.9685,-2.9833,-2.9833,-2.9833,-2.985,-3.0573,-3.0892,-3.0912,-3.0912,-3.0912,-3.0979,-3.1696,-3.2014,-3.2182,-3.3639,-3.4209,-3.4354,-3.5262,-3.56,-3.56,-3.56,-3.56,-3.5718,-3.6535,-3.6315,-3.6107,-3.8328,-3.8514,-3.8278,-3.9706,-4.0096,-4.0096,-4.0096,-4.0434,-4.0919,-4.137,-4.1867,-4.2338,-4.2806,-4.2901,-4.2901,-4.2901,-4.2994,-4.3086,-4.3104,-4.3086,-4.3123,-4.3196,-4.3196,-4.3233,-4.3376,-4.3394,-4.3411,-4.3497,-4.3497,-4.3515,-4.3551,-4.3551,-4.3551,-4.3588,-4.3588,-4.357,-4.3551,-4.3551,-4.3533,-4.3515,-4.3515,-4.3515,-4.3515,-4.4287,-4.4268,-4.3515,-4.3515,-4.3515,-3.119,-3.119,-3.0954,-2.9973,-2.9347,-2.8722,-2.7672,-2.7621,-2.7789,-2.7772,-2.8379,-2.8938,-2.8938,-2.8735,0.0,0.0,0.0,-2.6894,0.0,-2.431,-2.3884,-2.4462,-2.5484,-2.6284,-2.6663,-2.6203,-2.6698,-2.8688,-2.8075,-2.8576,-3.0851,-3.0932,-3.0851,-3.0692,-3.0568,-3.0531,-3.063,-3.034,-3.0223,-3.0264,-3.0264,-3.0264,-3.0281,-3.0514,-3.0692,-3.077,-3.077,-3.0831,-3.0908,-3.116,-3.1846,-3.278,-3.3369,-3.4202,-3.5093,-3.5413,-3.552,-3.5543,-3.5577,-3.56,-3.5633,-3.5926,-3.618,-3.662,-3.7889,-3.8447,-3.8819,-3.9825,-4.0096,-4.0096,-4.0096,-4.0683,-4.1281,-4.1459,-4.2098,-4.2711,-4.2863,-4.2901,-4.2938,-4.303,-4.3067,-4.3141,-4.3287,-4.3305,-4.3305,-4.3323,-4.3323,-4.3358,-4.3445,-4.3481,-4.348,-4.3497,-4.3515,-4.3515,-4.3515,-4.3515,-4.3515,-4.3515,-4.3515,-4.3515,-4.3515,-4.3515,-4.3515,-4.3515,-4.3515,-4.3515,-4.3515,-4.3754,-4.3754,-4.3515,-4.3515,-4.3515,-3.119,-3.119,-3.1021,-3.0294,-2.9736,-2.9178,-2.8399,-2.8415,-2.8618,-2.8618,-2.9245,-2.9788,-2.9788,-2.9585,0.0,0.0,0.0,0.0,0.0,-2.3685,-2.3579,-2.4062,-2.4649,-2.5275,-2.5862,-2.5319,-2.5905,-2.8217,-2.7559,-2.822,-3.0858,-3.0952,-3.0851,-3.0692,-3.0568,-3.0506,-3.0506,-2.9992,-2.986,-3.0108,-2.988,-2.988,-3.0125,-3.0373,-3.0547,-3.063,-3.063,-3.0671,-3.0753,-3.0753,-3.132,-3.2255,-3.2859,-3.3667,-3.4594,-3.5273,-3.5543,-3.5543,-3.5577,-3.56,-3.56,-3.56,-3.596,-3.6552,-3.7601,-3.8227,-3.8819,-3.9825,-4.0096,-4.0096,-4.0096,-4.0666,-4.1281,-4.1459,-4.2077,-4.2692,-4.2863,-4.2901,-4.2938,-4.3068,-4.3123,-4.3178,-4.3376,-4.3411,-4.3429,-4.3429,-4.3429,-4.3464,-4.3479,-4.3515,-4.3515,-4.3515,-4.3515,-4.3515,-4.3515,-4.3515,-4.3515,-4.3515,-4.3515,-4.3515,-4.3515,-4.3515,-4.3515,-4.3515,-4.3515,-4.3515,-4.3515,-4.3791,-4.3773,-4.3515,-4.3791,-4.3754]},{"header":{"parameterUnit":"m.s-1","parameterCategory":1,"la1":30.6,"la2":29.2853,"lo1":-89.7004,"lo2":-87.6739,"dy":0.0162,"dx":0.0183,"nx":112,"ny":82,"refTime":"2025-04-16T06:00:00:Z","depth":0,"parameterNumber":3,"parameterNumberName":"V-component_of_WINDS"},"data":[0.0,0.0,0.0,0.0,0.0,0.0,0.0,0.0,0.0,0.0,0.0,0.0,0.0,0.0,0.0,0.0,0.0,0.0,0.0,0.0,0.0,0.0,0.0,0.0,0.0,0.0,0.0,0.0,0.0,0.0,0.0,0.0,0.0,0.0,0.0,0.0,0.0,0.0,0.0,0.0,0.0,0.0,0.0,0.0,0.0,0.0,0.0,0.0,0.0,0.0,0.0,0.0,0.0,0.0,0.0,0.0,0.0,0.0,0.0,0.0,0.0,0.0,0.0,0.0,0.0,0.0,0.0,0.0,0.0,0.0,0.0,0.0,0.0,0.0,0.0,0.0,0.0,0.0,0.0,0.0,0.0,0.0,0.0,0.0,0.0,0.0,0.0,0.0,0.0,0.0,-0.5214,-0.5761,-0.6168,-0.6457,-0.6611,-0.6369,-0.6075,-0.571,0.0,0.0,0.0,0.0,0.0,0.0,0.0,0.0,0.0,0.0,0.0,0.0,0.0,0.0,0.0,0.0,0.0,0.0,0.0,0.0,0.0,0.0,0.0,0.0,0.0,0.0,0.0,0.0,0.0,0.0,0.0,0.0,0.0,0.0,0.0,0.0,0.0,0.0,0.0,0.0,0.0,0.0,0.0,0.0,0.0,0.0,0.0,0.0,0.0,0.0,0.0,0.0,0.0,0.0,0.0,0.0,0.0,0.0,0.0,0.0,0.0,0.0,0.0,0.0,0.0,0.0,0.0,0.0,0.0,0.0,0.0,0.0,0.0,0.0,0.0,0.0,0.0,0.0,0.0,0.0,0.0,0.0,0.0,0.0,0.0,0.0,0.0,0.0,0.0,0.0,0.0,0.0,0.0,0.0,0.0,0.0,0.0,0.0,0.0,0.0,0.0,0.0,0.0,0.0,-0.4126,-0.6104,-0.6435,-0.66,-0.6619,-0.6214,-0.5893,-0.5699,0.0,0.0,0.0,0.0,0.0,0.0,0.0,0.0,0.0,0.0,0.0,0.0,0.0,0.0,0.0,0.0,0.0,0.0,0.0,0.0,0.0,0.0,0.0,0.0,0.0,0.0,0.0,0.0,0.0,0.0,0.0,0.0,0.0,0.0,0.0,0.0,0.0,0.0,0.0,0.0,0.0,0.0,0.0,0.0,0.0,0.0,0.0,0.0,0.0,0.0,0.0,0.0,0.0,0.0,0.0,0.0,0.0,0.0,0.0,0.0,0.0,0.0,0.0,0.0,0.0,0.0,0.0,0.0,0.0,0.0,0.0,0.0,0.0,0.0,0.0,0.0,0.0,0.0,0.0,0.0,0.0,0.0,0.0,0.0,0.0,0.0,0.0,0.0,0.0,0.0,0.0,0.0,0.0,0.0,0.0,0.0,0.0,0.0,0.0,0.0,0.0,0.0,0.0,-0.3534,-0.4462,-0.6212,-0.6435,-0.647,-0.647,-0.6203,-0.5926,-0.5699,-0.5038,0.0,0.0,0.0,0.0,0.0,0.0,0.0,0.0,0.0,0.0,0.0,0.0,0.0,0.0,0.0,0.0,0.0,0.0,0.0,0.0,0.0,0.0,0.0,0.0,0.0,0.0,0.0,0.0,0.0,0.0,0.0,0.0,0.0,0.0,0.0,0.0,0.0,0.0,0.0,0.0,0.0,0.0,0.0,0.0,0.0,0.0,0.0,0.0,0.0,0.0,0.0,0.0,0.0,0.0,0.0,0.0,0.0,0.0,0.0,0.0,0.0,0.0,0.0,0.0,0.0,0.0,0.0,0.0,0.0,0.0,0.0,0.0,0.0,0.0,0.0,0.0,0.0,0.0,0.0,0.0,0.0,0.0,0.0,0.0,0.0,0.0,0.0,0.0,0.0,0.0,0.0,0.0,0.0,0.0,0.0,0.0,0.0,0.0,0.0,0.0,0.0,0.0,-0.4488,-0.5027,-0.6286,-0.6411,-0.6416,-0.6389,-0.617,-0.5831,-0.5429,-0.4405,0.0,0.0,0.0,0.0,0.0,0.0,0.0,0.0,0.0,0.0,0.0,0.0,0.0,0.0,0.0,0.0,0.0,0.0,0.0,0.0,0.0,0.0,0.0,0.0,0.0,0.0,0.0,0.0,0.0,0.0,0.0,0.0,0.0,0.0,0.0,0.0,0.0,0.0,0.0,0.0,0.0,0.0,0.0,0.0,0.0,0.0,0.0,0.0,0.0,0.0,0.0,0.0,0.0,0.0,0.0,0.0,0.0,0.0,0.0,0.0,0.0,0.0,0.0,0.0,0.0,0.0,0.0,0.0,0.0,0.0,0.0,0.0,0.0,0.0,0.0,0.0,0.0,0.0,0.0,0.0,0.0,0.0,0.0,0.0,0.0,0.0,0.0,0.0,0.0,0.0,0.0,0.0,0.0,0.0,0.0,0.0,0.0,0.0,0.0,0.0,0.0,0.0,-0.4177,-0.5194,-0.6271,-0.6489,-0.6559,-0.6395,-0.5974,-0.5389,-0.465,-0.3996,0.0,0.0,0.0,0.0,0.0,0.0,0.0,0.0,0.0,0.0,0.0,0.0,0.0,0.0,0.0,0.0,0.0,0.0,0.0,0.0,0.0,0.0,0.0,0.0,0.0,0.0,0.0,0.0,0.0,0.0,0.0,0.0,0.0,0.0,0.0,0.0,0.0,0.0,0.0,0.0,0.0,0.0,0.0,0.0,0.0,0.0,0.0,0.0,0.0,0.0,0.0,0.0,0.0,0.0,0.0,0.0,0.0,0.0,0.0,0.0,0.0,0.0,0.0,0.0,0.0,0.0,0.0,0.0,0.0,0.0,0.0,0.0,0.0,0.0,0.0,0.0,0.0,0.0,0.0,0.0,0.0,0.0,0.0,0.0,0.0,0.0,0.0,0.0,0.0,0.0,0.0,0.0,0.0,0.0,0.0,0.0,0.0,0.0,0.0,0.0,0.0,0.0,-0.3161,-0.4212,-0.5304,-0.6025,-0.6458,-0.6342,-0.6029,-0.5429,-0.4439,0.0,0.0,0.0,0.0,0.0,0.0,0.0,0.0,0.0,0.0,0.0,0.0,0.0,0.0,0.0,0.0,0.0,0.0,0.0,0.0,0.0,0.0,0.0,0.0,0.0,0.0,0.0,0.0,0.0,0.0,0.0,0.0,0.0,0.0,0.0,0.0,0.0,0.0,0.0,0.0,0.0,0.0,0.0,0.0,0.0,0.0,0.0,0.0,0.0,0.0,0.0,0.0,0.0,0.0,0.0,0.0,0.0,0.0,0.0,0.0,0.0,0.0,0.0,0.0,0.0,0.0,0.0,0.0,0.0,0.0,0.0,0.0,0.0,0.0,0.0,0.0,0.0,0.0,0.0,0.0,0.0,0.0,0.0,0.0,0.0,0.0,0.0,0.0,0.0,0.0,0.0,0.0,0.0,0.0,0.0,0.0,0.0,0.0,0.0,0.0,0.0,0.0,-0.1448,-0.2515,-0.3605,-0.4702,-0.5734,-0.6391,-0.6328,-0.5975,-0.5227,-0.3956,0.0,0.0,0.0,0.0,0.0,0.0,0.0,0.0,0.0,0.0,0.0,0.0,0.0,0.0,0.0,0.0,0.0,0.0,0.0,0.0,0.0,0.0,0.0,0.0,0.0,0.0,0.0,0.0,0.0,0.0,0.0,0.0,0.0,0.0,0.0,0.0,0.0,0.0,0.0,0.0,0.0,0.0,0.0,0.0,0.0,0.0,0.0,0.0,0.0,0.0,0.0,0.0,0.0,0.0,0.0,0.0,0.0,0.0,0.0,0.0,0.0,0.0,0.0,0.0,0.0,0.0,0.0,0.0,0.0,0.0,0.0,0.0,0.0,0.0,0.0,0.0,0.0,0.0,0.0,0.0,0.0,0.0,0.0,0.0,0.0,0.0,0.0,0.0,0.0,0.0,0.0,0.0,0.0,0.0,0.0,0.0,0.0,0.0,0.0,0.0,0.0,0.0,-0.1454,-0.2534,-0.357,-0.4664,-0.5734,-0.6338,-0.6276,-0.578,-0.4768,0.0,0.0,0.0,0.0,0.0,0.0,0.0,0.0,0.0,0.0,0.0,0.0,0.0,0.0,0.0,0.0,0.0,0.0,0.0,0.0,0.0,0.0,0.0,0.0,0.0,0.0,0.0,0.0,0.0,0.0,0.0,0.0,0.0,0.0,0.0,0.0,0.0,0.0,0.0,0.0,0.0,0.0,0.0,0.0,0.0,0.0,0.0,0.0,0.0,0.0,0.0,0.0,0.0,0.0,0.0,0.0,0.0,0.0,0.0,0.0,0.0,0.0,0.0,0.0,0.0,0.0,0.0,0.0,0.0,0.0,0.0,0.0,0.0,0.0,0.0,0.0,0.0,0.0,0.0,0.0,0.0,0.0,0.0,0.0,0.0,0.0,0.0,0.0,0.0,0.0,0.0,0.0,0.0,0.0,0.0,0.0,0.0,0.0,0.0,0.0,0.0,0.0,0.0,-0.0416,-0.1404,-0.2462,-0.3562,-0.398,-0.4405,-0.509,-0.4242,-0.3137,-0.1967,0.0,0.0,0.0,0.0,0.0,0.0,0.0,0.0,0.0,0.0,0.0,0.0,0.0,0.0,0.0,0.0,0.0,0.0,0.0,0.0,0.0,0.0,0.0,0.0,0.0,0.0,0.0,0.0,0.0,0.0,0.0,0.0,0.0,0.0,0.0,0.0,0.0,0.0,0.0,0.0,0.0,0.0,0.0,0.0,0.0,0.0,0.0,0.0,0.0,0.0,0.0,0.0,0.0,0.0,0.0,0.0,0.0,0.0,0.0,0.0,0.0,0.0,0.0,0.0,0.0,0.0,0.0,0.0,0.0,0.0,0.0,0.0,0.0,0.0,0.0,0.0,0.0,0.0,0.0,0.0,0.0,0.0,0.0,0.0,0.0,0.0,0.0,0.0,0.0,0.0,0.0,0.0,0.0,0.0,0.0,0.0,0.0,0.0,0.0,0.0,0.0,0.0,0.0123,-0.0895,-0.1856,-0.2503,-0.2944,-0.3436,-0.3955,-0.3312,-0.2488,-0.1456,0.0,0.0,0.0,0.0,0.0,0.0,0.0,0.0,0.0,0.0,0.0,0.0,0.0,0.0,0.0,0.0,0.0,0.0,0.0,0.0,0.0,0.0,0.0,0.0,0.0,0.0,0.0,0.0,0.0,0.0,0.0,0.0,0.0,0.0,0.0,0.0,0.0,0.0,0.0,0.0,0.0,0.0,0.0,0.0,0.0,0.0,0.0,0.0,0.0,0.0,0.0,0.0,0.0,0.0,0.0,0.0,0.0,0.0,0.0,0.0,0.0,0.0,0.0,0.0,0.0,0.0,0.0,0.0,0.0,0.0,0.0,0.0,0.0,0.0,0.0,0.0,0.0,0.0,0.0,0.0,0.0,0.0,0.0,0.0,0.0,0.0,0.0,0.0,0.0,0.0,0.0,0.0,0.0,0.0,0.0,0.0,0.0,0.0,0.0,0.0,0.0,0.0,0.0281,-0.0745,-0.1486,-0.1567,-0.2364,-0.2879,-0.2868,-0.271,-0.2238,-0.1343,0.0,0.0,0.0,0.0,0.0,0.0,0.0,0.0,0.0,0.0,0.0,0.0,0.0,0.0,0.0,0.0,0.0,0.0,0.0,0.0,0.0,0.0,0.0,0.0,0.0,0.0,0.0,0.0,0.0,0.0,0.0,0.0,0.0,0.0,0.0,0.0,0.0,0.0,0.0,0.0,0.0,0.0,0.0,0.0,0.0,0.0,0.0,0.0,0.0,0.0,0.0,0.0,0.0,0.0,0.0,0.0,0.0,0.0,0.0,0.0,0.4848,0.459,0.0,0.0,0.0,0.0,0.0,0.0,0.0,0.0,0.0,0.0,0.0,0.0,0.0,0.0,0.0,0.0,0.0,0.0,0.0,0.0,0.0,0.0,0.0,0.0,0.0,0.0,0.0,0.0,0.0,0.0,0.0,0.0,0.0,0.0,0.0,0.0,0.0,0.0,0.0,0.0,0.0281,-0.0087,-0.0687,-0.1517,-0.1037,-0.1026,-0.1847,-0.1113,-0.0511,-0.0324,-0.0295,0.0,0.0,0.0,0.0,0.0,0.0,0.0,0.0,0.0,0.0,0.0,0.0,0.0,0.0,0.0,0.0,0.0,0.0,0.0,0.0,0.0,0.0,0.0,0.0,0.0,0.0,0.0,0.0,0.0,0.0,0.0,0.0,0.0,0.0,0.0,0.0,0.0,0.0,0.0,0.0,0.0,0.0,0.0,0.0,0.0,0.0,0.0,0.0,0.0,0.0,0.0,0.0,0.0,0.0,0.0,0.0,0.0,0.0,0.0,0.5496,0.5092,0.0,0.0,0.0,0.0,0.0,0.0,0.0,0.0,0.0,0.0,0.0,0.0,0.0,0.0,0.0,0.0,0.0,0.0,0.0,0.0,0.0,0.0,0.0,0.0,0.0,0.0,0.0,0.0,0.0,0.0,0.0,0.0,0.0,0.0,0.0,0.0,0.0,0.0,0.0,0.0,0.0562,0.0428,0.0134,-0.0415,-0.0093,-0.0046,-0.0592,-0.0266,0.0,0.0,0.0,0.0,0.0,0.0,0.0,0.0,0.0,0.0,0.0,0.0,0.0,0.0,0.0,0.0,0.0,0.0,0.0,0.0,0.0,0.0,0.0,0.0,0.0,0.0,0.0,0.0,0.0,0.0,0.0,0.0,0.0,0.0,0.0,0.0,0.0,0.0,0.0,0.0,0.0,0.0,0.0,0.0,0.0,0.0,0.0,0.0,0.0,0.0,0.0,0.0,0.0,0.0,0.0,0.0,0.6119,0.6259,0.6239,0.6505,0.6636,0.6617,0.632,0.5871,0.5315,0.5594,0.0,0.0,0.0,0.0,0.0,0.0,0.0,0.0,0.0,0.0,0.0,0.0,0.0,0.0,0.0,0.0,0.0,0.0,0.0,0.0,0.0,0.0,0.1045,0.1196,0.1053,0.0886,0.074,0.0,0.0,0.0,0.0,0.0,0.0,0.0,0.0,0.0,0.0,0.0,0.0883,0.0762,0.0702,0.0716,0.0546,0.0457,0.0404,0.0177,0.0043,0.0,0.0,0.0,0.0,0.0,0.0,0.0,0.0,0.0,0.0,0.0,0.0,0.0,0.0,0.0,0.0,0.0,0.0,0.0,0.0,0.0,0.0,0.0,0.0,0.0,0.0,0.0,0.0,0.0,0.0,0.0,0.0,0.0,0.0,0.0,0.9959,1.0181,0.0,0.0,0.0,0.0,0.0,0.0,0.0,0.0,0.0,0.0,0.0,0.0,0.0,0.6392,0.5664,0.6156,0.6357,0.621,0.6706,0.6899,0.6789,0.702,0.711,0.7106,0.729,0.0,0.6455,0.6474,0.0,0.0,0.0,0.0,0.0,0.0,0.0,0.0,0.0,0.0,0.0,0.0,0.0,0.0,0.0,0.0,0.0,0.0,0.0,0.0,0.0,0.0,0.1311,0.1305,0.1315,0.1282,0.1244,0.1158,0.1122,0.1115,0.1049,0.0985,0.0,0.0,0.0,0.0,0.0,0.0,0.0887,0.0762,0.0702,0.0716,0.0674,0.0585,0.0404,0.0358,0.0263,0.0,0.0,0.0,0.0,0.0,0.0,0.0,0.0,0.0,0.0,0.0,0.0,0.0,0.0,0.0,0.0,0.0,0.0,0.0,0.0,0.0,0.0,0.0,0.0,0.0,0.0,0.0,0.0,0.0,0.0,0.0,0.0,0.0,0.0,1.0585,1.1104,1.1174,1.1352,1.1324,0.0,0.0,0.0,0.0,0.0,0.0,0.0,0.0,0.0,0.7163,0.7267,0.7066,0.6494,0.6774,0.6888,0.6786,0.7195,0.737,0.7313,0.7553,0.7647,0.7647,0.7796,0.7674,0.7435,0.7264,0.7146,0.7042,0.0,0.0,0.0,0.0,0.6495,0.6529,0.6803,0.6841,0.678,0.6742,0.0,0.0,0.0,0.0,0.0,0.0,0.0,0.3111,0.2405,0.1848,0.1459,0.145,0.1444,0.1393,0.1425,0.1354,0.1282,0.1249,0.1198,0.1139,0.1074,0.1048,0.0,0.0,0.0,0.1072,0.1111,0.1109,0.1095,0.1074,0.0987,0.0897,0.0807,0.0538,0.0352,0.0211,0.0083,0.0,0.0,0.0,0.0,0.0,0.0,0.0,0.0,0.0,0.0,0.0,0.0,0.0,0.0,0.0,0.0,0.0,0.0,0.0,0.0,0.0,0.0,0.0,0.0,0.0,0.0,0.0,0.0,0.0,0.0,0.0,0.0,1.1531,1.2095,1.2029,1.2439,1.2487,0.0,0.0,0.0,0.0,0.0,0.0,1.027,1.0244,0.9431,0.7518,0.7614,0.7572,0.7186,0.7375,0.7443,0.7443,0.7699,0.7854,0.7854,0.8016,0.8099,0.8096,0.8008,0.7988,0.7961,0.7783,0.7607,0.745,0.7234,0.7064,0.6943,0.7027,0.7041,0.7078,0.7339,0.745,0.735,0.7204,0.7085,0.7031,0.6699,0.0,0.0,0.0,0.0,0.42,0.3535,0.267,0.1927,0.1984,0.169,0.1442,0.1472,0.1433,0.1386,0.1335,0.1301,0.1256,0.1181,0.1149,0.0,0.1164,0.1213,0.1234,0.1307,0.1384,0.141,0.1388,0.1256,0.1166,0.1121,0.0759,0.0526,0.0422,0.0209,0.0041,0.0,0.0,0.0,0.0,0.0,0.0,0.0,0.0,0.0,0.0,0.0,0.0,0.0,0.0,0.0,0.0,0.0,0.0,0.0,0.0,0.0,0.0,0.0,0.0,0.0,0.0,0.0,0.0,0.0,0.0,0.0,0.0,0.0,1.2324,1.32,0.0,0.0,0.0,0.0,1.2149,1.2532,1.1751,0.9377,0.9584,0.8925,0.7157,0.7375,0.7521,0.7476,0.7871,0.8043,0.8046,0.8305,0.8459,0.8455,0.8319,0.831,0.8252,0.8102,0.7988,0.7978,0.7858,0.7709,0.757,0.7456,0.7258,0.7102,0.7295,0.7395,0.7415,0.7533,0.7492,0.746,0.7682,0.7675,0.7536,0.7412,0.7214,0.0,0.0,0.5821,0.5593,0.483,0.3889,0.3095,0.303,0.2252,0.1461,0.1405,0.1391,0.1379,0.1392,0.1363,0.1291,0.1299,0.0,0.1292,0.1293,0.128,0.131,0.1384,0.1414,0.1389,0.1391,0.1391,0.13,0.1121,0.1014,0.082,0.0422,0.033,0.0202,0.0,0.0,0.0,0.0,0.0,0.0,0.0,0.0,0.0,0.0,0.0,0.0,0.0,0.0,0.0,0.0,0.0,0.0,0.0,0.0,0.0,0.0,0.0,0.0,0.0,0.0,0.0,0.0,0.0,0.0,0.0,0.0,0.0,1.3544,1.4087,0.0,1.3538,1.3803,1.3751,1.3043,1.3488,1.3182,1.1798,1.2003,1.1212,0.9146,0.9212,0.8865,0.8144,0.8298,0.8381,0.8381,0.843,0.8482,0.8479,0.8428,0.8357,0.832,0.8211,0.8133,0.7985,0.7931,0.788,0.7868,0.7716,0.7621,0.7577,0.7634,0.7655,0.7675,0.7831,0.7848,0.7801,0.7811,0.7716,0.759,0.7536,0.7478,0.7342,0.7066,0.6552,0.6029,0.5744,0.4931,0.4204,0.41,0.3294,0.2504,0.2392,0.1856,0.1387,0.1421,0.1395,0.1366,0.1295,0.129,0.1284,0.1305,0.1343,0.1379,0.1388,0.1416,0.1391,0.1391,0.1391,0.1383,0.132,0.1092,0.0943,0.0784,0.0491,0.0282,0.0197,0.0079,0.0,0.0,0.0,0.0,0.0,0.0,0.0,0.0,0.0,0.0,0.0,0.0,0.0,0.0,0.0,0.0,0.0,0.0,0.0,0.0,0.0,0.0,0.0,0.0,0.0,0.0,0.0,0.0,0.0,1.2958,1.3713,1.4238,1.4859,1.5034,1.4491,1.4847,1.4853,1.4232,1.4588,1.4375,1.3306,1.3413,1.2674,1.0867,1.0462,0.9922,0.9188,0.8824,0.8635,0.8635,0.8635,0.8635,0.8635,0.8581,0.8479,0.834,0.8344,0.8184,0.7988,0.7988,0.7988,0.7978,0.7877,0.7889,0.7889,0.7889,0.7889,0.7902,0.7955,0.7988,0.7971,0.7874,0.7824,0.7746,0.7746,0.7746,0.7746,0.7746,0.7279,0.6807,0.6807,0.6044,0.5253,0.5156,0.4294,0.3463,0.3395,0.2578,0.1928,0.1928,0.164,0.1399,0.1338,0.1334,0.1328,0.135,0.138,0.1406,0.1406,0.1378,0.1391,0.1391,0.1381,0.1412,0.1392,0.1201,0.1051,0.1019,0.0687,0.0439,0.0314,0.0234,0.0154,0.0,0.0,0.0,0.0,0.0,0.0,0.0,0.0,0.0,0.0,0.0,0.0,0.0,0.0,0.0,0.0,0.0,0.0,0.0,0.0,0.0,0.0,0.0,0.0,0.0,0.0,0.0,1.2705,1.364,1.4316,1.4358,1.5499,1.6085,1.5584,1.6241,1.6368,1.5559,1.5741,1.5235,1.3645,1.3521,1.3064,1.2029,1.1023,1.0482,1.0428,0.941,0.8885,0.8885,0.8885,0.8885,0.8878,0.8784,0.8632,0.8476,0.8336,0.8187,0.7988,0.7988,0.7988,0.7988,0.7988,0.7988,0.7988,0.7988,0.7988,0.7988,0.7988,0.7988,0.7988,0.7988,0.7988,0.7988,0.7988,0.7988,0.7988,0.7988,0.7988,0.7988,0.7985,0.7131,0.627,0.6239,0.5278,0.4354,0.4352,0.3623,0.2956,0.2956,0.2152,0.148,0.1391,0.1391,0.1391,0.1391,0.1391,0.0,0.1391,0.139,0.1389,0.1389,0.1407,0.1388,0.1387,0.1335,0.1221,0.1015,0.0954,0.0706,0.0353,0.0499,0.0416,0.0038,0.0,0.0,0.0,0.0,0.0,0.0,0.0,0.0,0.0,0.0,0.0,0.0,0.0,0.0,0.0,0.0,0.0,0.0,0.0,0.0,0.0,0.0,0.0,0.0,1.2747,1.3495,1.3568,1.399,1.4654,1.562,1.606,1.6302,1.6362,1.6573,1.6368,1.5559,1.5741,1.5635,1.4988,1.4353,1.3486,1.2354,1.1225,1.0225,0.9366,0.9027,0.8885,0.8885,0.8885,0.8885,0.8881,0.8841,0.873,0.8479,0.8442,0.8275,0.7988,0.7988,0.7988,0.7988,0.7988,0.7988,0.7988,0.7988,0.7988,0.7988,0.7988,0.7988,0.7988,0.7988,0.7988,0.7988,0.7988,0.7988,0.7988,0.7988,0.7988,0.7965,0.7902,0.7599,0.7311,0.7118,0.6242,0.5448,0.534,0.4559,0.3933,0.3933,0.371,0.3041,0.1658,0.1391,0.1391,0.1391,0.1391,0.1391,0.1391,0.1416,0.1402,0.1402,0.1376,0.1308,0.1328,0.1311,0.1243,0.1162,0.0998,0.0842,0.0727,0.0646,0.0534,0.0427,0.0294,0.0212,0.0,0.0,0.0,0.0,0.0,0.0,0.0,0.0,0.0,0.0,0.0,0.0,0.0,0.0,0.0,0.0,0.0,0.0,0.0,0.0,0.0,0.0,1.3495,1.4189,1.4527,1.4702,1.5131,1.6012,1.6211,1.6392,1.6676,1.67,1.6459,1.5867,1.5534,1.5237,1.4988,1.3981,1.3127,1.2417,1.1269,1.0347,0.9644,0.9154,0.8885,0.8885,0.8885,0.8885,0.8881,0.8817,0.871,0.8479,0.8418,0.831,0.8187,0.8187,0.8233,0.8333,0.0,0.0,0.0,0.0,0.7988,0.7988,0.7988,0.7988,0.7988,0.7988,0.7988,0.7988,0.7988,0.7988,0.7988,0.7988,0.7944,0.7874,0.7834,0.7719,0.7584,0.7456,0.6905,0.6385,0.6314,0.5539,0.487,0.487,0.4526,0.0,0.274,0.2272,0.1877,0.1463,0.1416,0.1412,0.1356,0.134,0.1372,0.1372,0.1304,0.128,0.1304,0.1291,0.0,0.0,0.0,0.1072,0.1023,0.0757,0.0,0.0,0.0,0.0,0.0,0.0,0.0,0.0,0.0035,0.0,0.0,0.0,0.0,0.0,0.0,0.0,0.0,0.0,0.0,0.0,0.0,0.0,0.0,0.0,0.0,0.0,1.4177,1.4648,1.5396,1.5523,1.5638,1.5903,1.6139,1.6392,1.6676,1.67,1.6585,1.6302,1.523,1.4467,1.4234,1.3073,0.0,0.0,0.0,1.0726,1.0726,0.9478,0.8885,0.8885,0.8885,0.8885,0.8878,0.8798,0.8645,0.8528,0.8402,0.8349,0.8432,0.8432,0.8577,0.8775,0.8237,0.8038,0.8038,0.7988,0.7988,0.7988,0.7988,0.0,0.0,0.7971,0.7975,0.7985,0.7968,0.7965,0.7965,0.7965,0.7902,0.7784,0.7767,0.7567,0.7412,0.735,0.7241,0.7095,0.7095,0.6419,0.5833,0.5833,0.5036,0.4362,0.4276,0.3556,0.2696,0.1822,0.1687,0.1633,0.1603,0.1596,0.1594,0.1594,0.1602,0.0,0.158,0.159,0.1882,0.2578,0.1954,0.1549,0.1477,0.1138,0.0988,0.1065,0.0874,0.073,0.0628,0.0628,0.051,0.0313,0.014,0.0034,0.0,0.0,0.0,0.0,0.0,0.0,0.0,0.0,0.0,0.0,0.0,0.0,0.0,0.0,0.0,1.3839,1.4491,1.5077,1.5445,1.568,1.591,1.6175,1.6254,1.6392,1.6676,1.67,1.6585,1.6302,1.523,1.4467,1.4234,1.3073,1.2417,1.2417,1.1269,1.0726,1.0726,0.9478,0.8885,0.8885,0.8885,0.0,0.8881,0.8854,0.8855,0.8804,0.856,0.8542,0.8726,0.8482,0.8577,0.8775,0.8432,0.8333,0.8287,0.8088,0.7988,0.7988,0.7988,0.7988,0.7968,0.7896,0.7891,0.7968,0.7892,0.7855,0.0,0.7855,0.775,0.7611,0.7489,0.746,0.7339,0.7214,0.7119,0.7095,0.7095,0.6877,0.6668,0.6668,0.642,0.5943,0.5181,0.4273,0.3562,0.3377,0.3333,0.3328,0.3315,0.3302,0.3306,0.3306,0.3316,0.331,0.331,0.3333,0.3374,0.3459,0.3304,0.3221,0.3204,0.3189,0.2877,0.2221,0.1986,0.1562,0.0825,0.0668,0.0589,0.0549,0.0345,0.0154,0.0,0.0,0.0,0.0,0.0,0.0,0.0,0.0,0.0,0.0,0.0,1.256,1.2868,0.0,1.4201,1.4467,1.5185,1.5704,1.5698,1.5922,1.6085,1.6085,1.6085,1.6139,1.6284,1.6296,1.6235,1.6097,1.505,1.4342,1.4229,1.3073,1.2417,1.2417,1.1869,1.1542,1.1542,1.095,1.0355,0.9805,0.9805,0.9592,0.9154,0.9001,0.8955,0.9059,0.8789,0.878,0.8981,0.8981,0.9076,0.9175,0.8882,0.873,0.8577,0.8432,0.8382,0.8372,0.8347,0.8322,0.8297,0.8085,0.8085,0.8138,0.8057,0.8032,0.8032,0.8032,0.7973,0.7841,0.7759,0.759,0.742,0.734,0.7187,0.7095,0.7095,0.7041,0.697,0.69,0.6807,0.6551,0.5977,0.5424,0.4758,0.3907,0.379,0.3816,0.3812,0.3808,0.378,0.378,0.3818,0.3791,0.3791,0.4183,0.4199,0.3764,0.4144,0.4184,0.3762,0.3767,0.3599,0.3171,0.2626,0.2118,0.1688,0.1178,0.0909,0.08,0.068,0.0483,0.0,0.0,0.0,0.0,0.0,0.0,0.0,1.1802,1.2193,1.2493,1.2934,1.3357,1.3622,1.4244,1.4835,1.5197,1.5765,1.6109,1.5982,1.6103,1.6127,1.5916,1.5891,1.5891,1.5891,1.5891,1.5891,1.5891,1.4869,1.4223,1.4223,1.329,1.2743,1.2743,1.2743,1.2743,1.2743,1.2526,1.1923,1.1055,1.1055,1.057,0.9695,0.9404,0.9305,0.9362,0.9075,0.9031,0.9232,0.948,0.9579,0.9579,0.9381,0.913,0.8924,0.8825,0.8825,0.8803,0.8646,0.859,0.856,0.8359,0.8264,0.8286,0.8253,0.8245,0.8245,0.8245,0.818,0.8057,0.8057,0.7826,0.7595,0.7595,0.7411,0.7275,0.7275,0.7207,0.7152,0.7078,0.6906,0.674,0.6655,0.647,0.5905,0.4492,0.4303,0.4274,0.4272,0.43,0.43,0.43,0.43,0.43,0.43,0.4885,0.4963,0.4338,0.4885,0.4963,0.43,0.43,0.4222,0.4025,0.3327,0.2901,0.2743,0.2118,0.1625,0.1294,0.1508,0.1149,1.19,1.1464,1.1403,1.163,1.1962,1.2306,0.0,1.2903,1.3017,1.3326,1.361,1.39,1.4159,1.4485,1.4956,1.5686,1.568,1.5741,1.6175,1.606,1.5922,1.5891,1.5891,1.5891,1.5891,1.5891,1.5891,1.5891,1.4869,1.4223,1.4223,1.4056,1.4002,1.4002,1.4002,1.4002,1.4002,1.296,1.2363,1.2195,1.2195,1.176,1.0887,1.0688,1.0249,0.9671,0.9531,0.9381,0.9232,0.948,0.9579,0.9579,0.9579,0.9529,0.9476,0.8973,0.8825,0.8803,0.8646,0.859,0.8542,0.8232,0.8225,0.8264,0.8173,0.8132,0.8132,0.8132,0.8012,0.7926,0.7926,0.7871,0.7856,0.7856,0.7808,0.7808,0.7808,0.769,0.7536,0.7521,0.727,0.7057,0.7038,0.6784,0.6454,0.6083,0.6009,0.6002,0.6025,0.6025,0.6025,0.6025,0.6025,0.6025,0.6025,0.6103,0.6103,0.6025,0.6103,0.6103,0.6025,0.6025,0.567,0.4885,0.4771,0.4377,0.3636,0.3558,0.3096,0.2366,0.3241,0.2579,1.2494,1.2221,1.2105,1.2136,1.2584,1.3031,1.3065,1.3357,1.361,1.3719,1.3954,1.422,1.4491,1.489,1.5282,1.5608,1.5964,1.6163,1.6066,1.6091,1.6006,1.5698,1.5795,1.5891,1.5891,1.5891,1.5891,1.5891,1.5458,1.519,1.519,1.519,1.519,1.519,1.519,1.519,1.519,1.4696,1.4099,1.3457,1.3609,1.3226,1.2354,1.1548,1.0621,0.9641,0.9594,0.9529,0.943,0.9579,0.9579,0.9579,0.9579,0.9579,0.9579,0.9327,0.9211,0.9146,0.8934,0.8808,0.8683,0.8444,0.8413,0.8456,0.8385,0.841,0.841,0.841,0.8355,0.83,0.83,0.8208,0.8069,0.8069,0.7984,0.79,0.79,0.784,0.7718,0.7621,0.7491,0.7368,0.7278,0.7042,0.6856,0.6781,0.6507,0.63,0.63,0.63,0.63,0.63,0.63,0.63,0.63,0.63,0.63,0.63,0.63,0.63,0.63,0.63,0.6141,0.5747,0.5276,0.4846,0.4494,0.4025,0.3624,0.328,0.3759,0.3523,1.2776,1.2675,1.268,1.2619,1.3129,1.3574,1.3381,1.3734,1.4108,1.4014,1.4213,1.4479,1.4666,1.5083,1.5439,1.5584,1.6097,1.6368,1.6048,1.6036,1.5928,1.5547,1.5602,1.5704,1.5777,1.5849,1.5891,1.5891,1.5891,1.5891,1.5891,1.5891,1.5891,1.5891,1.5891,1.5891,1.5891,1.5891,1.5512,1.4761,1.4965,1.4637,1.3814,1.2245,1.0963,1.0015,0.9723,0.9579,0.9579,0.9579,0.9579,0.9579,0.9579,0.9579,0.9579,0.9579,0.9543,0.9397,0.9173,0.9011,0.8861,0.8686,0.8612,0.8612,0.8612,0.8612,0.8612,0.8612,0.8612,0.8612,0.8612,0.8472,0.8292,0.8292,0.8208,0.8076,0.8076,0.8076,0.8042,0.7912,0.785,0.7777,0.7662,0.7378,0.719,0.719,0.6781,0.6451,0.6374,0.6374,0.6374,0.6374,0.6374,0.6377,0.63,0.63,0.63,0.63,0.63,0.63,0.63,0.63,0.63,0.63,0.567,0.5356,0.5356,0.4768,0.4379,0.4134,0.4547,0.465,1.274,1.2734,1.2974,1.3386,1.367,1.3894,1.3882,1.4288,1.458,1.4334,1.449,1.4678,1.4715,1.4938,1.5288,1.5795,1.5897,1.6,1.626,1.5849,1.5517,1.5499,1.5282,1.5234,1.5487,1.5741,1.5891,1.5891,1.5891,1.5891,1.5891,1.5891,1.5891,1.5891,1.5891,1.5891,1.5891,1.5891,1.5998,1.6217,1.6217,1.5939,1.5269,1.2929,1.1622,1.1072,1.0064,0.9579,0.9579,0.9579,0.9579,0.9579,0.9579,0.9579,0.9579,0.9579,0.9575,0.9567,0.9218,0.9092,0.9031,0.8726,0.8612,0.8612,0.8612,0.8612,0.8612,0.8612,0.8612,0.8612,0.8612,0.8612,0.8568,0.8568,0.8568,0.8568,0.8568,0.8568,0.8568,0.856,0.8414,0.8288,0.8284,0.7778,0.7386,0.7386,0.7086,0.6826,0.6598,0.6602,0.6602,0.6602,0.6602,0.6525,0.63,0.63,0.63,0.63,0.63,0.63,0.63,0.63,0.63,0.63,0.6261,0.6261,0.6261,0.6222,0.5789,0.4976,0.6112,0.6197,1.3341,1.3668,1.407,1.4269,1.4511,1.47,1.47,1.4823,1.4933,1.4838,1.4885,1.5021,1.52,1.5177,1.5306,1.6056,1.5999,1.6045,1.6524,1.6399,1.6143,1.5788,1.5819,1.5838,1.575,1.5683,1.5704,1.5879,1.5891,1.5891,1.5891,1.5891,1.5891,1.5891,1.5891,1.5891,1.5891,1.6057,1.6217,1.6324,1.6453,1.6108,1.5233,1.4218,1.3182,1.2145,1.1126,1.0641,1.0596,0.992,0.9579,0.9579,0.9579,0.9579,0.9579,0.9579,0.9579,0.9526,0.9222,0.9015,0.8877,0.869,0.8612,0.8612,0.8612,0.8612,0.8612,0.8612,0.8612,0.8612,0.8612,0.8612,0.8612,0.8612,0.8612,0.8612,0.8612,0.8612,0.8612,0.8612,0.8559,0.8518,0.8518,0.8124,0.768,0.7336,0.7057,0.6865,0.6826,0.6676,0.6602,0.6602,0.649,0.6377,0.63,0.63,0.63,0.63,0.63,0.63,0.63,0.63,0.63,0.63,0.63,0.63,0.63,0.63,0.6141,0.5873,0.6438,0.6574,1.4111,1.4399,1.4682,1.4934,1.5031,1.5083,1.5083,1.5172,1.522,1.5131,1.5095,1.5108,1.5341,1.5116,1.5212,1.6011,1.6023,1.6103,1.6626,1.6647,1.645,1.6094,1.6126,1.6145,1.6062,1.5906,1.5922,1.6187,1.6205,1.6205,1.6205,1.6105,1.6051,1.6051,1.6051,1.6051,1.6051,1.6318,1.6427,1.6438,1.662,1.6335,1.5595,1.4967,1.4197,1.3216,1.2193,1.1512,1.1175,1.0449,0.9965,0.9579,0.9579,0.9579,0.9579,0.9579,0.9579,0.9526,0.9222,0.9019,0.8881,0.869,0.8612,0.8612,0.8612,0.8612,0.8612,0.8612,0.8612,0.8612,0.8612,0.8612,0.8612,0.8612,0.8612,0.8612,0.8612,0.8612,0.8612,0.8612,0.8612,0.8612,0.8612,0.8312,0.7971,0.7561,0.7359,0.723,0.7034,0.6911,0.6813,0.6869,0.6723,0.657,0.6496,0.6417,0.6354,0.6303,0.63,0.63,0.63,0.63,0.63,0.63,0.63,0.63,0.63,0.63,0.63,0.6306,0.6563,0.6702,1.4854,1.4842,1.4812,1.5355,1.5309,1.5131,1.5131,1.5315,1.5445,1.5159,1.507,1.5046,1.5063,1.4822,1.4877,1.5781,1.589,1.61,1.6654,1.6507,1.6336,1.6375,1.6196,1.6145,1.6349,1.6368,1.6437,1.6711,1.673,1.6677,1.6677,1.6477,1.6324,1.6324,1.6324,1.6324,1.6324,1.6564,1.6676,1.6716,1.6676,1.654,1.6273,1.5219,1.4631,1.4346,1.3264,1.2242,1.1365,1.1317,1.0645,0.9673,0.9673,0.9624,0.9579,0.9579,0.9579,0.9526,0.9222,0.9096,0.9039,0.8726,0.8612,0.8612,0.8612,0.8612,0.8612,0.8612,0.8612,0.8612,0.8612,0.8612,0.8612,0.8612,0.8612,0.8612,0.8612,0.8612,0.8612,0.8612,0.8612,0.8608,0.86,0.8406,0.8227,0.804,0.8012,0.7813,0.7289,0.7246,0.7266,0.7422,0.7245,0.7049,0.6812,0.6649,0.6467,0.633,0.6317,0.6313,0.6323,0.6317,0.6313,0.6323,0.6323,0.6323,0.6323,0.6323,0.6323,0.633,0.6576,0.6712,1.4908,1.5232,1.5544,1.5697,1.5689,1.5642,1.5642,1.5689,1.563,1.5371,1.5305,1.5192,1.4744,1.4787,1.5111,1.5739,1.6032,1.6463,1.7233,1.7305,1.718,1.6968,1.6934,1.6914,1.6987,1.6993,1.7061,1.7351,1.6942,1.6677,1.6677,1.663,1.6577,1.6577,1.6577,1.6577,1.6577,1.669,1.6703,1.672,1.6526,1.6346,1.6266,1.575,1.5462,1.535,1.4334,1.3757,1.3463,1.2635,1.1707,1.0788,1.0788,1.0306,0.9579,0.9579,0.9579,0.9526,0.9222,0.9096,0.9039,0.8726,0.8612,0.8612,0.8612,0.8612,0.8612,0.8612,0.8612,0.8612,0.8612,0.8612,0.8612,0.8612,0.8612,0.8612,0.8612,0.8612,0.8612,0.8612,0.8612,0.8567,0.8385,0.8321,0.8227,0.804,0.8012,0.7938,0.7809,0.768,0.7578,0.762,0.7464,0.726,0.7051,0.6966,0.6828,0.6631,0.6521,0.6511,0.6583,0.6518,0.6511,0.6586,0.6586,0.6586,0.6586,0.6586,0.6586,0.6593,0.6783,0.6829,1.5264,1.5578,1.5784,1.5784,1.5784,1.5751,1.5665,1.5638,1.5518,1.5097,1.501,1.487,1.4416,1.4564,1.4962,1.5525,1.5994,1.6576,1.7315,1.7554,1.7522,1.7414,1.7393,1.7393,1.7393,1.7393,1.746,1.7569,1.7312,1.71,1.71,1.7001,1.6902,1.6902,1.6902,1.6943,1.6918,1.6793,1.6656,1.6513,1.6219,1.6079,1.6072,1.5905,1.5784,1.5784,1.5207,1.4729,1.4244,1.3661,1.278,1.1804,1.1365,1.0832,1.0256,0.9772,0.9579,0.9587,0.9307,0.921,0.9141,0.8751,0.8612,0.8612,0.8612,0.8612,0.8612,0.8612,0.8612,0.8612,0.8612,0.8612,0.8612,0.8612,0.8612,0.8612,0.8612,0.8612,0.8612,0.8612,0.8612,0.8575,0.8473,0.841,0.8377,0.8272,0.8256,0.8256,0.8256,0.7992,0.7883,0.7963,0.7765,0.7602,0.7514,0.7385,0.7184,0.6909,0.6822,0.6733,0.6698,0.6617,0.6614,0.6698,0.6702,0.6702,0.6702,0.6702,0.6702,0.6705,0.6858,0.6886,1.5752,1.5784,1.5784,1.5784,1.5784,1.5752,1.5511,1.541,1.517,1.4626,1.4429,1.4315,1.4021,1.4242,1.4656,1.5244,1.5832,1.6482,1.7112,1.742,1.7542,1.7582,1.7582,1.7582,1.7582,1.7582,1.7582,1.7582,1.7582,1.7582,1.7582,1.7378,1.7226,1.7226,1.7246,1.7186,1.7146,1.6794,1.6506,1.6213,1.5952,1.5784,1.5784,1.5784,1.5784,1.5784,1.5784,1.5302,1.449,1.449,1.3854,1.2829,1.195,1.1414,1.1077,1.0158,0.9723,0.9604,0.9465,0.9388,0.929,0.8804,0.8645,0.8641,0.8616,0.8612,0.8612,0.8612,0.8612,0.8612,0.8612,0.8612,0.8612,0.8612,0.8612,0.8612,0.8612,0.8612,0.8612,0.8612,0.8612,0.8612,0.8612,0.8612,0.8612,0.8612,0.8612,0.8612,0.8612,0.8284,0.8146,0.8308,0.8115,0.7986,0.8033,0.7811,0.753,0.7226,0.7194,0.7069,0.6801,0.6781,0.6781,0.6759,0.6759,0.6759,0.6759,0.6759,0.6759,0.6763,0.6852,0.6913,1.5752,1.5784,1.5784,1.5784,1.5784,1.5752,1.565,1.5347,1.4959,1.4518,1.408,1.3666,1.3414,1.3801,1.4355,1.4988,1.5524,1.6199,1.7085,1.7246,1.7367,1.7555,1.7582,1.7582,1.7582,1.7582,1.7582,1.7582,1.7582,1.7582,1.7582,1.7582,1.7529,1.7529,1.7303,1.7088,1.6787,1.6493,1.6199,1.5905,1.5804,1.5784,1.5784,1.5784,1.5784,1.5784,1.5784,1.5683,1.554,1.554,1.4914,1.4004,1.3806,1.2732,1.1175,1.0979,1.035,0.9604,0.9465,0.9306,0.91,0.8857,0.8775,0.8751,0.8653,0.8612,0.8612,0.8612,0.8612,0.8612,0.8612,0.8612,0.8612,0.8612,0.8612,0.8612,0.8612,0.8612,0.8612,0.8612,0.8612,0.8612,0.8612,0.8612,0.8612,0.8612,0.8612,0.8612,0.8612,0.8555,0.8526,0.8559,0.8519,0.8384,0.8201,0.811,0.8015,0.777,0.7593,0.7454,0.7374,0.7254,0.7157,0.7018,0.7021,0.7021,0.7021,0.7021,0.7021,0.7021,0.7048,0.7058,1.5792,1.5879,1.6028,1.6028,1.6116,1.6135,1.5773,1.5383,1.4907,1.4214,1.3857,1.3591,1.3133,1.3789,1.4418,1.4426,1.5158,1.6001,1.6643,1.6871,1.7081,1.7528,1.7582,1.7582,1.7582,1.7582,1.7582,1.7582,1.7582,1.7582,1.7582,1.7582,1.7515,1.7414,1.7273,1.6985,1.6486,1.6339,1.6126,1.5784,1.5784,1.5784,1.5784,1.5784,1.5784,1.5784,1.5784,1.5784,1.5784,1.5784,1.554,1.5016,1.449,1.3709,1.2673,1.1491,1.0794,1.0324,0.9654,0.9347,0.9218,0.9129,0.8913,0.8674,0.8637,0.8612,0.8612,0.8612,0.8612,0.8612,0.8612,0.8612,0.8612,0.8612,0.8612,0.8612,0.8612,0.8612,0.8612,0.8612,0.8612,0.8612,0.8612,0.8612,0.8612,0.8612,0.8612,0.8612,0.8612,0.8612,0.8612,0.8612,0.8612,0.8564,0.8428,0.8428,0.8292,0.8072,0.7948,0.7854,0.772,0.765,0.7596,0.754,0.7496,0.7455,0.7323,0.7323,0.7231,0.7095,0.7095,0.7095,1.5764,1.5981,1.6224,1.6224,1.6407,1.6453,1.581,1.5372,1.4839,1.3947,1.3709,1.3488,1.3075,1.3906,1.4549,1.4152,1.4991,1.5892,1.623,1.6529,1.6901,1.7428,1.7549,1.7582,1.7582,1.7582,1.7582,1.7582,1.7582,1.7582,1.7582,1.7522,1.7434,1.7206,1.7079,1.679,1.6279,1.6213,1.6059,1.5784,1.5784,1.5784,1.5784,1.5784,1.5784,1.5784,1.5784,1.5784,1.5784,1.5784,1.5784,1.5737,1.4921,1.4447,1.3987,1.2257,1.1542,1.1274,1.0162,0.9731,0.9683,0.9407,0.9037,0.8621,0.8621,0.8641,0.8612,0.8612,0.8612,0.8612,0.8612,0.8612,0.8612,0.8612,0.8612,0.8612,0.8612,0.8612,0.8612,0.8612,0.8612,0.8612,0.8612,0.8612,0.8612,0.8612,0.8612,0.8612,0.8612,0.8612,0.8612,0.8612,0.8612,0.8612,0.8612,0.8612,0.852,0.8292,0.8292,0.8204,0.7984,0.7984,0.7944,0.79,0.79,0.7812,0.7595,0.7595,0.7459,0.7275,0.7231,0.7187,1.5711,1.5981,1.6224,1.6224,1.6407,1.6397,1.5674,1.5134,1.4558,1.3831,1.3329,1.3047,1.3233,1.3966,1.4556,1.46,1.5347,1.5971,1.6183,1.6506,1.6827,1.7206,1.7474,1.7582,1.7582,1.7582,1.7582,1.7582,1.7582,1.7582,1.7582,1.7387,1.7233,1.7199,1.6683,1.6375,1.6321,1.6005,1.5804,1.5784,1.5784,1.5784,1.5784,1.5784,1.5784,1.5784,1.5784,1.5784,1.5784,1.5784,1.5784,1.5778,1.5683,1.4939,1.3859,1.3882,1.3186,1.2078,1.1248,1.0868,1.0559,0.9498,0.8974,0.8796,0.8796,0.869,0.8612,0.8612,0.8612,0.8612,0.8612,0.8612,0.8612,0.8612,0.8612,0.8612,0.8612,0.8612,0.8612,0.8612,0.8612,0.8612,0.8612,0.8612,0.8612,0.8612,0.8612,0.8612,0.8612,0.8612,0.8612,0.8612,0.8612,0.8612,0.8612,0.8612,0.8568,0.8564,0.8564,0.8428,0.8201,0.8157,0.8072,0.79,0.79,0.79,0.7856,0.7856,0.7856,0.7808,0.7591,0.7462,1.5824,1.6221,1.6697,1.6697,1.6871,1.6807,1.5951,1.5403,1.49,1.4064,1.3533,1.3272,1.3394,1.4193,1.4744,1.4409,1.5592,1.657,1.6639,1.7383,1.7933,1.7882,1.8194,1.8198,1.7667,1.7582,1.7582,1.7582,1.7582,1.7508,1.738,1.7266,1.7038,1.6683,1.6442,1.6186,1.6005,1.5885,1.5784,1.5784,1.5784,1.5784,1.5784,1.5784,1.5784,1.5784,1.5784,1.5784,1.5784,1.5784,1.5678,1.5571,1.5571,1.52,1.4637,1.4,1.3631,1.325,1.2177,1.1673,1.1364,1.0403,0.9836,0.9367,0.8843,0.8621,0.8612,0.8612,0.8612,0.8612,0.8612,0.8612,0.8612,0.8612,0.8612,0.8612,0.8612,0.8612,0.8612,0.8612,0.8612,0.8612,0.8612,0.8612,0.8612,0.8612,0.8612,0.8612,0.8612,0.8612,0.8612,0.8612,0.8612,0.8612,0.8612,0.8612,0.8612,0.8612,0.8612,0.8564,0.8428,0.8428,0.8384,0.8344,0.83,0.8252,0.8069,0.8069,0.8028,0.79,0.7768,0.7724,1.5835,1.6348,1.6865,1.6958,1.7088,1.6938,1.5987,1.5476,1.4973,1.404,1.3653,1.3492,1.3492,1.4313,1.4866,1.4595,1.5936,1.7088,1.7408,1.829,1.8883,1.8789,1.9136,1.9026,1.8092,1.7738,1.7549,1.7514,1.7455,1.734,1.6965,1.6938,1.675,1.6286,1.6186,1.6039,1.5784,1.5784,1.5784,1.5784,1.5784,1.5784,1.5784,1.5784,1.5784,1.5784,1.5784,1.5784,1.5771,1.5684,1.5578,1.5384,1.5396,1.5226,1.498,1.4351,1.4184,1.4199,1.3145,1.2777,1.2507,1.1484,1.0706,1.0058,0.9248,0.8784,0.8612,0.8612,0.8612,0.8612,0.8612,0.8612,0.8612,0.8612,0.8612,0.8612,0.8612,0.8612,0.8612,0.8612,0.8612,0.8612,0.8612,0.8612,0.8612,0.8612,0.8612,0.8612,0.8612,0.8612,0.8612,0.8612,0.8612,0.8612,0.8612,0.8612,0.8612,0.8612,0.8612,0.8612,0.8612,0.8612,0.8612,0.8612,0.8612,0.852,0.8336,0.8336,0.8248,0.812,0.8028,0.794,1.5868,1.6317,1.6586,1.6901,1.6967,1.6653,1.5608,1.5141,1.463,1.3704,1.3499,1.3492,1.3492,1.4122,1.4839,1.5569,1.6434,1.7369,1.8531,1.9043,1.9437,1.9843,2.0164,1.9996,1.9069,1.8123,1.7514,1.7226,1.7206,1.6951,1.6362,1.6328,1.6328,1.6321,1.5985,1.5784,1.5784,1.5784,1.5784,1.5784,1.5784,1.5784,1.5784,1.5784,1.5784,1.5784,1.5784,1.5784,1.5758,1.5518,1.5398,1.541,1.5309,1.4967,1.4609,1.5253,1.5217,1.479,1.4178,1.4231,1.4293,1.249,1.1462,1.0837,1.0113,0.9301,0.8612,0.8612,0.8612,0.8612,0.8612,0.8612,0.8612,0.8612,0.8612,0.8612,0.8612,0.8612,0.8612,0.8612,0.8612,0.8612,0.8612,0.8612,0.8612,0.8612,0.8612,0.8612,0.8612,0.8612,0.8612,0.8612,0.8612,0.8612,0.8612,0.8612,0.8612,0.8612,0.8612,0.8612,0.8612,0.8612,0.8612,0.8612,0.8612,0.8612,0.8612,0.8612,0.8612,0.8568,0.8336,0.8072,1.5098,1.5569,1.606,1.5937,1.6038,1.5957,1.4992,1.482,1.463,1.3697,1.3492,1.3637,1.415,1.4859,1.571,1.6775,1.808,1.9208,1.9892,2.0148,2.0064,1.9528,1.875,1.8736,1.9995,1.8447,1.7602,1.8259,1.741,1.668,1.6342,1.6321,1.6179,1.5979,1.5879,1.5784,1.5784,1.5784,1.5784,1.5784,1.5784,1.5784,1.5784,1.5784,1.5784,1.5784,1.5784,1.5784,1.5771,1.5732,1.5458,1.5156,1.5497,1.5236,1.4703,1.5347,1.5562,1.554,1.5085,1.5111,1.5075,1.3614,1.2905,1.2464,1.144,0.9941,0.8612,0.8612,0.8612,0.8612,0.8612,0.8612,0.8612,0.8612,0.8612,0.8612,0.8612,0.8612,0.8612,0.8612,0.8612,0.8649,0.8723,0.8641,0.8653,0.8723,0.8641,0.8612,0.8612,0.8612,0.8612,0.8612,0.8612,0.8612,0.8612,0.8674,0.869,0.8616,0.8678,0.8686,0.8616,0.8612,0.8612,0.8612,0.8612,0.8612,0.8612,0.8612,0.8612,0.8612,0.852,0.8432,1.4724,1.511,1.5491,1.5411,1.5447,1.5357,1.4673,1.4523,1.437,1.3645,1.3492,1.3739,1.4466,1.4994,1.5768,1.7252,1.847,1.9506,2.0191,2.0477,2.0489,2.0253,1.9463,1.9458,2.0783,1.8937,1.8024,1.8889,1.7471,1.661,1.669,1.634,1.6019,1.5791,1.5784,1.5784,1.5784,1.5784,1.5784,1.5784,1.5784,1.5784,1.5784,1.5784,1.5784,1.5784,1.5784,1.5784,0.0,1.5712,1.5497,1.5312,1.5497,1.5295,1.4923,1.5354,1.556,1.5574,1.5455,1.5558,1.5555,1.4536,1.3837,1.319,1.2163,1.0626,0.9174,0.874,0.8652,0.8696,0.8612,0.8612,0.8612,0.8612,0.8612,0.8612,0.8612,0.8612,0.8629,0.8649,0.8657,0.8621,0.8792,0.8678,0.8649,0.871,0.8633,0.8637,0.8653,0.8662,0.869,0.8759,0.8767,0.8767,0.8767,0.8739,0.8678,0.8616,0.8666,0.8678,0.8616,0.8629,0.8662,0.8662,0.8662,0.8662,0.8662,0.8645,0.8612,0.8612,0.8612,0.8612,0.0,1.4853,1.49,1.5185,1.5039,1.4754,1.4472,1.4225,0.0,1.3565,1.3528,1.3811,1.4605,1.476,1.5419,1.7351,1.8064,1.8719,1.9697,2.0152,2.0689,2.1568,2.169,2.1657,2.1518,1.9734,1.8783,1.9281,1.758,1.6738,1.7387,1.644,1.5927,1.5927,1.5832,1.5784,1.5784,1.5784,1.5784,1.5784,1.5758,1.5758,1.5784,1.5758,1.5764,1.5784,1.5784,1.5784,1.5758,1.5538,1.5556,1.5771,1.5436,1.5259,1.5261,1.5452,1.5371,1.5167,1.5376,1.5657,1.5819,1.5274,1.4398,1.336,1.2413,1.1311,1.0207,0.9126,0.8955,0.9038,0.8828,0.874,0.874,0.8656,0.8664,0.8668,0.8612,0.8633,0.869,0.8792,0.8706,0.8658,0.8828,0.8718,0.8653,0.8665,0.8657,0.8662,0.882,0.884,0.8905,0.908,0.9096,0.9096,0.9096,0.8796,0.8645,0.8629,0.8629,0.8629,0.8629,0.8735,0.8828,0.884,0.8828,0.882,0.882,0.8662,0.8637,0.8649,0.8649,0.8649,1.4788,0.0,1.4165,1.3989,1.4077,1.4121,0.0,1.3857,1.3887,1.3565,1.3949,1.4697,1.5761,1.6183,1.7016,1.9028,1.9716,2.0088,2.0237,2.014,2.0365,2.1266,2.0787,2.0974,2.2483,2.064,1.9676,2.0458,1.9066,1.8272,1.8427,1.7505,1.6951,1.6951,1.6204,1.5784,1.5784,1.5784,1.5784,1.5778,1.5605,1.5611,1.5771,1.5598,1.5618,1.5784,1.5784,1.5784,1.5778,1.5711,1.5745,1.5833,1.6139,1.5967,1.5605,1.6279,1.617,1.5718,1.5761,1.5848,1.5819,1.5449,1.5041,1.4524,1.3578,1.2504,1.152,1.1262,1.1219,1.1095,1.0332,1.012,0.9946,0.9305,0.9239,0.9259,0.8901,0.909,0.9171,0.8886,0.8905,0.9027,0.9245,0.9088,0.9019,0.9196,0.906,0.8986,0.9027,0.9031,0.9047,0.9092,0.9096,0.9096,0.9096,0.9023,0.8913,0.8771,0.8763,0.8763,0.8763,0.88,0.8885,0.9031,0.8893,0.882,0.882,0.8779,0.8832,0.8974,0.8974,0.8974,1.4708,1.4543,1.4366,1.3866,1.385,1.3938,1.3762,1.4022,1.4132,1.3601,1.4374,1.5309,1.5939,1.6341,1.7179,1.8991,1.9716,2.0172,2.0631,2.073,2.0926,2.1427,2.1419,2.1726,2.2629,2.1235,2.0549,2.1225,1.9737,1.9018,1.9476,1.8511,1.771,1.7145,1.6583,1.6147,1.5778,1.5784,1.5758,1.5631,1.5605,1.5611,1.5631,1.5605,1.5678,1.5771,1.5691,1.5705,1.5818,1.5785,1.587,1.5964,1.6408,1.6304,1.6009,1.6308,1.6206,1.5899,1.5703,1.5652,1.5622,1.5447,1.534,1.5131,1.4608,1.4048,1.336,1.2285,1.2072,1.1986,1.1397,1.1225,1.1041,1.0236,1.0124,1.0024,0.948,0.9555,0.96,0.93,0.9266,0.9294,0.9371,0.921,0.9129,0.9269,0.9157,0.9125,0.9206,0.9214,0.9246,0.9332,0.934,0.934,0.934,0.9263,0.9137,0.8958,0.895,0.895,0.895,0.9023,0.9112,0.9214,0.9116,0.9027,0.895,0.895,0.8999,0.9096,0.9096,0.9096,1.5067,1.5308,1.5293,1.4328,1.4126,1.4186,1.4246,1.454,1.4645,1.3985,1.4939,1.5921,1.5891,1.6327,1.7134,1.8502,1.9154,1.9929,2.1207,2.1572,2.1739,2.1917,2.2599,2.2925,2.2485,2.1739,2.1427,2.1776,2.0257,1.9658,2.0529,1.9517,1.8437,1.7372,1.7131,1.6658,1.5873,1.5785,1.5638,1.5398,1.5605,1.5638,1.545,1.5698,1.5839,1.5913,1.5658,1.5665,1.5833,1.5829,1.595,1.6165,1.6408,1.6471,1.6455,1.6155,1.6001,1.587,1.5498,1.5389,1.5389,1.5389,1.5389,1.5389,1.5389,1.5389,1.4999,1.3057,1.2699,1.2778,1.2472,1.2416,1.2287,1.1494,1.121,1.097,1.0311,1.0114,1.0012,0.9853,0.9681,0.9553,0.9516,0.9322,0.9177,0.9177,0.9177,0.923,0.9424,0.9445,0.9453,0.9612,0.9579,0.9579,0.9579,0.9486,0.9336,0.9185,0.9129,0.9108,0.9137,0.9351,0.9433,0.9404,0.9404,0.9331,0.9137,0.9137,0.9149,0.9177,0.9177,0.9177,1.7116,1.7306,1.7063,1.5013,1.4736,1.5025,1.5372,1.5638,1.5693,1.5428,1.6158,1.6863,1.6733,1.7871,1.8898,1.914,1.9791,2.0833,2.2553,2.2155,2.2006,2.2775,2.3003,2.3013,2.2759,2.2618,2.2476,2.2299,2.1856,2.1642,2.182,2.0367,1.9451,1.9303,1.8109,1.7104,1.6238,1.5744,1.5438,1.5391,1.5379,1.5484,1.5727,1.5729,1.6,1.6487,1.6445,1.6299,1.6051,1.6049,1.6225,1.6454,1.65,1.6646,1.6822,1.6778,1.6374,1.587,1.5498,1.5389,1.5389,1.5389,1.5389,1.5389,1.5389,1.5389,1.534,1.4999,1.5106,1.5176,1.4336,1.434,1.4307,1.345,1.2722,1.2045,1.1605,1.1081,1.0524,1.014,0.9986,0.9943,0.9923,0.971,0.9547,0.9547,0.9547,0.9555,0.9579,0.9587,0.9596,0.9575,0.9579,0.9579,0.9579,0.9604,0.9575,0.9547,0.9263,0.9165,0.9359,0.949,0.951,0.9404,0.9404,0.9388,0.9363,0.9363,0.9397,0.9547,0.9547,0.9547,1.725,1.7261,1.7178,1.6355,1.6297,1.6451,1.6621,1.694,1.7054,1.6491,1.7406,1.8003,1.7078,1.7784,1.871,1.9469,2.067,2.1902,2.296,2.2731,2.2599,2.3047,2.3091,2.3013,2.2803,2.2803,2.2715,2.2441,2.222,2.1994,2.1805,2.0947,2.0043,1.911,1.8498,1.7675,1.6723,1.5972,1.5445,1.5109,1.527,1.5353,1.5459,1.5606,1.5812,1.6025,1.591,1.5847,1.5815,1.5833,1.6002,1.6263,1.6564,1.6812,1.6903,1.6903,1.6609,1.614,1.5987,1.5826,1.5652,1.5652,1.5528,1.5389,1.5389,1.5389,1.5389,1.5389,1.5498,1.5559,1.5333,1.5351,1.5313,1.4715,1.3825,1.2993,1.2398,1.1626,1.0921,1.0533,1.0445,1.0413,1.0216,1.0117,1.0019,1.0019,1.0019,0.9969,0.9821,0.9826,0.9776,0.9628,0.9579,0.9579,0.9579,0.9579,0.9579,0.9579,0.9474,0.9421,0.9498,0.9583,0.9587,0.9502,0.9502,0.9502,0.9502,0.9502,0.9547,0.9579,0.9579,0.9579,1.7364,1.738,1.7459,1.7929,1.7824,1.7708,1.8086,1.8413,1.8554,1.8085,1.8929,1.9321,1.7866,1.8105,1.9011,2.0437,2.1767,2.2773,2.3052,2.3091,2.3091,2.3091,2.3091,2.3057,2.2882,2.2882,2.2755,2.2431,2.2168,2.1858,2.1513,2.1092,2.0328,1.9103,1.8956,1.8434,1.7456,1.6794,1.6052,1.5224,1.5242,1.5265,1.5303,1.5579,1.572,1.5777,1.5581,1.553,1.5671,1.5662,1.5835,1.6138,1.66,1.6829,1.6903,1.6903,1.6646,1.6265,1.6265,1.606,1.5761,1.5761,1.5593,1.5403,1.5476,1.5498,1.5513,1.5628,1.565,1.5694,1.587,1.6023,1.6074,1.5759,1.4942,1.4108,1.355,1.2441,1.1482,1.1287,1.0998,1.0708,1.0511,1.0462,1.0413,1.0413,1.0413,1.0314,1.0019,1.0019,0.9875,0.9628,0.9579,0.9579,0.9579,0.9579,0.9579,0.9579,0.9579,0.9579,0.9579,0.9579,0.9579,0.9579,0.9579,0.9579,0.9579,0.9579,0.9579,0.9579,0.9579,0.9579,1.8641,1.8894,1.9138,1.9537,1.874,1.825,1.9774,2.0079,2.0218,2.0847,2.1028,2.0787,1.9857,2.0208,2.1226,2.2949,2.3139,2.3062,2.3091,2.3091,2.3091,2.3091,2.3091,2.3091,2.3091,2.3091,2.2935,2.2502,2.2088,2.1736,2.1527,2.0705,2.0298,2.0454,2.0029,1.9378,1.8523,1.8434,1.7639,1.6106,1.5483,1.536,1.5569,1.5763,1.606,1.6323,1.6301,1.614,1.5864,1.5878,1.6046,1.6374,1.6441,1.6631,1.6903,1.6903,1.6469,1.595,1.595,1.5738,1.5425,1.5425,1.5411,1.5447,1.5789,1.5877,1.5943,1.6221,1.6345,1.6243,1.5979,1.6345,1.6799,1.6797,1.623,1.563,1.5602,1.4022,1.2587,1.2587,1.1624,1.0801,1.0757,1.056,1.0413,1.0413,1.0413,1.0314,1.0019,1.0019,0.9875,0.9628,0.9579,0.9579,0.9579,0.9579,0.9579,0.9579,0.9579,0.9579,0.9579,0.9579,0.9579,0.9579,0.9579,0.9579,0.9579,0.9579,0.9579,0.9579,0.9579,0.9579,1.8614,1.9095,1.9567,1.945,1.9454,1.9709,2.0629,2.1082,2.1411,2.1989,2.196,2.1617,2.0948,2.0987,2.1431,2.2397,2.2862,2.3091,2.3091,2.3091,2.3091,2.3091,2.2867,2.2711,2.2711,2.251,2.2295,2.2139,2.1826,2.1467,2.1159,2.0692,2.0372,2.0188,1.9987,1.9736,1.9411,1.8886,1.8388,1.7926,1.6573,1.6038,1.6289,1.5809,1.5679,1.5782,1.5782,1.5716,1.5571,1.5571,1.5796,1.6126,1.6565,1.6793,1.6925,1.7077,1.6996,1.6769,1.6565,1.6287,1.5979,1.5796,1.5688,1.571,1.5877,1.6045,1.6221,1.6382,1.6411,1.6389,1.6228,1.6573,1.6903,1.6903,1.6344,1.5798,1.5798,1.4692,1.3692,1.3692,1.3307,1.2969,1.2969,1.2872,1.2823,1.2823,1.2823,1.2727,1.2484,1.2296,1.2058,1.1814,1.1619,1.1521,1.1521,1.1521,1.1521,1.1521,1.0306,0.9579,0.9579,0.9579,0.9579,0.9579,0.9579,0.9579,0.9579,0.9579,0.9579,0.9579,0.9579,0.9579,1.8583,1.9066,1.9548,1.9416,2.0001,2.0777,2.1474,2.1844,2.228,2.3063,2.2969,2.2615,2.2136,2.1926,2.1964,2.2381,2.2818,2.3091,2.3091,2.3091,2.3091,2.3091,2.2721,2.251,2.251,2.2129,2.1826,2.1689,2.1465,2.114,2.0826,2.0608,2.0404,2.0147,2.0137,2.0137,2.0137,1.9529,1.9323,1.9481,1.7755,1.6829,1.6657,1.579,1.5389,1.5389,1.5389,1.5389,1.5389,1.5389,1.5621,1.5979,1.6653,1.6903,1.6939,1.7208,1.7267,1.715,1.6976,1.6624,1.6191,1.5979,1.5913,1.5935,1.603,1.6279,1.6587,1.6645,1.6674,1.6645,1.6587,1.6734,1.6903,1.6903,1.6575,1.6271,1.6271,1.5466,1.4794,1.4794,1.4507,1.4316,1.4316,1.4316,1.4316,1.4316,1.4316,1.4214,1.3926,1.374,1.3505,1.3119,1.2877,1.2678,1.2678,1.2678,1.2678,1.2678,1.1375,1.0453,1.0113,0.9772,0.9579,0.9579,0.9579,0.9579,0.9579,0.9579,0.9579,0.9579,0.9579,0.9579,1.8808,1.8942,1.9222,1.9689,2.0452,2.1362,2.2294,2.2511,2.2894,2.4218,2.4188,2.3812,2.3554,2.3328,2.3263,2.3477,2.3276,2.3091,2.3091,2.3081,2.3081,2.3081,2.2711,2.25,2.25,2.2119,2.1699,2.122,2.101,2.0817,2.0625,2.042,2.0381,2.0605,2.0605,2.0605,2.0605,2.0605,2.0605,2.0566,1.8838,1.7553,1.6698,1.5782,1.5389,1.5389,1.5431,1.5431,1.5431,1.5431,1.5621,1.5972,1.6646,1.6888,1.6932,1.7201,1.7121,1.6895,1.6895,1.644,1.5921,1.5913,1.5921,1.5979,1.6279,1.6646,1.6969,1.7245,1.7279,1.726,1.6991,1.6903,1.6903,1.6903,1.7099,1.7279,1.7279,1.6513,1.5798,1.5798,1.5032,1.4316,1.4316,1.4316,1.4316,1.4316,1.4316,1.4214,1.3968,1.3926,1.3734,1.3167,1.2877,1.2727,1.2727,1.2727,1.2727,1.2727,1.2727,1.2242,1.1272,1.0207,0.9628,0.9628,0.9628,0.9628,0.9628,0.9628,0.9628,0.9628,0.9628,0.9628,1.8965,1.9313,1.9699,2.012,2.0917,2.18,2.2521,2.3104,2.3588,2.3957,2.3912,2.3776,2.3517,2.3308,2.3215,2.3484,2.303,2.2705,2.2705,2.2441,2.2256,2.2256,2.1875,2.157,2.157,2.1211,2.0938,2.0771,2.0713,2.0654,2.0605,2.0527,2.0527,2.0605,2.0605,2.0605,2.0605,2.0605,2.0605,2.0605,1.945,1.8447,1.7553,1.6072,1.5389,1.5423,1.6064,1.6304,1.6345,1.6992,1.6934,1.6498,1.6939,1.6735,1.6228,1.6535,1.6639,1.6529,1.6265,1.6213,1.6199,1.5987,1.6213,1.6639,1.6727,1.6938,1.7208,1.7304,1.7279,1.7264,1.7216,1.7186,1.7128,1.6954,1.7099,1.7279,1.7279,1.7091,1.685,1.685,1.6608,1.6419,1.6419,1.6419,1.6419,1.6419,1.6419,1.6332,1.6103,1.6055,1.5961,1.5622,1.5343,1.5153,1.5153,1.5003,1.486,1.486,1.4238,1.3366,1.229,1.1955,1.176,1.176,1.1077,1.1082,1.176,1.1082,1.1077,1.176,1.176,1.176,1.9116,1.9483,1.9885,2.0736,2.1528,2.2327,2.3258,2.3772,2.3965,2.3833,2.3884,2.3841,2.3416,2.3319,2.3226,2.3136,2.2771,2.2451,2.2285,2.2041,2.1885,2.1885,2.1504,2.119,2.119,2.083,2.0605,2.0605,2.0605,2.0605,2.0605,2.0605,2.0605,2.0605,2.0605,2.0605,2.0605,2.0605,2.0605,2.0605,1.9736,1.9015,1.8447,1.6714,1.5906,1.5948,1.6821,1.7229,1.7269,1.7796,1.7674,1.7221,1.7213,1.69,1.64,1.6382,1.6411,1.6404,1.6309,1.6323,1.6404,1.6309,1.6587,1.6903,1.6903,1.7077,1.7279,1.7279,1.7279,1.7279,1.7279,1.7279,1.7282,1.7091,1.7186,1.7279,1.7279,1.7279,1.7279,1.7279,1.7279,1.7279,1.7279,1.7279,1.7279,1.7279,1.7279,1.7239,1.7106,1.7073,1.6932,1.6784,1.6501,1.6312,1.6224,1.6028,1.5927,1.5832,1.5207,1.4621,1.3938,1.3162,1.2678,1.2678,1.2096,1.2096,1.2678,1.2096,1.2096,1.2678,1.2678,1.2678,1.9271,1.9557,1.994,2.149,2.2273,2.2968,2.4218,2.4294,2.4069,2.3831,2.395,2.3877,2.3173,2.3187,2.3169,2.2562,2.2422,2.2266,2.1875,2.1787,2.1768,2.1768,2.1416,2.1132,2.1132,2.0801,2.0605,2.0605,2.0605,2.0605,2.0605,2.0605,2.0586,2.0546,2.0546,2.0546,2.0546,2.0546,2.0566,2.0605,1.9814,1.9381,1.9222,1.7594,1.6862,1.6984,1.7755,1.8158,1.8238,1.8238,1.8198,1.8072,1.7506,1.7217,1.7096,1.6679,1.6499,1.6544,1.6876,1.681,1.6588,1.6853,1.6917,1.6947,1.6947,1.7099,1.7279,1.7279,1.7279,1.7279,1.7279,1.7279,1.7279,1.7279,1.7279,1.7279,1.7279,1.7279,1.7279,1.7279,1.7279,1.7279,1.7279,1.7279,1.7279,1.7279,1.7279,1.7279,1.7279,1.716,1.7026,1.7026,1.6777,1.6494,1.6265,1.6177,1.6076,1.5832,1.5784,1.5784,1.5784,1.3986,1.2969,1.2969,1.2877,1.2877,1.2969,1.2877,1.2877,1.2969,1.2969,1.2969,1.9476,1.9982,2.0545,2.2004,2.3114,2.3966,2.4392,2.4048,2.3683,2.377,2.3569,2.3243,2.2732,2.2425,2.2212,2.2041,2.1728,2.1434,2.1346,2.1074,2.0889,2.0889,2.0801,2.0752,2.0752,2.0664,2.0605,2.0605,2.0605,2.0605,2.0605,2.0605,2.0449,2.0059,2.0059,2.0059,2.0059,2.0059,2.0225,2.0605,2.0401,1.9971,1.9262,1.8198,1.8078,1.8767,1.8935,1.9411,2.004,2.004,1.9648,1.8944,1.8132,1.7425,1.6857,1.708,1.7164,1.7219,1.7514,1.7721,1.7767,1.7138,1.7026,1.7223,1.7223,1.7274,1.7279,1.7279,1.7279,1.7279,1.7279,1.7279,1.7279,1.7279,1.7279,1.7279,1.7279,1.7279,1.7279,1.7279,1.7279,1.7279,1.7279,1.7279,1.7279,1.7279,1.7279,1.7279,1.7279,1.7239,1.7239,1.7239,1.6864,1.6588,1.6541,1.6116,1.5879,1.5784,1.5784,1.5784,1.5784,1.5391,1.5146,1.5146,1.4382,1.4334,1.5146,1.4334,1.4382,1.5146,1.5146,1.5146,1.9078,1.9784,2.0715,2.2428,2.3608,2.4317,2.4228,2.3959,2.3617,2.3375,2.3068,2.2709,2.2291,2.2031,2.1816,2.1611,2.1346,2.1122,2.0947,2.0752,2.0605,2.0605,2.0605,2.0605,2.0605,2.0419,2.038,2.0586,2.041,2.0342,2.0595,2.041,2.0146,1.9922,1.9717,1.9707,1.9912,1.9912,2.0137,2.0605,2.0605,2.0372,1.9893,1.9006,1.8856,1.9301,1.9736,2.0167,2.0605,2.0605,2.0323,1.9854,1.8966,1.8318,1.7902,1.7762,1.7821,1.802,1.8342,1.8365,1.8242,1.7925,1.7557,1.7279,1.7279,1.7279,1.7279,1.7279,1.7279,1.7279,1.7279,1.7279,1.7279,1.7279,1.7279,1.7279,1.7279,1.7279,1.7279,1.7279,1.7279,1.7279,1.7279,1.7279,1.7279,1.7279,1.7279,1.7279,1.7279,1.7279,1.7344,1.7545,1.733,1.7156,1.7064,1.678,1.6428,1.6052,1.6172,1.6186,1.6046,1.6039,1.5972,1.5784,1.5302,1.5302,1.5784,1.5255,1.5302,1.5784,1.5784,1.5784,1.8484,1.954,2.0827,2.2802,2.3867,2.4333,2.396,2.3857,2.3588,2.2869,2.2575,2.2331,2.1891,2.175,2.1584,2.1182,2.1123,2.0986,2.0654,2.0605,2.0576,2.0507,2.0556,2.0546,2.04,2.0078,2.0029,2.0361,2.001,1.9971,2.0361,2.0,1.9775,1.9697,1.9355,1.9346,1.9687,1.9775,2.0019,2.0488,2.0566,2.0605,2.0566,1.9854,1.9539,1.9578,2.0294,2.0605,2.0605,2.0605,2.0605,2.0527,1.9657,1.9301,1.9231,1.8677,1.867,1.9,1.941,1.9163,1.8669,1.8738,1.8241,1.7559,1.7559,1.7692,1.7785,1.7606,1.7559,1.7512,1.7326,1.7279,1.7279,1.7279,1.7279,1.7279,1.7279,1.7279,1.7279,1.7279,1.7279,1.7279,1.7279,1.7279,1.7279,1.7279,1.7279,1.7279,1.7279,1.733,1.7468,1.7786,1.7819,1.7714,1.7534,1.7456,1.7153,1.6415,1.6573,1.66,1.6359,1.6346,1.6233,1.5937,1.5831,1.5784,1.5784,1.5784,1.5784,1.5784,1.5784,1.5784,1.8194,1.9682,2.1428,2.3318,2.3877,2.395,2.3888,2.3567,2.3112,2.2409,2.2278,2.2119,2.163,2.1253,2.0938,2.0703,2.0693,2.0674,2.0615,2.0605,2.0458,2.0049,2.0332,2.0312,1.9531,1.9736,1.9785,1.9519,1.9404,1.9394,1.9453,1.9404,1.9199,1.8783,1.8715,1.8715,1.8773,1.918,1.959,2.0,2.0419,2.0605,2.0605,2.0479,2.045,2.045,2.0566,2.0605,2.0605,2.0605,2.0605,2.0527,1.9657,1.9301,1.9384,2.004,2.0282,2.0437,2.1098,2.0757,1.981,1.9047,1.8696,1.8603,1.8603,1.9147,1.9642,1.8834,1.8603,1.838,1.7512,1.7279,1.7279,1.7279,1.7279,1.7279,1.7279,1.7279,1.7279,1.7279,1.7279,1.7279,1.7279,1.7279,1.7279,1.7279,1.7279,1.7279,1.7279,1.7527,1.7765,1.7808,1.7835,1.7768,1.7498,1.7313,1.7,1.6653,1.6687,1.6687,1.6647,1.6647,1.6627,1.6587,1.6086,1.5784,1.5784,1.5784,1.5784,1.5784,1.5784,1.5784,1.8775,1.9924,2.1114,2.2708,2.3298,2.3422,2.3163,2.2946,2.2666,2.2095,2.1992,2.1808,2.1262,2.1035,2.0867,2.078,2.0654,2.0644,2.0741,2.0654,2.0537,2.0341,2.0488,2.0361,1.9697,1.959,1.9482,1.9297,1.9062,1.9023,1.9277,1.9053,1.8802,1.8607,1.8373,1.8364,1.8598,1.8792,1.9258,1.9922,2.04,2.0605,2.0605,2.0605,2.0605,2.0605,2.0605,2.0605,2.0605,2.0605,2.0605,2.0566,2.0167,2.001,2.0087,2.0695,2.1116,2.1402,2.1959,2.1644,2.0962,2.0557,2.0059,1.9604,1.9604,1.9513,1.933,1.8926,1.838,1.7878,1.7419,1.7279,1.7279,1.7279,1.7279,1.7279,1.7279,1.7279,1.7279,1.7279,1.7279,1.7279,1.7279,1.7279,1.7344,1.7574,1.7604,1.7669,1.7852,1.7999,1.816,1.8343,1.8389,1.8354,1.8279,1.7979,1.7647,1.7228,1.721,1.7121,1.7012,1.7005,1.7005,1.7005,1.638,1.6079,1.6079,1.5912,1.5784,1.5784,1.5784,1.5784,1.8806,1.9561,2.0234,2.1621,2.2408,2.2749,2.2397,2.2418,2.2366,2.1901,2.1807,2.1655,2.1128,2.1061,2.1022,2.0984,2.072,2.0564,2.0776,2.0552,2.0369,2.0369,2.0369,2.0154,1.9629,1.9307,1.9072,1.8965,1.8662,1.8588,1.8945,1.8652,1.8442,1.8442,1.8174,1.812,1.8442,1.8549,1.8978,1.9756,2.0195,2.038,2.0282,2.0507,2.0546,2.0449,2.0556,2.0605,2.0605,2.0605,2.0605,2.0605,2.0605,2.0605,2.0674,2.1191,2.1611,2.1963,2.249,2.221,2.1695,2.1695,2.1195,2.0593,2.0593,2.0104,1.9467,1.9247,1.8419,1.7598,1.7372,1.7512,1.7598,1.7372,1.7512,1.7598,1.7372,1.7279,1.7279,1.7279,1.7279,1.7279,1.7279,1.7352,1.749,1.7779,1.7882,1.8028,1.8269,1.8372,1.8518,1.8767,1.8862,1.8913,1.8788,1.8534,1.8175,1.7643,1.7625,1.7482,1.732,1.7306,1.7306,1.7306,1.6811,1.6469,1.6321,1.6126,1.5924,1.5784,1.5985,1.5972,1.7554,1.8154,1.8816,2.0158,2.1207,2.1869,2.1849,2.218,2.2366,2.1901,2.1807,2.1731,2.1502,2.1474,2.1397,2.1205,2.0643,2.0279,2.0497,1.9999,1.9641,1.9641,1.9641,1.938,1.875,1.8646,1.8471,1.8105,1.8057,1.8047,1.8076,1.8057,1.8047,1.8047,1.8018,1.8018,1.8047,1.8403,1.8867,1.9326,1.9746,1.9736,1.9385,2.0233,2.038,1.9971,2.0429,2.0605,2.0605,2.0605,2.0605,2.0605,2.0605,2.0605,2.0703,2.1533,2.1865,2.2002,2.2822,2.2492,2.1695,2.1695,2.165,2.1606,2.1606,2.1606,2.1329,2.0421,1.9467,1.8519,1.7552,1.8017,1.8473,1.7512,1.8017,1.8473,1.7512,1.7279,1.7279,1.7279,1.7279,1.7279,1.7279,1.7582,1.7794,1.7808,1.8079,1.8284,1.8299,1.8577,1.8767,1.8789,1.9067,1.9042,1.8475,1.8422,1.8153,1.7615,1.7628,1.7575,1.7562,1.7562,1.7562,1.7562,1.7313,1.6878,1.6321,1.6533,1.6373,1.5798,1.64,1.6359,1.6777,1.7605,1.86,1.9354,2.0027,2.0565,2.0855,2.128,2.1559,2.1393,2.16,2.1769,2.1693,2.1578,2.1474,2.1387,2.0823,2.0446,2.0643,2.0149,1.9706,1.9608,1.9608,1.9321,1.8682,1.8598,1.8422,1.8047,1.8008,1.8008,1.8008,1.8008,1.8008,1.8008,1.8008,1.8008,1.8008,1.8393,1.8676,1.8877,1.9307,1.9434,1.9297,1.9609,1.9805,1.9922,2.0078,2.0303,2.0605,2.0605,2.0605,2.0605,2.0605,2.0605,2.0713,2.1603,2.1885,2.2012,2.2808,2.2872,2.2599,2.2599,2.2599,2.2599,2.2599,2.2192,2.1606,2.1284,2.0466,1.9604,1.9239,1.8964,1.8565,1.7559,1.7606,1.7738,1.7372,1.7279,1.7279,1.7279,1.7279,1.7344,1.7604,1.7735,1.7955,1.8379,1.854,1.8694,1.8899,1.903,1.9103,1.9103,1.9206,1.9116,1.8757,1.8534,1.8213,1.7859,1.7694,1.7582,1.7582,1.7582,1.7582,1.7582,1.7534,1.7286,1.6884,1.6747,1.6593,1.6393,1.6607,1.6593,1.609,1.6912,1.7885,1.8464,1.8847,1.9272,2.0027,2.0441,2.0752,2.1052,2.1362,2.1621,2.1776,2.1569,2.1391,2.1391,2.0703,2.0234,2.0452,1.9839,1.9379,1.9477,1.9286,1.9031,1.8652,1.8481,1.8276,1.8037,1.8008,1.8008,1.8008,1.8008,1.8008,1.8008,1.8008,1.8008,1.8008,1.8256,1.8393,1.8393,1.8867,1.8994,1.8867,1.916,1.9355,1.9465,1.9757,2.0166,2.0605,2.0605,2.0605,2.0605,2.0605,2.0605,2.0713,2.1603,2.1885,2.2012,2.2808,2.3091,2.3091,2.3091,2.3091,2.3091,2.3091,2.2457,2.1695,2.1695,2.0962,2.0141,1.9824,1.901,1.8195,1.7878,1.7559,1.7279,1.7279,1.7279,1.7279,1.7279,1.7279,1.7388,1.7757,1.7904,1.8167,1.8708,1.8884,1.903,1.925,1.9279,1.9279,1.9279,1.9279,1.9175,1.8757,1.8534,1.8272,1.7905,1.7694,1.7582,1.7582,1.7582,1.7582,1.7582,1.7582,1.7488,1.7347,1.7001,1.67,1.642,1.6613,1.6653,0.0,0.0,0.0,1.743,1.7657,1.8008,1.9409,1.973,1.999,2.0866,2.1062,2.1217,2.1683,2.1383,2.1073,2.1073,2.0195,1.9561,1.9758,1.907,1.8676,1.9108,1.8674,1.837,1.8539,1.8217,1.8008,1.8008,1.8008,1.8008,1.8008,1.8008,1.8008,1.8008,1.8008,1.8008,1.8008,1.8008,1.8008,1.8018,1.8393,1.8373,1.8037,1.8867,1.9023,1.8646,1.9494,2.0146,2.0586,2.0595,2.0605,2.0605,2.0605,2.0605,2.0713,2.1603,2.1885,2.2012,2.2808,2.3091,2.3091,2.3091,2.3091,2.3091,2.3091,2.2467,2.1739,2.1739,2.1051,2.0051,1.9101,1.811,1.7606,1.8519,1.8017,1.7279,1.7279,1.7279,1.7279,1.7279,1.7279,1.7388,1.7772,1.8094,1.8416,1.8752,1.9074,1.9279,1.9279,1.9279,1.9279,1.9279,1.9272,1.9063,1.8475,1.837,1.816,1.7635,1.7582,1.7582,1.7582,1.7582,1.7582,1.7582,1.7582,1.7582,1.7569,1.734,1.6707,1.5879,1.644,1.6553,1.5144,0.0,0.0,0.0,0.0,0.0,1.7636,1.805,1.8547,1.9448,1.9903,2.0311,2.0721,2.0441,2.0176,2.0176,1.9924,1.9699,1.9596,1.9094,1.8691,1.854,1.8417,1.8251,1.8174,1.8076,1.8008,1.8008,1.8008,1.8008,1.8008,1.8008,1.8008,1.8008,1.8008,1.8008,1.8008,1.8008,1.8008,1.8008,1.8091,1.8125,1.8018,1.8252,1.8467,1.8627,1.9219,1.9697,2.0117,2.0478,2.0605,2.0605,2.0605,2.0605,2.0713,2.1603,2.1885,2.2012,2.2808,2.3091,2.3091,2.3091,2.3091,2.3091,2.3091,2.2916,2.2731,2.2731,2.2501,2.1908,2.0232,1.9101,1.8288,1.7831,1.7512,1.7279,1.7279,1.7279,1.7279,1.7279,1.7279,1.7461,1.8072,1.824,1.8496,1.906,1.922,1.9279,1.9279,1.9279,1.9279,1.9279,1.913,1.8862,1.8422,1.822,1.7957,1.7635,1.7582,1.7582,1.7582,1.7582,1.7582,1.7582,1.7582,1.7475,1.732,1.7239,1.7079,1.6831,1.6727,1.666,0.0,0.0,0.0,1.6541,0.0,0.0,1.7246,1.7544,1.7914,1.8936,1.9435,1.9799,2.0252,2.0034,1.9758,1.9689,1.95,1.9342,1.9206,1.8836,1.8506,1.8303,1.8245,1.8144,1.8008,1.8008,1.7939,1.7764,1.7744,1.7666,1.7457,1.7447,1.7447,1.7447,1.7713,1.7835,1.7835,1.8089,1.8178,1.8144,1.8178,1.8144,1.8008,1.8076,1.8213,1.8373,1.9023,1.9424,1.9697,2.0351,2.0605,2.0605,2.0605,2.0605,2.0693,2.1357,2.1728,2.1982,2.2646,2.2945,2.3091,2.3091,2.3091,2.3091,2.3091,2.3091,2.3091,2.3091,2.2501,2.1641,2.0503,1.9193,1.8017,1.7419,1.7279,1.7279,1.7279,1.7279,1.7279,1.7279,1.7279,1.749,1.8189,1.8299,1.8525,1.9177,1.9279,1.9279,1.9279,1.9279,1.9279,1.913,1.8974,1.8712,1.8272,1.8069,1.7911,1.7635,1.7582,1.7582,1.7582,1.7582,1.7582,1.7582,1.7582,1.7382,1.7018,1.7018,1.6834,1.6593,1.642,1.6339,0.0,0.0,0.0,0.0,1.6646,0.0,1.7491,1.7563,1.7685,1.8738,1.9093,1.9373,1.9823,1.9716,1.9507,1.9336,1.8971,1.8723,1.8731,1.8472,1.8303,1.8269,1.811,1.8008,1.8008,1.8008,1.7852,1.748,1.7484,1.7285,1.6863,1.6794,1.6826,1.6875,1.734,1.7635,1.7717,1.8215,1.8414,1.8303,1.8414,1.8279,1.8008,1.8178,1.8178,1.8091,1.8903,1.9284,1.9392,2.0242,2.0566,2.0605,2.0605,2.0605,2.0664,2.1064,2.1475,2.1885,2.2353,2.2711,2.3033,2.3081,2.3091,2.3091,2.3091,2.3091,2.3091,2.3091,2.1774,2.0367,2.0367,1.901,1.7606,1.7512,1.7466,1.7419,1.7326,1.7279,1.7279,1.7279,1.7279,1.7523,1.8138,1.8277,1.8511,1.9133,1.9302,1.9279,1.9279,1.9272,1.916,1.8871,1.8803,1.8593,1.8028,1.795,1.7859,1.7635,1.7582,1.7582,1.7582,1.7582,1.7569,1.7535,1.7502,1.7215,1.666,1.666,1.6373,1.5784,1.5784,1.5784,0.0,0.0,0.0,1.6365,1.6412,0.0,1.6042,1.6272,1.676,1.7328,1.7451,1.7616,1.8111,1.8163,1.8101,1.807,1.8039,1.8147,1.8355,1.8337,1.8236,1.8076,1.8008,1.8008,1.8008,1.8008,1.7978,1.79,1.7891,1.7852,1.7764,1.7441,1.7478,1.7968,1.7754,1.7817,1.8308,1.8331,1.8337,1.8303,1.8178,1.8076,1.8008,1.8042,1.8144,1.8265,1.8745,1.9179,1.9574,2.0078,2.0417,2.0605,2.0605,2.0605,2.0664,2.1064,2.1249,2.1434,2.2246,2.2568,2.2685,2.2984,2.3091,2.3091,2.3091,2.3091,2.3091,2.3091,2.228,2.1418,2.1418,2.0512,1.9422,1.8696,1.8519,1.8288,1.7466,1.7279,1.7279,1.7279,1.7279,1.741,1.7845,1.813,1.8438,1.8825,1.9111,1.9279,1.9279,1.9123,1.8873,1.8518,1.8296,1.8032,1.7681,1.7664,1.7641,1.7582,1.7582,1.7582,1.7582,1.7582,1.7475,1.7293,1.7001,1.6707,1.6359,1.6359,1.6172,1.5784,1.5784,1.5784,1.7315,1.7288,1.7221,1.6948,1.6759,0.0,0.0,1.6373,1.6574,1.7022,1.6991,1.6959,1.7215,1.7327,1.7327,1.7266,1.7621,1.7873,1.7765,1.7968,1.811,1.8008,1.8008,1.8008,1.8008,1.8008,1.793,1.7715,1.749,1.734,1.734,1.7168,1.7191,1.7494,1.7648,1.7845,1.8042,1.8395,1.8472,1.8303,1.8279,1.8178,1.8008,1.811,1.8144,1.8163,1.8586,1.8866,1.9141,1.9779,2.0134,2.0264,2.0517,2.0605,2.0635,2.082,2.1045,2.1259,2.1687,2.2012,2.2266,2.2685,2.2779,2.2818,2.3033,2.3091,2.3091,2.3091,2.2413,2.1695,2.1695,2.0962,1.996,1.9018,1.8788,1.8519,1.7512,1.7279,1.7279,1.7279,1.7279,1.7388,1.7757,1.7947,1.8167,1.8496,1.8686,1.8789,1.8789,1.8542,1.8281,1.7966,1.7731,1.7521,1.7418,1.7392,1.7481,1.7569,1.7582,1.7582,1.7582,1.7494,1.728,1.6934,1.664,1.642,1.6321,1.6126,1.5972,1.5784,1.5784,1.5784,1.7734,1.7678,1.7672,1.7686,1.7198,1.6747,0.0,0.0,0.0,1.692,1.6829,1.6665,1.6665,1.6682,1.6691,1.6684,1.7133,1.7423,1.711,1.7536,1.7894,1.7982,1.7993,1.8008,1.8042,1.8099,1.7941,1.7553,1.7219,1.7044,1.7005,1.6926,1.6917,1.7037,1.7638,1.7906,1.7767,1.8425,1.8573,1.8303,1.8381,1.8245,1.8008,1.8178,1.8168,1.8095,1.8404,1.8599,1.8736,1.9509,1.9881,1.9961,2.0429,2.0605,2.0605,2.0605,2.0791,2.1123,2.1161,2.1465,2.1826,2.2256,2.2393,2.248,2.2945,2.3042,2.2994,2.3071,2.2555,2.1971,2.1971,2.123,2.0232,1.9285,1.8926,1.8519,1.7512,1.7279,1.7279,1.7279,1.7279,1.7366,1.7677,1.7772,1.7904,1.8167,1.8262,1.8306,1.8207,1.8009,1.769,1.7379,1.7129,1.7038,1.7018,1.7085,1.7219,1.7402,1.7415,1.7415,1.7415,1.7186,1.6918,1.6627,1.6339,1.6186,1.6186,1.5945,1.5784,1.5784,1.5784,1.5784,1.7949,1.7964,1.7754,1.7024,1.7172,1.7179,1.6108,0.0,1.6507,1.628,0.0,1.6185,1.6185,0.0,0.0,1.6124,1.6152,1.6226,1.6528,1.7009,1.7438,1.7861,1.7951,1.8076,1.8236,1.8365,1.8306,1.7944,1.8167,1.8248,1.8134,1.7721,1.7757,1.8288,1.8198,1.824,1.8402,1.8486,1.8448,1.8303,1.8144,1.8042,1.8008,1.8008,1.811,1.8279,1.8319,1.8522,1.8908,1.9433,1.9748,1.9961,2.0429,2.0605,2.0605,2.0605,2.0635,2.0742,2.1094,2.122,2.1346,2.1816,2.1953,2.21,2.2857,2.2838,2.2656,2.2994,2.3003,2.296,2.296,2.2236,2.1284,2.0286,1.9422,1.8519,1.7512,1.7279,1.7279,1.7279,1.7279,1.7293,1.733,1.7625,1.783,1.7867,1.8116,1.8207,1.7967,1.7711,1.7358,1.6849,1.6758,1.6663,1.6442,1.6607,1.6774,1.6807,1.6807,1.6807,1.6807,1.6526,1.6359,1.6375,1.6032,1.5879,1.5879,1.5798,1.5784,1.5784,1.5784,1.5784,1.8008,1.8008,1.7871,1.7266,1.7083,1.6914,1.6197,1.6049,1.6066,1.5992,0.0,0.0,0.0,0.0,0.0,0.0,1.5896,1.6058,1.5833,1.6238,1.6867,1.7748,1.759,1.7527,1.775,1.8236,1.8363,1.8046,1.8304,1.8438,1.8317,1.8091,1.8148,1.8472,1.8535,1.8525,1.8516,1.8617,1.8583,1.8414,1.8347,1.8279,1.8279,1.8279,1.8279,1.8303,1.8303,1.8344,1.8404,1.8846,1.9242,1.959,2.0019,2.038,2.0605,2.0605,2.0605,2.0635,2.0781,2.084,2.0918,2.1367,2.1846,2.2314,2.2666,2.2822,2.2867,2.3042,2.3091,2.3091,2.3091,2.2413,2.1472,2.0458,1.9467,1.8519,1.7512,1.7279,1.7279,1.7279,1.7279,1.7286,1.7153,1.7356,1.749,1.7355,1.7478,1.7462,1.7173,1.6932,1.6642,1.6423,1.6277,1.6219,1.6266,1.6386,1.6526,1.6693,1.6707,1.6627,1.646,1.6339,1.6192,1.6019,1.5892,1.5784,1.5784,1.5784,1.5784,1.5784,1.5784,1.5784,1.8008,1.8008,1.7881,1.7334,1.6941,1.6582,1.6136,1.593,1.5851,1.5968,1.5837,0.0,0.0,0.0,1.5489,1.5489,0.0,1.5979,1.5473,1.569,1.6277,1.7393,1.7513,1.748,1.7493,1.8061,1.8291,1.7873,1.8194,1.8394,1.8365,1.8337,1.8405,1.8583,1.8774,1.8741,1.8516,1.8552,1.8535,1.8345,1.8345,1.8345,1.8345,1.8465,1.8448,1.8337,1.8337,1.8279,1.8173,1.8606,1.897,1.9315,1.9856,2.0259,2.0564,2.0605,2.0605,2.0605,2.0605,2.0605,2.0674,2.1094,2.1531,2.2041,2.2402,2.2646,2.2799,2.3033,2.3091,2.3091,2.3091,2.2413,2.1472,2.0458,1.9467,1.8519,1.7512,1.7279,1.7279,1.7279,1.7239,1.7153,1.7026,1.7113,1.7153,1.6925,1.6885,1.6784,1.6541,1.6312,1.6177,1.6076,1.5927,1.5919,1.6132,1.6152,1.6239,1.6453,1.6466,1.6373,1.6159,1.6152,1.6052,1.5784,1.5784,1.5784,1.5784,1.5912,1.5912,1.5784,1.5784,1.5784,1.8008,1.8008,1.7803,1.6931,1.6716,1.6473,1.5635,1.5782,1.6136,1.6267,1.6655,1.6943,1.6943,1.6564,0.0,0.0,1.595,0.0,0.0,1.5475,1.57,1.6708,1.7951,1.8461,1.7776,1.8064,1.8086,1.7575,1.7894,1.8216,1.8479,1.8482,1.8573,1.8774,1.8975,1.8908,1.8516,1.8248,1.8058,1.7926,1.7926,1.7926,1.7936,1.8325,1.8516,1.8482,1.8482,1.8482,1.8522,1.8998,1.9188,1.9289,2.0162,2.0504,2.0489,2.0564,2.0605,2.0605,2.0605,2.0605,2.0674,2.1094,2.0967,2.0899,2.2129,2.2236,2.21,2.2867,2.3091,2.3091,2.3091,2.2413,2.1472,2.0458,1.9467,1.8519,1.7512,1.7279,1.7279,1.7279,1.7153,1.7026,1.6979,1.7026,1.6932,1.6636,1.6636,1.6541,1.6272,1.6224,1.6123,1.5832,1.5832,1.5784,1.5798,1.5798,1.5798,1.5811,1.5811,1.5804,1.5798,1.5798,1.5791,1.5784,1.5784,1.5784,1.5784,1.6119,1.6112,1.5784,1.5784,1.5784,1.8008,1.8008,1.7871,1.7305,1.6943,1.6541,1.5977,1.5987,1.6125,1.6155,1.6509,1.6792,1.6792,1.6674,0.0,0.0,0.0,1.5645,0.0,1.4679,1.4925,1.5547,1.6948,1.7438,1.6299,1.7384,1.7839,1.7025,1.7543,1.803,1.8355,1.8448,1.8583,1.8808,1.9008,1.9031,1.8908,1.8821,1.8748,1.8682,1.8682,1.8682,1.8693,1.8836,1.8808,1.8717,1.8717,1.8617,1.8526,1.8676,1.9088,1.9696,1.9853,2.0247,2.0775,2.0808,2.0819,2.078,2.0644,2.0605,2.0625,2.0742,2.0889,2.1143,2.1875,2.2197,2.2412,2.2935,2.3091,2.3091,2.3091,2.1917,2.0638,2.0277,1.8964,1.7692,1.7372,1.7279,1.7239,1.7113,1.7073,1.6885,1.6508,1.6461,1.6461,1.6359,1.6359,1.6265,1.5974,1.5933,1.5879,1.5832,1.5784,1.5784,1.5784,1.5784,1.5784,1.5784,1.5784,1.5784,1.5784,1.5784,1.5784,1.5784,1.5784,1.5784,1.5784,1.5925,1.5925,1.5784,1.5784,1.5784,1.8008,1.8008,1.791,1.749,1.7168,1.6846,1.6396,1.6447,1.6564,1.6564,1.6885,1.7155,1.7155,1.7038,0.0,0.0,0.0,0.0,0.0,1.4126,1.4379,1.4637,1.6122,1.6769,1.5848,1.656,1.6984,1.6746,1.693,1.7421,1.8267,1.8414,1.8583,1.8808,1.9008,1.9108,1.9108,1.8787,1.8704,1.8859,1.8671,1.8671,1.887,1.9025,1.9042,1.8908,1.8908,1.8841,1.8707,1.8707,1.9052,1.9621,1.9792,2.0229,2.0735,2.0777,2.078,2.078,2.0644,2.0605,2.0605,2.0605,2.0762,2.1103,2.1709,2.207,2.2412,2.2935,2.3091,2.3091,2.3091,2.1908,2.0638,2.0277,1.901,1.7738,1.7372,1.7279,1.7239,1.7019,1.6932,1.6737,1.6272,1.6123,1.6076,1.6076,1.6076,1.5981,1.5825,1.5784,1.5784,1.5784,1.5784,1.5784,1.5784,1.5784,1.5784,1.5784,1.5784,1.5784,1.5784,1.5784,1.5784,1.5784,1.5784,1.5784,1.5784,1.5939,1.5932,1.5784,1.5939,1.5925]}]]